[[{"header":{"parameterUnit":"m.s-1","parameterCategory":1,"la1":31.0,"la2":29.5877,"lo1":-88.7671,"lo2":-86.6584,"dy":0.0162,"dx":0.0185,"nx":115,"ny":88,"refTime":"2024-09-02T18:00:00:Z","depth":0,"parameterNumber":2,"parameterNumberName":"U-component_of_WINDS"},"data":[0.0,0.0,0.0,0.0,0.0,0.0,0.0,0.0,0.0,0.0,0.0,0.0,0.0,0.0,0.0,0.0,0.0,0.0,0.0,0.0,0.0,0.0,0.0,0.0,0.0,0.0,0.0,0.0,0.0,0.0,0.0,0.0,0.0,0.0,0.0,0.0,0.0,0.0,0.0,0.0,0.0,0.0,0.0,0.0,0.0,0.0,0.0,0.0,0.0,0.0,0.0,0.0,0.0,0.0,0.0,0.0,0.0,0.0,0.0,0.0,0.0,0.0,0.0,0.0,0.0,0.0,0.0,0.0,0.0,0.0,0.0,0.0,0.0,0.0,0.0,0.0,0.0,0.0,0.0,0.0,0.0,0.0,0.0,0.0,0.0,0.0,0.0,0.0,0.0,0.0,0.0,0.0,0.0,0.0,0.0,0.0,0.0,0.0,0.0,0.0,0.0,0.0,0.0,0.0,0.0,0.0,0.0,0.0,0.0,0.0,0.0,0.0,0.0,0.0,0.0,0.0,0.0,0.0,0.0,0.0,0.0,0.0,0.0,0.0,0.0,0.0,0.0,0.0,0.0,0.0,0.0,0.0,0.0,0.0,0.0,0.0,0.0,0.0,0.0,0.0,0.0,0.0,0.0,0.0,0.0,0.0,0.0,0.0,0.0,0.0,0.0,0.0,0.0,0.0,0.0,0.0,0.0,0.0,0.0,0.0,0.0,0.0,0.0,0.0,0.0,0.0,0.0,0.0,0.0,0.0,0.0,0.0,0.0,0.0,0.0,0.0,0.0,0.0,0.0,0.0,0.0,0.0,0.0,0.0,0.0,0.0,0.0,0.0,0.0,0.0,0.0,0.0,0.0,0.0,0.0,0.0,0.0,0.0,0.0,0.0,0.0,0.0,0.0,0.0,0.0,0.0,0.0,0.0,0.0,0.0,0.0,0.0,0.0,0.0,0.0,0.0,0.0,0.0,0.0,0.0,0.0,0.0,0.0,0.0,0.0,0.0,0.0,0.0,0.0,0.0,0.0,0.0,0.0,0.0,0.0,0.0,0.0,0.0,0.0,0.0,0.0,0.0,0.0,0.0,0.0,0.0,0.0,0.0,0.0,0.0,0.0,0.0,0.0,0.0,0.0,0.0,0.0,0.0,0.0,0.0,0.0,0.0,0.0,0.0,0.0,0.0,0.0,0.0,0.0,0.0,0.0,0.0,0.0,0.0,0.0,0.0,0.0,0.0,0.0,0.0,0.0,0.0,0.0,0.0,0.0,0.0,0.0,0.0,0.0,0.0,0.0,0.0,0.0,0.0,0.0,0.0,0.0,0.0,0.0,0.0,0.0,0.0,0.0,0.0,0.0,0.0,0.0,0.0,0.0,0.0,0.0,0.0,0.0,0.0,0.0,0.0,0.0,0.0,0.0,0.0,0.0,0.0,0.0,0.0,0.0,0.0,0.0,0.0,0.0,0.0,0.0,0.0,0.0,0.0,0.0,0.0,0.0,0.0,0.0,0.0,0.0,0.0,0.0,0.0,0.0,0.0,0.0,0.0,0.0,0.0,0.0,0.0,0.0,0.0,0.0,0.0,0.0,0.0,0.0,0.0,0.0,0.0,0.0,0.0,0.0,0.0,0.0,0.0,0.0,0.0,0.0,0.0,0.0,0.0,0.0,0.0,0.0,0.0,0.0,0.0,0.0,0.0,0.0,0.0,0.0,0.0,0.0,0.0,0.0,0.0,0.0,0.0,0.0,0.0,0.0,0.0,0.0,0.0,0.0,0.0,0.0,0.0,0.0,0.0,0.0,0.0,0.0,0.0,0.0,0.0,0.0,0.0,0.0,0.0,0.0,0.0,0.0,0.0,0.0,0.0,0.0,0.0,0.0,0.0,0.0,0.0,0.0,0.0,0.0,0.0,0.0,0.0,0.0,0.0,0.0,0.0,0.0,0.0,0.0,0.0,0.0,0.0,0.0,0.0,0.0,0.0,0.0,0.0,0.0,0.0,0.0,0.0,0.0,0.0,0.0,0.0,0.0,0.0,0.0,0.0,0.0,0.0,0.0,0.0,0.0,0.0,0.0,0.0,0.0,0.0,0.0,0.0,0.0,0.0,0.0,0.0,0.0,0.0,0.0,0.0,0.0,0.0,0.0,0.0,0.0,0.0,0.0,0.0,0.0,0.0,0.0,0.0,0.0,0.0,0.0,0.0,0.0,0.0,0.0,0.0,0.0,0.0,0.0,0.0,0.0,0.0,0.0,0.0,0.0,0.0,0.0,0.0,0.0,0.0,0.0,0.0,0.0,0.0,0.0,0.0,0.0,0.0,0.0,0.0,0.0,0.0,0.0,0.0,0.0,0.0,0.0,0.0,0.0,0.0,0.0,0.0,0.0,0.0,0.0,0.0,0.0,0.0,0.0,0.0,0.0,0.0,0.0,0.0,0.0,0.0,0.0,0.0,0.0,0.0,0.0,0.0,0.0,0.0,0.0,0.0,0.0,0.0,0.0,0.0,0.0,0.0,0.0,0.0,0.0,0.0,0.0,0.0,0.0,0.0,0.0,0.0,0.0,0.0,0.0,0.0,0.0,0.0,0.0,0.0,0.0,0.0,0.0,0.0,0.0,0.0,0.0,0.0,0.0,0.0,0.0,0.0,0.0,0.0,0.0,0.0,0.0,0.0,0.0,0.0,0.0,0.0,0.0,0.0,0.0,0.0,0.0,0.0,0.0,0.0,0.0,0.0,0.0,0.0,0.0,0.0,0.0,0.0,0.0,0.0,0.0,0.0,0.0,0.0,0.0,0.0,0.0,0.0,0.0,0.0,0.0,0.0,0.0,0.0,0.0,0.0,0.0,0.0,0.0,0.0,0.0,0.0,0.0,0.0,0.0,0.0,0.0,0.0,0.0,0.0,0.0,0.0,0.0,0.0,0.0,0.0,0.0,0.0,0.0,0.0,0.0,0.0,0.0,0.0,0.0,0.0,0.0,0.0,0.0,0.0,0.0,0.0,0.0,0.0,0.0,0.0,0.0,0.0,0.0,0.0,0.0,0.0,0.0,0.0,0.0,0.0,0.0,0.0,0.0,0.0,0.0,0.0,0.0,0.0,0.0,0.0,0.0,0.0,0.0,0.0,0.0,0.0,0.0,0.0,0.0,0.0,0.0,0.0,0.0,0.0,0.0,0.0,0.0,0.0,0.0,0.0,0.0,0.0,0.0,0.0,0.0,0.0,0.0,0.0,0.0,0.0,0.0,0.0,0.0,0.0,0.0,0.0,0.0,0.0,0.0,0.0,0.0,0.0,0.0,0.0,0.0,0.0,0.0,0.0,0.0,0.0,0.0,0.0,0.0,0.0,0.0,0.0,0.0,0.0,0.0,0.0,0.0,0.0,0.0,0.0,0.0,0.0,0.0,0.0,0.0,0.0,0.0,0.0,0.0,0.0,0.0,0.0,0.0,0.0,0.0,0.0,0.0,0.0,0.0,0.0,0.0,0.0,0.0,0.0,0.0,0.0,0.0,0.0,0.0,0.0,0.0,0.0,0.0,0.0,0.0,0.0,0.0,0.0,0.0,0.0,0.0,0.0,0.0,0.0,0.0,0.0,0.0,0.0,0.0,0.0,0.0,0.0,0.0,0.0,0.0,0.0,0.0,0.0,0.0,0.0,0.0,0.0,0.0,0.0,0.0,0.0,0.0,0.0,0.0,0.0,0.0,0.0,0.0,0.0,0.0,0.0,0.0,0.0,0.0,0.0,0.0,0.0,0.0,0.0,0.0,0.0,0.0,0.0,0.0,0.0,0.0,0.0,0.0,0.0,0.0,0.0,0.0,0.0,0.0,0.0,0.0,0.0,0.0,0.0,0.0,0.0,0.0,0.0,0.0,0.0,0.0,0.0,0.0,0.0,0.0,0.0,0.0,0.0,0.0,0.0,0.0,0.0,0.0,0.0,0.0,0.0,0.0,0.0,0.0,0.0,0.0,0.0,0.0,0.0,0.0,0.0,0.0,0.0,0.0,0.0,0.0,0.0,0.0,0.0,0.0,0.0,0.0,0.0,0.0,0.0,0.0,0.0,0.0,0.0,0.0,0.0,0.0,0.0,0.0,0.0,0.0,0.0,0.0,0.0,0.0,0.0,0.0,0.0,0.0,0.0,0.0,0.0,0.0,0.0,0.0,0.0,0.0,0.0,0.0,0.0,0.0,0.0,0.0,0.0,0.0,0.0,0.0,0.0,0.0,0.0,0.0,0.0,0.0,0.0,0.0,0.0,0.0,0.0,0.0,0.0,0.0,0.0,0.7068,0.0,0.0,0.0,0.0,0.0,0.0,0.0,0.0,0.0,0.0,0.0,0.0,0.0,0.0,0.0,0.0,0.0,0.0,0.0,0.0,0.0,0.0,0.0,0.0,0.0,0.0,0.0,0.0,0.0,0.0,0.0,0.0,0.0,0.0,0.0,0.0,0.0,0.0,0.0,0.0,0.0,0.0,0.0,0.0,0.0,0.0,0.0,0.0,0.0,0.0,0.0,0.0,0.0,0.0,0.0,0.0,0.0,0.0,0.0,0.0,0.0,0.0,0.0,0.0,0.0,0.0,0.0,0.0,0.0,0.0,0.0,0.0,0.0,0.0,0.0,0.0,0.0,0.0,0.0,0.0,0.0,0.0,0.0,0.0,0.0,0.0,0.0,0.0,0.0,0.0,0.0,0.0,0.0,0.0,0.0,0.0,0.0,0.0,0.0,0.0,0.0,0.0,0.0,0.0,0.0,0.0,0.0,0.0,0.0,0.0,0.6966,0.6929,0.6962,0.6924,0.6812,0.0,0.0,0.0,0.0,0.0,0.0,0.0,0.0,0.0,0.0,0.0,0.0,0.0,0.0,0.0,0.0,0.0,0.0,0.0,0.0,0.0,0.0,0.0,0.0,0.0,0.0,0.0,0.0,0.0,0.0,0.0,0.0,0.0,0.0,0.0,0.0,0.0,0.0,0.0,0.0,0.0,0.0,0.0,0.0,0.0,0.0,0.0,0.0,0.0,0.0,0.0,0.0,0.0,0.0,0.0,0.0,0.0,0.0,0.0,0.0,0.0,0.0,0.0,0.0,0.0,0.0,0.0,0.0,0.0,0.0,0.0,0.0,0.0,0.0,0.0,0.0,0.0,0.0,0.0,0.0,0.0,0.0,0.0,0.0,0.0,0.0,0.0,0.0,0.0,0.0,0.0,0.0,0.0,0.0,0.0,0.0,0.0,0.0,0.0,0.0,0.0,0.0,0.0,0.0,0.0,0.0,0.0,0.0,0.0,0.0,0.0,0.0,0.6691,0.6591,0.6499,0.0,0.0,0.0,0.0,0.0,0.0,0.0,0.0,0.0,0.0,0.0,0.0,0.0,0.0,0.0,0.0,0.0,0.0,0.0,0.0,0.0,0.0,0.0,0.0,0.0,0.0,0.0,0.0,0.0,0.0,0.0,0.0,0.0,0.0,0.0,0.0,0.0,0.0,0.0,0.0,0.0,0.0,0.0,0.0,0.0,0.0,0.0,0.0,0.0,0.0,0.0,0.0,0.0,0.0,0.0,0.0,0.0,0.0,0.0,0.0,0.0,0.0,0.0,0.0,0.0,0.0,0.0,0.0,0.0,0.0,0.0,0.0,0.0,0.0,0.0,0.0,0.0,0.0,0.0,0.0,0.0,0.0,0.0,0.0,0.0,0.0,0.0,0.0,0.0,0.0,0.0,0.0,0.0,0.0,0.0,0.0,0.0,0.0,0.0,0.0,0.0,0.0,0.0,0.0,0.0,0.0,0.0,0.0,0.0,0.0,0.6782,0.6794,0.6782,0.0,0.626,0.0,0.0,0.0,0.0,0.0,0.0,0.0,0.0,0.0,0.0,0.0,0.0,0.0,0.0,0.0,0.0,0.0,0.0,0.0,0.0,0.0,0.0,0.0,0.0,0.0,0.0,0.0,0.0,0.0,0.0,0.0,0.0,0.0,0.0,0.0,0.0,0.0,0.0,0.0,0.0,0.0,0.0,0.0,0.0,0.0,0.0,0.0,0.0,0.0,0.0,0.0,0.0,0.0,0.0,0.0,0.0,0.0,0.0,0.0,0.0,0.0,0.0,0.0,0.0,0.0,0.0,0.0,0.0,0.0,0.0,0.0,0.0,0.0,0.0,0.0,0.0,0.0,0.0,0.0,0.0,0.0,0.0,0.0,0.0,0.0,0.0,0.0,0.0,0.0,0.0,0.0,0.0,0.0,0.0,0.0,0.0,0.0,0.0,0.0,0.0,0.0,0.0,0.0,0.0,0.0,0.0,0.0,0.0,0.0,0.0,0.6031,0.6097,0.5968,0.5855,0.0,0.0,0.0,0.0,0.0,0.0,0.0,0.0,0.0,0.0,0.0,0.0,0.0,0.0,0.0,0.0,0.0,0.0,0.0,0.0,0.0,0.0,0.0,0.0,0.0,0.0,0.0,0.0,0.0,0.0,0.0,0.0,0.0,0.0,0.0,0.0,0.0,0.0,0.0,0.0,0.0,0.0,0.0,0.0,0.0,0.0,0.0,0.0,0.0,0.0,0.0,0.0,0.0,0.0,0.0,0.0,0.0,0.0,0.0,0.0,0.0,0.0,0.0,0.0,0.0,0.0,0.0,0.0,0.0,0.0,0.0,0.0,0.0,0.0,0.0,0.0,0.0,0.0,0.0,0.0,0.0,0.0,0.0,0.0,0.0,0.0,0.0,0.0,0.0,0.0,0.0,0.0,0.0,0.0,0.0,0.0,0.0,0.0,0.0,0.0,0.0,0.0,0.0,0.0,0.0,0.0,0.0,0.0,0.0,0.0,0.548,0.5375,0.5331,0.5181,0.5057,0.506,0.0,0.0,0.0,0.0,0.0,0.0,0.0,0.0,0.0,0.0,0.0,0.0,0.0,0.0,0.0,0.0,0.0,0.0,0.0,0.0,0.0,0.0,0.0,0.0,0.0,0.0,0.0,0.0,0.0,0.0,0.0,0.0,0.0,0.0,0.0,0.0,0.0,0.0,0.0,0.0,0.0,0.0,0.0,0.0,0.0,0.0,0.0,0.0,0.0,0.0,0.0,0.0,0.0,0.0,0.0,0.0,0.0,0.0,0.0,0.0,0.0,0.0,0.0,0.0,0.0,0.0,0.0,0.0,0.0,0.0,0.0,0.0,0.0,0.0,0.0,0.0,0.0,0.0,0.0,0.0,0.0,0.0,0.0,0.0,0.0,0.0,0.0,0.0,0.0,0.0,0.0,0.0,0.0,0.0,0.0,0.0,0.0,0.0,0.0,0.0,0.0,0.0,0.0,0.0,0.0,0.0,0.0,0.0,0.0,0.5043,0.4997,0.4757,0.4666,0.4575,0.0,0.0,0.0,0.0,0.0,0.0,0.0,0.0,0.0,0.0,0.0,0.0,0.0,0.0,0.0,0.0,0.0,0.0,0.0,0.0,0.0,0.0,0.0,0.0,0.0,0.0,0.0,0.0,0.0,0.0,0.0,0.0,0.0,0.0,0.0,0.0,0.0,0.0,0.0,0.0,0.0,0.0,0.0,0.0,0.0,0.0,0.0,0.0,0.0,0.0,0.0,0.0,0.0,0.0,0.0,0.0,0.0,0.0,0.0,0.0,0.0,0.0,0.0,0.0,0.0,0.0,0.0,0.0,0.0,0.0,0.0,0.0,0.0,0.0,0.0,0.0,0.0,0.0,0.0,0.0,0.0,0.0,0.0,0.0,0.0,0.0,0.0,0.0,0.0,0.0,0.0,0.0,0.0,0.0,0.0,0.0,0.0,0.0,0.0,0.0,0.0,0.0,0.0,0.0,0.0,0.0,0.0,0.0,0.0,0.4508,0.4447,0.4288,0.3985,0.3923,0.375,0.0,0.0,0.0,0.0,0.0,0.0,0.0,0.0,0.0,0.0,0.0,0.0,0.0,0.0,0.0,0.0,0.0,0.0,0.0,0.0,0.0,0.0,0.0,0.0,0.0,0.0,0.0,0.0,0.0,0.0,0.0,0.0,0.0,0.0,0.0,0.0,0.0,0.0,0.0,0.0,0.0,0.0,0.0,0.0,0.0,0.0,0.0,0.0,0.0,0.0,0.0,0.0,0.0,0.0,0.0,0.0,0.0,0.0,0.0,0.0,0.0,0.0,0.0,0.0,0.0,0.0,0.0,0.0,0.0,0.0,0.0,0.0,0.0,0.0,0.0,0.0,0.0,0.0,0.0,0.0,0.0,0.0,0.0,0.0,0.0,0.0,0.0,0.0,0.0,0.0,0.0,0.0,0.0,0.0,0.0,0.0,0.0,0.0,0.0,0.0,0.0,0.0,0.0,0.0,0.0,0.0,0.0,0.0,0.0,0.3841,0.0,0.3409,0.0,0.3161,0.2994,0.0,0.0,0.0,0.0,0.0,0.0,0.0,0.0,0.0,0.0,0.0,0.0,0.0,0.0,0.0,0.0,0.0,0.0,0.0,0.0,0.0,0.0,0.0,0.0,0.0,0.0,0.0,0.0,0.0,0.0,0.0,0.0,0.0,0.0,0.0,0.0,0.0,0.0,0.0,0.0,0.0,0.0,0.0,0.0,0.0,0.0,0.0,0.0,0.0,0.0,0.0,0.0,0.0,0.0,0.0,0.0,0.0,0.0,0.0,0.0,0.0,0.0,0.0,0.0,0.0,0.0,0.0,0.0,0.0,0.0,0.0,0.0,0.0,0.0,0.0,0.0,0.0,0.0,0.0,0.0,0.0,0.0,0.0,0.0,0.0,0.0,0.0,0.0,0.0,0.0,0.0,0.0,0.0,0.0,0.0,0.0,0.0,0.0,0.0,0.0,0.0,0.0,0.0,0.0,0.0,0.0,0.0,0.0,0.3189,0.2895,0.2644,0.2542,0.2489,0.2442,0.2229,0.0,0.0,0.0,0.0,0.0,0.0,0.0,0.0,0.0,0.0,0.0,0.0,0.0,0.0,0.0,0.0,0.0,0.0,0.0,0.0,0.0,0.0,0.0,0.0,0.0,0.0,0.0,0.0,0.0,0.0,0.0,0.0,0.0,0.0,0.0,0.0,0.0,0.0,0.0,0.0,0.0,0.0,0.0,0.0,0.0,0.0,0.0,0.0,0.0,0.0,0.0,0.0,0.0,0.0,0.0,0.0,0.0,0.0,0.0,0.0,0.0,0.0,0.0,0.0,0.0,0.0,0.0,0.0,0.0,0.0,0.0,0.0,0.0,0.0,0.0,0.0,0.0,0.0,0.0,0.0,0.0,0.0,0.0,0.0,0.0,0.0,0.0,0.0,0.0,0.0,0.0,0.0,0.0,0.0,0.0,0.0,0.0,0.0,0.0,0.0,0.0,0.0,0.0,0.0,0.0,0.0,0.0,0.0,0.0,0.2281,0.2257,0.2007,0.1636,0.1591,0.1447,0.0,0.0,0.0,0.0,0.0,0.0,0.0,0.0,0.0,0.0,0.0,0.0,0.0,0.0,0.0,0.0,0.0,0.0,0.0,0.0,0.0,0.0,0.0,0.0,0.0,0.0,0.0,0.0,0.0,0.0,0.0,0.0,0.0,0.0,0.0,0.0,0.0,0.0,0.0,0.0,0.0,0.0,0.0,0.0,0.0,0.0,0.0,0.0,0.0,0.0,0.0,0.0,0.0,0.0,0.0,0.0,0.0,0.0,0.0,0.0,0.0,0.0,0.0,0.0,0.0,0.0,0.0,0.0,0.0,0.0,0.0,0.0,0.0,0.0,0.0,0.0,0.0,0.0,0.0,0.0,0.0,0.0,0.0,0.0,0.0,0.0,0.0,0.0,0.0,0.0,0.0,0.0,0.0,0.0,0.0,0.0,0.0,0.0,0.0,0.0,0.0,0.0,0.0,0.0,0.0,0.0,0.0,0.0,0.0,0.1389,0.1566,0.1466,0.1086,0.111,0.0923,0.0645,0.0,0.0,0.0,0.0,0.0,0.0,0.0,0.0,0.0,0.0,0.0,0.0,0.0,0.0,0.0,0.0,0.0,0.0,0.0,0.0,0.0,0.0,0.0,0.0,0.0,0.0,0.0,0.0,0.0,0.0,0.0,0.0,0.0,0.0,0.0,0.0,0.0,0.0,0.0,0.0,0.0,0.0,0.0,0.0,0.0,0.0,0.0,0.0,0.0,0.0,0.0,0.0,0.0,0.0,0.0,0.0,0.0,0.0,0.0,0.0,0.0,0.0,0.0,0.0,0.0,0.0,0.0,0.0,0.0,0.0,0.0,0.0,0.0,0.0,0.0,0.0,0.0,0.0,0.0,0.0,0.0,0.0,0.0,0.0,0.0,0.0,0.0,0.0,0.0,0.0,0.0,0.0,0.0,0.0,0.0,0.0,0.0,0.0,0.0,0.0,0.0,0.0,0.0,0.0,0.0,0.0,0.0,0.0,0.0393,0.0675,0.0844,0.0843,0.0829,0.0695,0.0,0.0,0.0,0.0,0.0,0.0,0.0,0.0,0.0,0.0,0.0,0.0,0.0,0.0,0.0,0.0,0.0,0.0,0.0,0.0,0.0,0.0,0.0,0.0,0.0,0.0,0.0,0.0,0.0,0.0,0.0,0.0,0.0,0.0,0.0,0.0,0.0,0.0,0.0,0.0,0.0,0.0,0.0,0.0,0.0,0.0,0.0,0.0,0.0,0.0,0.0,0.0,0.0,0.0,0.0,0.0,0.0,0.0,0.0,0.0,0.0,0.0,0.0,0.0,0.0,0.0,0.0,0.0,0.0,0.0,0.0,0.0,0.0,0.0,0.0,0.0,0.0,0.0,0.0,0.0,0.0,0.0,0.0,0.0,0.0,0.0,0.0,0.0,0.0,0.0,0.0,0.0,0.0,0.0,0.0,0.0,0.0,0.0,0.0,0.0,0.0,0.0,0.0,0.0,0.0,0.0,0.0,0.0,0.0,0.0116,0.0177,0.0235,0.0233,0.0226,0.0219,0.0,0.0,0.0,0.0,0.0,0.0,0.0,0.0,0.0,0.0,0.0,0.0,0.0,0.0,0.0,0.0,0.0,0.0,0.0,0.0,0.0,0.0,0.0,0.0,0.0,0.0,0.0,0.0,0.0,0.0,0.0,0.0,0.0,0.0,0.0,0.0,0.0,0.0,0.0,0.0,0.0,0.0,0.0,0.0,0.0,0.0,0.0,0.0,0.0,0.0,0.0,0.0,0.0,0.0,0.0,0.0,0.0,0.0,0.0,0.0,0.0,0.0,0.0,0.0,0.0,0.0,0.0,0.0,0.0,0.0,0.0,0.0,0.0,0.0,0.0,0.0,0.0,0.0,0.0,0.0,0.0,0.0,0.0,0.0,0.0,0.0,0.0,0.0,0.0,0.0,0.0,0.0,0.0,0.0,0.0,0.0,0.0,0.0,0.0,0.0,0.0,0.0,0.0,0.0,0.0,0.0,0.0,0.0,0.0,0.0,0.0,0.0,0.0,0.0,0.0,0.0,0.0,0.0,0.0,0.0,0.0,0.0,0.0,0.0,0.0,0.0,0.0,0.0,0.0,0.0,0.0,0.0,0.0,0.0,0.0,0.0,0.0,0.0,0.0,0.0,0.0,0.0,0.0,0.0,0.0,0.0,0.0,0.0,0.0,0.0,0.0,0.0,0.0,0.0,0.0,0.0,0.0,0.0,0.0,0.0,0.0,0.0,0.0,0.0,0.0,0.0,0.0,0.0,0.0,0.0,0.0,0.0,0.0,0.0,0.0,0.0,0.0,0.0,0.0,0.0,0.0,0.0,0.0,0.0,0.0,0.0,0.0,0.0,0.0,0.0,0.0,0.0,0.0,0.0,0.0,0.0,0.0,0.0,0.0,0.0,0.0,0.0,0.0,0.0,0.0,0.0,0.0,0.0,0.0,0.0,0.0,0.0,0.0,0.0,0.0,0.0,0.0,0.0,0.0,0.0,0.0,0.0,0.0,0.0,0.0,0.0,0.0,0.0,0.0,0.0,0.0,0.0,0.0,0.0,0.0,0.0,0.0,0.0,0.0,0.0,0.0,0.0,0.0,0.0,0.0,0.0,0.0,0.0,0.0,0.0,0.0,0.0,0.0,0.0,0.0,0.0,0.0,0.0,0.0,0.0,0.0,0.0,0.0,0.0,0.0,0.0,0.0,0.0,0.0,0.0,0.0,0.0,0.0,0.0,0.0,0.0,0.0,0.0,0.0,0.0,0.0,0.0,0.0,0.0,0.0,0.0,0.0,0.0,0.0,0.0,0.0,0.0,0.0,0.0,0.0,0.0,0.0,0.0,0.0,0.0,0.0,0.0,0.0,0.0,0.0,0.0,0.0,0.0,0.0,0.0,0.0,0.0,0.0,0.0,0.0,0.0,0.0,0.0,0.0,0.0,0.0,0.0,0.0,0.0,0.0,0.0,0.0,0.0,0.0,0.0,0.0,0.0,0.0,0.0,0.0,0.0,0.0,0.0,0.0,0.0,0.0,0.0,0.0,0.0,0.0,0.0,0.0,0.0,0.0,0.0,0.0,0.0,0.0,0.0,0.0,0.0,0.0,0.0,0.0,0.0,0.0,0.0,0.0,0.0,0.0,0.0,0.0,0.0,0.0,0.0,0.0,0.0,0.0,0.0,0.0,0.0,0.0,0.0,0.0,0.0,0.0,0.0,0.0,0.0,0.0,0.0,0.0,0.0,0.0,0.0,0.0,0.0,0.0,0.4443,0.0,0.0,0.0,0.0,0.0,0.0,0.0,0.0,0.0,0.0,0.0,0.0,0.0,0.0,0.0,0.0,0.0,0.0,0.0,0.0,0.0,0.0,0.0,0.0,0.0,0.0,0.0,0.0,0.0,0.0,0.0,0.0,0.0,0.0,0.0,0.0,0.0,0.0,0.0,0.0,0.0,0.0,0.0,0.0,0.0,0.0,0.0,0.0,0.0,0.0,0.0,0.0,0.0,0.0,0.0,0.0,0.0,0.0,0.0,0.0,0.0,0.0,0.0,0.0,0.0,0.0,0.0,0.0,0.0,0.0,0.0,0.0,0.0,0.0,0.0,0.0,0.0,0.0,0.0,0.0,0.0,0.0,0.0,0.0,0.0,0.0,0.0,0.0,0.0,0.0,0.0,0.0,0.0,0.0,0.0,0.0,0.0,0.0,0.0,0.0,0.0,0.0,0.0,0.0,0.0,0.0,0.0,0.0,0.0,0.0,0.0,0.0,0.0,0.0,0.0,0.0,0.0,0.0,0.0,0.0,0.0,0.0,0.0,0.0,0.0,0.0,0.0,0.0,0.0,0.0,0.0,0.0,0.0,0.0,0.0,0.0,0.0,0.0,0.0,0.0,0.0,0.0,0.0,0.0,0.0,0.0,0.0,0.0,0.0,0.0,0.0,0.0,0.0,0.0,0.0,0.0,0.0,0.0,0.0,0.0,0.0,0.0,0.0,0.0,0.0,0.0,0.0,0.0,0.0,0.0,0.0,0.0,0.0,0.0,0.0,0.0,0.0,0.0,0.0,0.0,0.0,0.0,0.0,0.0,0.0,0.0,0.0,0.0,0.0,0.0,0.0,0.0,0.0,0.0,0.0,0.0,0.0,0.0,0.0,0.0,0.0,0.0,0.0,0.0,0.0,0.0,0.0,0.0,0.0,0.0,0.0,0.0,0.0,0.0,0.0,0.0,0.0,0.0,0.0,0.0,0.2671,0.2683,0.0,0.0,0.0,0.0,0.0,0.0,0.0,0.0,0.2619,0.0,0.0,0.0,0.0,0.0,0.0,0.0,0.0,0.0,0.0,0.0,0.0,0.0,0.0,0.0,0.0,0.0,0.0,0.0,0.0,0.0,0.0,0.0,0.0,0.0,0.0,0.0,0.0,0.0,0.0,0.0,0.0,0.0,0.0,0.0,0.0,0.0,0.0,0.0,0.0,0.0,0.0,0.0,0.0,0.0,0.0,0.0,0.0,0.0,0.0,0.0,0.0,0.0,0.0,0.0,0.0,0.0,0.0,0.0,0.0,0.0,0.0,0.0,0.0,0.0,0.0,0.0,0.0,0.0,0.0,0.0,0.0,0.0,0.0,0.0,0.0,0.0,0.0,0.0,0.0,0.0,0.0,0.0,0.0,0.0,0.0,0.0,0.0,0.0,0.0,0.0,0.0,0.0,0.0,0.0,0.0,0.0,0.0,0.0,0.0,0.0,0.0,0.0,0.0,0.0,0.1594,0.1897,0.0,0.0,0.0,0.0,0.0,0.0,0.0,0.0,0.1584,0.0,0.0,0.0,0.0,0.0,0.0,0.0,0.0,0.0,0.0,0.0,0.0,0.0,0.0,0.0,0.0,0.0,0.0,0.0,0.0,0.0,0.0,0.0,0.0,0.0,0.0,0.0,0.0,0.0,0.0,0.0,0.0,0.0,0.0,0.0,0.0,0.0,0.0,0.0,0.0,0.0,0.0,0.0,0.0,0.0,0.0,0.0,0.0,0.0,0.0,0.0,0.0,0.0,0.0,0.0,0.0,0.0,0.0,0.0,0.0,0.0,0.0,0.0,0.0,0.0,0.0,0.0,0.0,0.0,0.0,0.0,0.0,0.0,0.0,0.0,0.0,0.0,0.0,0.0,0.0,0.0,0.0,0.0,0.0,0.0,0.0,0.0,0.0,0.0,0.0,0.0,0.0,0.0,0.0,0.0,0.0,0.0,0.0,0.0,0.0,0.0,0.0,0.0,0.0,0.0771,0.1032,0.0999,0.0,0.0,0.0,0.0,0.0,0.0,0.0872,0.0923,0.0,0.0,0.0,0.0,0.0,0.0,0.0,0.0,0.0,0.0,0.0,0.0,0.0,0.0,0.0,0.0,0.0,0.0,0.0,0.0,0.0,0.0,0.0,0.0,0.0,0.0,0.0,0.0,0.0,0.0,0.0,0.0,0.0,0.0,0.0,0.0,0.0,0.0,0.0,0.0,0.0,0.0,0.0,0.0,0.0,0.0,0.0,0.0,0.0,0.0,0.0,0.0,0.0,0.0,0.0,0.0,0.0,0.0,0.0,0.0,0.0,0.0,0.0,0.0,0.0,0.0,0.0,0.0,0.0,0.0,0.0,0.0,0.0,0.0,0.0,0.0,0.0,0.0,0.0,0.0,0.0,0.0,0.0,0.0,0.0,0.0,0.0,0.0,0.0,0.0,0.0,0.0,0.0,0.0,0.0,0.0,0.0,0.0,0.0,0.0,0.0,0.0,0.0,0.0,0.0,0.0235,0.0243,0.0425,0.0,0.0,0.0,0.0,0.0178,0.0473,0.0,0.0,0.0,0.0,0.0,0.0,0.0,0.0,0.0,0.0,0.0,0.0,0.0,0.0,0.0,0.0,0.0,0.0,0.0,0.0,0.0,0.0,0.0,0.0,0.0,0.0,0.0,0.0,0.0,0.0,0.0,0.0,0.0,0.0,0.0,0.0,0.0,0.0,0.0,0.0,0.0,0.0,0.0,0.0,0.0,0.0,0.0,0.0,0.0,0.0,0.0,0.0,0.0,0.0,0.0,0.0,0.0,0.0,0.0,0.0,0.0,0.0,0.0,0.0,0.0,0.0,0.0,0.0,0.0,0.0,0.0,0.0,0.0,0.0,0.0,0.0,0.0,0.0,0.0,0.0,0.0,0.0,0.0,0.0,0.0,0.0,0.0,0.0,0.0,0.0,0.0,0.0,0.0,0.0,0.0,0.0,0.0,0.0,0.0,0.0,0.0,0.0,0.0,0.0,0.0,0.0,-0.0303,-0.0375,-0.0621,-0.08,0.0,0.0,-0.0782,-0.0842,-0.0301,0.0,0.0,0.0,0.0,0.0,0.0,0.0,0.0,0.0,0.0,0.0,0.0,0.0,0.0,0.0,0.0,0.0,0.0,0.0,0.0,0.0,0.0,0.0,0.0,0.0,0.0,0.0,0.0,0.0,0.0,0.0,0.0,0.0,0.0,0.0,0.0,0.0,0.0,0.0,0.0,0.0,0.0,0.0,0.0,0.0,0.0,0.0,0.0,0.0,0.0,0.0,0.0,0.0,0.0,0.0,0.0,0.0,0.0,0.0,0.0,0.0,0.0,0.0,0.0,0.0,0.0,0.0,0.0,0.0,0.0,0.0,0.0,0.0,0.0,0.0,0.0,0.0,0.0,0.0,0.0,0.0,0.0,0.0,0.0,0.0,0.0,0.0,0.0,0.0,0.0,0.0,0.0,0.0,0.0,0.0,0.0,0.0,0.0,0.0,0.0,0.0,0.0,0.0,0.0,0.0,0.0,0.0,-0.258,-0.2733,0.0,0.0,0.0,-0.2807,-0.2784,0.0,0.0,0.0,0.0,0.0,0.0,0.0,0.0,0.0,0.0,0.0,0.0,0.0,0.0,0.0,0.0,0.0,0.0,0.0,0.0,0.0,0.0,0.0,0.0,0.0,0.0,0.0,0.0,0.0,0.0,0.0,0.0,0.0,0.0,0.0,0.0,0.0,0.0,0.0,0.0,0.0,0.0,0.0,0.0,0.0,0.0,0.0,0.0,0.0,0.0,0.0,0.0,0.0,0.0,0.0,0.0,0.0,0.0,0.0,0.0,0.0,0.0,0.0,0.0,0.0,0.0,0.0,0.0,0.0,0.0,0.0,0.0,0.0,0.0,0.0,0.0,0.0,0.0,0.0,0.0,0.0,0.0,0.0,0.0,0.0,0.0,0.0,0.0,0.0,0.0,0.0,0.0,0.0,0.0,0.0,0.0,0.0,0.0,0.0,0.0,0.0,0.0,0.0,0.0,0.0,0.0,0.0,-0.4033,-0.4363,-0.4654,-0.4774,0.0,0.0,-0.4731,-0.4603,-0.4796,-0.485,0.0,0.0,0.0,0.0,0.0,0.0,0.0,0.0,0.0,0.0,0.0,0.0,0.0,0.0,0.0,0.0,0.0,0.0,0.0,0.0,0.0,0.0,0.0,0.0,0.0,0.0,0.0,0.0,0.0,0.0,0.0,0.0,0.0,0.0,0.0,0.0,0.0,0.0,0.0,0.0,0.0,0.0,0.0,0.0,0.0,0.0,0.0,0.0,0.0,0.0,0.0,0.0,0.0,0.0,0.0,0.0,0.0,0.0,0.0,0.0,0.0,0.0,0.0,0.0,0.0,0.0,0.0,0.0,0.0,0.0,0.0,0.0,0.0,0.0,0.0,0.0,0.0,0.0,0.0,0.0,0.0,0.0,0.0,0.0,0.0,0.0,0.0,0.0,0.0,0.0,0.0,0.0,0.0,0.0,0.0,0.0,0.0,0.0,0.0,0.0,0.0,0.0,0.0,0.0,0.0,-0.4682,-0.4999,-0.5654,-0.6163,0.0,0.0,-0.601,-0.5984,-0.5397,-0.4967,-0.519,0.0,0.0,0.0,0.0,0.0,0.0,0.0,0.0,0.0,0.0,0.0,0.0,0.0,0.0,0.0,0.0,0.0,0.0,0.0,0.0,0.0,0.0,0.0,0.0,0.0,0.0,0.0,0.0,0.0,0.0,0.0,0.0,0.0,0.0,0.0,0.0,0.0,0.0,0.0,0.0,0.0,0.0,0.0,0.0,0.0,0.0,0.0,0.0,0.0,0.0,0.0,0.0,0.0,0.0,0.0,0.0,0.0,0.0,0.0,0.0,0.0,0.0,0.0,0.0,0.0,0.0,0.0,0.0,0.0,0.0,0.0,0.0,0.0,0.0,0.0,0.0,0.0,0.0,0.0,0.0,0.0,0.0,0.0,0.0,0.0,0.0,0.0,0.0,0.0,0.0,0.0,-0.0251,-0.0465,-0.1033,0.0,0.0,0.0,0.0,0.0,0.0,0.0,0.0,0.0,0.0,-0.711,-0.7734,-0.8167,0.0,0.0,-0.8333,-0.8242,-0.8055,-0.8021,-0.7916,-0.7517,-0.7373,0.0,0.0,0.0,0.0,0.0,0.0,0.0,0.0,0.0,0.0,0.0,0.0,0.0,0.0,0.0,0.0,0.0,0.0,0.0,0.0,0.0,0.0,0.0,0.0,0.0,0.0,0.0,0.0,0.0,0.0,0.0,0.0,0.0,0.0,0.0,0.0,0.0,0.0,0.0,0.0,0.0,0.0,0.0,0.0,0.0,0.0,0.0,0.0,0.0,0.0,0.0,0.0,0.0,0.0,0.0,0.0,0.0,0.0,0.0,0.0,0.0,0.0,0.0,0.0,0.0,0.0,0.0,0.0,0.0,0.0,0.0,0.0,0.0,0.0,0.0,0.0,0.0,0.0,0.0,0.0,0.0,0.0,0.0,0.0,0.0,0.0,0.0,0.0,0.0,0.0,-0.0678,-0.1017,-0.1999,0.0,0.0,0.0,0.0,0.0,0.0,0.0,0.0,0.0,0.0,-0.8933,-0.9577,-0.983,-0.9984,-0.9981,-0.9946,-0.9836,-0.9541,-0.9767,-0.9751,-0.9056,0.0,0.0,0.0,0.0,0.0,0.0,0.0,0.0,0.0,0.0,0.0,0.0,0.0,0.0,0.0,0.0,0.0,0.0,0.0,0.0,0.0,0.0,0.0,0.0,0.0,0.0,0.0,0.0,0.0,0.0,0.0,0.0,0.0,0.0,0.0,0.0,0.0,0.0,0.0,0.0,0.0,0.0,0.0,0.0,0.0,0.0,0.0,0.0,0.0,0.0,0.0,0.0,0.0,0.0,0.0,0.0,0.0,0.0,0.0,0.0,0.0,0.0,0.0,0.0,0.0,0.0,0.0,0.0,0.0,0.0,0.0,0.0,0.0,0.0,0.0,0.0,0.0,0.0,0.0,0.0,0.0,0.0,0.0,0.0,0.0,0.0,0.0,0.0,0.0,0.0,-0.1272,-0.1277,-0.1728,0.0,0.0,0.0,0.0,0.0,0.0,0.0,0.0,0.0,0.0,-0.8881,-0.9723,-0.9931,-1.0363,-1.0654,-1.0651,-1.0533,-1.0453,-1.0307,-1.0154,-0.9875,0.0,0.0,0.0,0.0,0.0,0.0,0.0,0.0,0.0,0.0,0.0,0.0,0.0,0.0,0.0,0.0,0.0,0.0,0.0,0.0,0.0,0.0,0.0,0.0,0.0,0.0,0.0,0.0,0.0,0.0,0.0,0.0,0.0,0.0,0.0,0.0,0.0,0.0,0.0,0.0,0.0,0.0,0.0,0.0,0.0,0.0,0.0,0.0,0.0,0.0,0.0,0.0,0.0,0.0,0.0,0.0,0.0,0.0,0.0,0.0,0.0,0.0,0.0,0.0,0.0,0.0,0.0,0.0,0.0,0.0,0.0,0.0,0.0,0.0,0.0,0.0,0.0,0.0,0.0,0.0,0.0,0.0,0.0,0.0,0.0,0.0,0.0,0.0,0.0,0.0,-0.2592,0.0,0.0,0.0,0.0,0.0,0.0,0.0,0.0,0.0,0.0,0.0,-0.8436,-0.8961,-0.9514,-1.0061,-1.0438,-1.0624,-1.0721,0.0,0.0,0.0,0.0,0.0,0.0,0.0,0.0,0.0,0.0,0.0,0.0,0.0,0.0,-1.5547,-1.4559,-1.4645,-1.4887,-1.5007,0.0,0.0,0.0,0.0,0.0,0.0,0.0,0.0,0.0,0.0,0.0,0.0,0.0,0.0,0.0,0.0,0.0,0.0,0.0,0.0,0.0,0.0,0.0,0.0,0.0,0.0,0.0,0.0,0.0,0.0,0.0,0.0,0.0,0.0,0.0,0.0,0.0,0.0,0.0,0.0,0.0,0.0,0.0,0.0,0.0,0.0,0.0,0.0,0.0,0.0,0.0,0.0,0.0,-0.0217,0.0,0.0,0.0,0.0,0.0,0.0,0.0,0.0,0.0,0.0,0.0,0.0,0.0,0.0,0.0,0.0,0.0,0.0,0.0,0.0,0.0,0.0,0.0,-0.4092,0.0,0.0,0.0,0.0,0.0,0.0,0.0,0.0,0.0,-0.7791,-0.8666,-0.9524,-0.9895,-1.0177,-1.0406,-1.0648,0.0,0.0,0.0,0.0,0.0,0.0,0.0,-1.0364,-1.0402,-1.1169,-1.2528,-1.4582,-1.6608,-1.8007,-1.8116,0.0,0.0,-1.6914,-1.6898,-1.7078,-1.7083,-1.7009,-1.6956,-1.6962,-1.695,-1.6956,0.0,0.0,0.0,0.0,0.0,0.0,0.0,0.0,0.0,0.0,0.0,0.0,0.0,0.0,0.0,0.0,0.0,0.0,0.0,0.0,0.0,0.0,0.0,0.0,0.0,0.0,0.0,0.0,0.0,0.0,0.0,0.0,0.0,0.0,0.0,0.0,0.0,0.0,0.0,0.0,0.0,0.0,0.0,0.0,0.0,0.0,0.0,0.0,-0.0332,-0.0588,-0.1706,0.0,0.0,0.0,0.0,0.0,0.0,0.0,0.0,0.0,0.0,0.0,0.0,0.0,0.0,0.0,0.0,0.0,0.0,0.0,0.0,-0.5684,0.0,0.0,0.0,0.0,0.0,0.0,0.0,0.0,0.0,0.0,-0.8795,-0.9771,-1.047,-1.0467,0.0,0.0,0.0,0.0,-1.0721,-1.0721,-1.0721,-1.067,-1.0524,-1.0493,-1.0507,-1.0434,0.0,0.0,-1.7049,-1.8417,-1.922,-1.9575,-2.0117,-1.9996,-1.8309,-1.8324,-1.8508,-1.8502,-1.8502,-1.849,-1.8484,-1.8502,-1.8502,0.0,0.0,0.0,0.0,0.0,0.0,0.0,0.0,0.0,0.0,0.0,0.0,0.0,0.0,0.0,0.0,0.0,0.0,0.0,0.0,0.0,0.0,0.0,0.0,0.0,0.0,0.0,0.0,0.0,0.0,0.0,0.0,0.0,0.0,0.0,0.0,0.0,0.0,0.0,0.0,0.0,0.0,-0.0582,-0.1745,-0.1757,-0.2269,-0.33,-0.3354,-0.3435,-0.3639,-0.4136,0.0,0.0,0.0,0.0,0.0,0.0,0.0,0.0,0.0,0.0,0.0,0.0,0.0,0.0,0.0,0.0,0.0,0.0,0.0,-0.7206,-0.735,-0.7264,0.0,0.0,0.0,0.0,0.0,0.0,0.0,0.0,0.0,-1.0079,-1.059,-1.1029,0.0,0.0,-1.0826,-1.0741,-1.0721,-1.0721,-1.0721,-1.0721,0.0,-1.0663,-1.0565,-1.0987,-1.2407,-1.5164,-1.7632,-1.9053,-2.0178,-2.087,-2.0979,-2.1167,-2.1011,-2.0402,-2.0229,-2.0279,-2.0292,-2.0354,-2.0292,-2.0354,-2.0348,-2.0348,0.0,0.0,0.0,0.0,0.0,0.0,0.0,0.0,0.0,0.0,0.0,0.0,0.0,0.0,0.0,0.0,0.0,0.0,0.0,0.0,0.0,0.0,0.0,0.0,0.0,0.0,0.0,0.0,0.0,0.0,0.0,0.0,0.0,0.0,0.0,0.0,0.0,0.0,0.0,0.0,0.0,-0.0579,-0.1659,-0.3237,-0.3284,-0.37,-0.4636,-0.4634,-0.4669,-0.4792,-0.5271,-0.5578,0.0,0.0,0.0,0.0,0.0,0.0,0.0,0.0,0.0,0.0,0.0,-0.7101,-0.7104,0.0,0.0,0.0,-0.7798,-0.8152,-0.8425,-0.8648,0.0,0.0,0.0,0.0,0.0,0.0,0.0,-0.9625,-1.0297,-1.0835,-1.0905,-1.1164,-1.1321,-1.126,-1.1077,-1.0847,-1.0822,0.0,-1.0721,-1.0721,-1.0721,-1.0721,-1.0717,-1.0643,-1.1421,-1.4116,-1.6227,-1.8371,-2.0188,-2.1077,-2.151,-2.1487,-2.1534,-2.1456,-2.1169,-2.1102,-2.1102,-2.1102,-2.1102,-2.1102,-2.1102,-2.1102,-2.1102,0.0,0.0,0.0,0.0,0.0,0.0,0.0,0.0,0.0,0.0,0.0,0.0,0.0,0.0,0.0,0.0,0.0,0.0,0.0,0.0,0.0,0.0,0.0,0.0,0.0,0.0,0.0,0.0,0.0,0.0,0.0,-0.0059,-0.0118,-0.0118,-0.0059,0.0,-0.0116,0.0,0.0,0.0,-0.0352,-0.1675,-0.3127,-0.4651,-0.4713,-0.4804,-0.5032,-0.4918,-0.4916,-0.5023,-0.5684,-0.606,-0.6143,0.0,0.0,0.0,0.0,0.0,0.0,0.0,0.0,0.0,0.0,0.0,0.0,0.0,0.0,0.0,-0.8749,0.0,-0.9466,-0.9602,0.0,0.0,0.0,-0.972,-0.9909,-1.0014,-1.02,-1.0596,0.0,0.0,-1.1322,-1.1525,-1.1569,-1.1426,-1.1162,-1.0914,-1.09,-1.0772,-1.0738,-1.0748,-1.0727,-1.0721,-1.0721,-1.0906,-1.2138,-1.5185,-1.5978,-1.7462,-2.0354,-2.1323,-2.1383,-2.1176,-2.1336,-2.1501,-2.1156,-2.1102,-2.1102,-2.1102,-2.1102,-2.1102,-2.1102,-2.1102,-2.1102,0.0,0.0,0.0,0.0,0.0,0.0,0.0,0.0,0.0,0.0,0.0,0.0,0.0,0.0,0.0,0.0,0.0,0.0,0.0,0.0,0.0,0.0,0.0,0.0,0.0,0.0,0.0,0.0,0.0,0.0,-0.0245,-0.0733,-0.1037,-0.0904,-0.0413,-0.058,-0.1158,-0.2056,-0.2285,-0.2706,-0.3395,-0.3761,-0.4738,-0.6311,-0.6334,-0.6915,-0.8064,-0.8118,-0.8019,-0.7923,-0.806,-0.8069,-0.7892,-0.8205,0.0,0.0,0.0,0.0,0.0,0.0,0.0,0.0,0.0,-0.8641,-0.8692,0.0,-0.9313,0.0,-0.9446,-0.9734,-1.0195,-1.026,0.0,0.0,-1.0414,-1.0573,-1.0472,-1.0796,-1.1044,-1.103,-1.1258,-1.145,-1.1406,-1.1525,-1.1609,-1.1565,-1.1402,-1.1243,-1.1128,-1.0989,-1.0826,-1.0809,-1.0725,-1.0721,-1.0784,-1.1828,-1.3386,-1.5529,-1.6953,-1.864,-2.0716,-2.1162,-2.1189,-2.1122,-2.1156,-2.1176,-2.1116,-2.1102,-2.1102,-2.1102,-2.1102,-2.1102,-2.1102,-2.1102,-2.1102,0.0,0.0,0.0,0.0,0.0,0.0,0.0,0.0,0.0,0.0,0.0,0.0,0.0,0.0,0.0,0.0,0.0,0.0,0.0,0.0,0.0,0.0,0.0,0.0,0.0,0.0,0.0,-0.0373,-0.111,-0.111,-0.1665,-0.271,-0.2893,-0.293,-0.2702,-0.2247,-0.2356,-0.3027,-0.3393,-0.4223,-0.5421,-0.5464,-0.6221,-0.7694,-0.7806,-0.8232,-0.9147,-0.9149,-0.9052,-0.9032,-0.8974,-0.8793,-0.862,-0.8828,-0.8824,0.0,0.0,0.0,0.0,0.0,0.0,0.0,0.0,0.0,0.0,0.0,-0.9995,-0.9978,-1.0127,-1.0378,-1.0755,-1.0789,-1.0843,-1.0928,-1.1044,-1.1133,-1.1071,-1.1298,-1.146,-1.1375,-1.1518,-1.1589,-1.1508,-1.1569,-1.1616,-1.1616,-1.1545,-1.1413,-1.1196,-1.104,-1.0857,-1.0786,-1.0775,-1.0721,-1.0721,-1.2153,-1.391,-1.5589,-1.7339,-1.9088,-2.0779,-2.1102,-2.1102,-2.1102,-2.1102,-2.1102,-2.1102,-2.1102,-2.1102,-2.1102,-2.1102,-2.1102,-2.1102,-2.1102,-2.1102,0.0,0.0,0.0,0.0,0.0,0.0,0.0,0.0,0.0,0.0,0.0,0.0,0.0,0.0,0.0,0.0,0.0,0.0,0.0,0.0,0.0,0.0,0.0,0.0,-0.0123,-0.0309,-0.0309,-0.1171,-0.277,-0.2831,-0.3568,-0.4977,-0.51,-0.5286,-0.5592,-0.4554,-0.4033,-0.4018,-0.4548,-0.5587,-0.7025,-0.7025,-0.7642,-0.8886,-0.8994,-0.9052,-0.9231,-0.9062,-0.9052,-0.9224,-0.9059,-0.8933,-0.8811,-0.9042,-0.9137,0.0,-0.9269,0.0,0.0,0.0,0.0,0.0,0.0,0.0,0.0,-1.0304,-1.0612,-1.0761,-1.0792,-1.0917,-1.1196,-1.1223,-1.1328,-1.1579,-1.1497,-1.147,-1.1603,-1.1616,-1.1616,-1.1616,-1.1616,-1.1616,-1.1613,-1.1616,-1.1616,-1.1616,-1.1613,-1.1504,-1.1246,-1.1077,-1.0934,-1.0772,-1.0731,-1.0721,-1.085,-1.2153,-1.391,-1.5654,-1.7339,-1.9088,-2.0849,-2.1102,-2.1102,-2.1102,-2.1102,-2.1102,-2.1102,-2.1102,-2.1102,-2.1102,-2.1102,-2.1102,-2.1102,-2.1102,-2.1102,0.0,0.0,0.0,0.0,0.0,0.0,0.0,0.0,0.0,0.0,0.0,0.0,0.0,0.0,0.0,0.0,0.0,0.0,0.0,0.0,0.0,0.0,0.0,0.0,-0.074,-0.1971,-0.2032,-0.2831,-0.4426,-0.4426,-0.4855,-0.5712,-0.5961,-0.6392,-0.7004,0.0,0.0,0.0,-0.7962,-0.8566,-0.889,-0.889,-0.9005,-0.9296,-0.93,0.0,-0.9337,-0.931,-0.931,-0.9334,-0.931,0.0,0.0,0.0,0.0,0.0,0.0,0.0,0.0,0.0,0.0,0.0,-1.0497,-1.05,-1.0385,-1.067,-1.0921,-1.1067,-1.1192,-1.1338,-1.1514,-1.1535,-1.1555,-1.1606,-1.1592,-1.1589,-1.1616,-1.1616,-1.1616,-1.1616,-1.1616,-1.1616,-1.1616,-1.1616,-1.1616,-1.1616,-1.1616,-1.1545,-1.1369,-1.1206,-1.1067,-1.086,-1.0792,-1.0724,-1.0721,-1.2215,-1.4036,-1.5589,-1.7339,-1.9088,-2.0716,-2.1102,-2.1102,-2.1102,-2.1102,-2.1102,-2.1102,-2.1102,-2.1102,-2.1102,-2.1102,-2.1102,-2.1102,-2.1102,-2.1102,0.0,0.0,0.0,0.0,0.0,0.0,0.0,0.0,0.0,0.0,0.0,0.0,0.0,0.0,0.0,0.0,0.0,0.0,0.0,0.0,0.0,0.0,0.0,-0.0863,-0.1663,-0.2524,-0.3322,-0.4548,-0.6077,-0.6141,-0.6689,-0.7795,-0.7983,-0.823,-0.8596,-0.8903,-0.8925,-0.8546,-0.9016,-0.9273,-0.9384,-0.9381,-0.9381,-0.9381,-0.9381,0.0,0.0,0.0,0.0,0.0,0.0,0.0,0.0,0.0,0.0,-0.9758,-0.99,-1.0036,-1.0249,-1.027,-1.0399,-1.0697,-1.0921,-1.1019,-1.0938,-1.108,-1.1229,-1.1375,-1.146,-1.1562,-1.1704,-1.1664,-1.165,-1.1711,-1.1664,-1.1616,-1.1616,-1.1616,-1.1616,-1.1616,-1.1616,-1.1616,-1.1616,-1.1616,-1.1616,-1.1616,-1.1616,-1.1538,-1.1324,-1.1285,-1.109,-1.0877,-1.0778,-1.0721,-1.0916,-1.2997,-1.4749,-1.5983,-1.8052,-1.9935,-2.0919,-2.1102,-2.1102,-2.1102,-2.1102,-2.1102,-2.1102,-2.1102,-2.1102,-2.1102,-2.1102,-2.1102,-2.1102,-2.1102,-2.1102,0.0,0.0,0.0,0.0,0.0,0.0,0.0,0.0,0.0,0.0,0.0,0.0,0.0,0.0,0.0,0.0,0.0,0.0,0.0,0.0,-0.0314,-0.0434,-0.0557,-0.2157,-0.3076,-0.3444,-0.4731,-0.62,-0.7789,-0.7789,-0.8465,-0.9697,-0.9819,-0.9819,-0.9819,-0.9819,-0.958,-0.9224,-0.9218,-0.9281,-0.9462,-0.9459,-0.9459,-0.9459,-0.9459,-0.9459,-0.9456,-0.9459,-0.9469,-0.9496,-0.95,-0.9568,-0.972,-0.9839,-0.9968,-1.0054,-1.0246,-1.0382,-1.0521,-1.0558,-1.0704,-1.0938,-1.1277,-1.143,-1.1433,-1.1433,-1.148,-1.1613,-1.1616,-1.1667,-1.1779,-1.1691,-1.1667,-1.1779,-1.1691,-1.1616,-1.1616,-1.1616,-1.1616,-1.1616,-1.1616,-1.1616,-1.1616,-1.1616,-1.1616,-1.1616,-1.1616,-1.1511,-1.1233,-1.1107,-1.0982,-1.0778,-1.0724,-1.0721,-1.1178,-1.3582,-1.5719,-1.5978,-1.8768,-2.0976,-2.1102,-2.1102,-2.1102,-2.1102,-2.1102,-2.1102,-2.1102,-2.1102,-2.1102,-2.1102,-2.1102,-2.1102,-2.1102,-2.1102,-2.1102,0.0,0.0,0.0,0.0,0.0,0.0,0.0,0.0,0.0,0.0,0.0,0.0,0.0,0.0,0.0,0.0,0.0,0.0,0.0,0.0,-0.1465,-0.2135,-0.2259,-0.3775,-0.5345,-0.6689,-0.6933,-0.7853,-0.9326,-0.9451,-0.9572,-0.9758,-0.9819,-0.9819,-0.9819,-0.9819,-0.9751,-0.9727,-0.9727,-0.9717,-0.9761,-0.9761,-0.9758,-0.9758,-0.9754,-0.9761,-0.9761,-0.9758,-0.9819,-0.9886,-0.9893,-1.0025,-1.0175,-1.0198,-1.028,-1.0415,-1.0449,-1.0531,-1.0677,-1.0809,-1.1009,-1.1301,-1.1491,-1.1586,-1.1589,-1.1586,-1.1596,-1.1616,-1.1616,-1.1626,-1.1643,-1.1633,-1.1626,-1.1647,-1.1633,-1.1616,-1.1616,-1.1616,-1.1616,-1.1616,-1.1616,-1.1616,-1.1616,-1.1616,-1.1616,-1.1616,-1.1603,-1.1504,-1.1212,-1.0941,-1.0785,-1.0731,-1.0721,-1.0721,-1.1045,-1.3582,-1.5524,-1.5913,-1.8704,-2.0976,-2.1102,-2.1102,-2.1102,-2.1102,-2.1102,-2.1102,-2.1102,-2.1102,-2.1102,-2.1102,-2.1102,-2.1102,-2.1102,-2.1102,-2.1102,0.0,0.0,0.0,0.0,0.0,0.0,0.0,0.0,0.0,0.0,0.0,0.0,0.0,0.0,0.0,0.0,0.0,0.0,-0.0527,-0.151,-0.217,-0.3021,-0.4016,-0.5504,-0.6628,-0.7421,-0.8343,-0.9079,-0.9758,-0.9819,-0.9819,-0.9819,-0.9819,-0.9819,-0.9819,-0.9819,-0.9819,-0.9819,-0.9819,-0.9819,-0.9819,-0.9819,-0.9819,-0.9819,-0.9819,-0.9863,-0.9879,-0.9883,-1.0015,-1.0168,-1.0175,-1.0243,-1.0382,-1.0395,-1.046,-1.0605,-1.0612,-1.0646,-1.0714,-1.0934,-1.1158,-1.1375,-1.1531,-1.1616,-1.1616,-1.1616,-1.1616,-1.1616,-1.1616,-1.1616,-1.1616,-1.1616,-1.1616,-1.1616,-1.1616,-1.1616,-1.1616,-1.1616,-1.1616,-1.1616,-1.1616,-1.1616,-1.1616,-1.1616,-1.1616,-1.1613,-1.1558,-1.1413,-1.1202,-1.1053,-1.0897,-1.0755,-1.0721,-1.0721,-1.085,-1.2738,-1.4684,-1.5659,-1.7988,-1.9871,-2.0779,-2.1102,-2.1102,-2.1102,-2.1102,-2.1102,-2.1102,-2.1102,-2.1102,-2.1102,-2.1102,-2.1102,-2.1102,-2.1102,-2.1102,0.0,0.0,0.0,-0.0208,-0.0547,-0.0135,-0.0471,-0.1143,0.0,-0.0874,-0.1075,-0.0404,-0.0202,-0.0605,-0.0605,0.0,-0.1208,-0.1196,-0.1982,-0.3225,-0.3601,-0.4444,-0.5762,-0.7304,-0.8044,-0.808,-0.9252,-0.9792,-0.9822,-0.9819,-0.9819,-0.9819,-0.9819,-0.9819,-0.9819,-0.9819,-0.9819,-0.9819,-0.9819,-0.9819,-0.9819,-0.9819,-0.9819,-0.9822,-0.9856,-0.9866,-0.998,-1.0021,-1.0171,-1.0317,-1.0327,-1.0392,-1.0531,-1.0544,-1.0599,-1.0704,-1.0721,-1.0748,-1.0829,-1.1063,-1.128,-1.143,-1.1552,-1.1616,-1.1616,-1.1616,-1.1616,-1.1616,-1.1616,-1.1616,-1.1616,-1.1616,-1.163,-1.1657,-1.1636,-1.164,-1.1657,-1.164,-1.1616,-1.1616,-1.1616,-1.1616,-1.1616,-1.1616,-1.1616,-1.1599,-1.1514,-1.1385,-1.125,-1.1216,-1.1101,-1.0907,-1.0795,-1.0758,-1.0797,-1.2219,-1.3774,-1.5204,-1.7146,-1.8832,-2.0125,-2.0722,-2.1109,-2.1102,-2.1102,-2.1102,-2.1102,-2.1102,-2.1102,-2.1102,-2.1102,-2.1102,-2.1102,-2.1102,-2.1102,0.0,0.0,0.0,-0.0966,-0.2224,-0.0808,-0.1882,-0.4359,-0.3154,-0.3422,-0.436,-0.1479,-0.1008,-0.2283,-0.2484,-0.3288,-0.4693,-0.4888,-0.495,-0.5275,-0.6649,-0.7384,-0.7689,-0.92,-0.9972,-0.9728,-0.9901,-0.9903,-0.9852,-0.9832,-0.9822,-0.9819,-0.9819,-0.9822,-0.9825,-0.9825,-0.9825,-0.9819,-0.9819,-0.9819,-0.9819,-0.9819,-0.9819,-0.9822,-0.9896,-0.9974,-1.0004,-1.0185,-1.0324,-1.0456,-1.0473,-1.0541,-1.0673,-1.0697,-1.0704,-1.0721,-1.0721,-1.0833,-1.1097,-1.1277,-1.143,-1.1575,-1.1603,-1.1616,-1.1616,-1.1616,-1.1616,-1.1616,-1.1616,-1.1616,-1.1616,-1.1616,-1.1667,-1.1772,-1.1697,-1.1667,-1.1762,-1.1694,-1.1616,-1.1616,-1.1616,-1.1616,-1.1616,-1.1616,-1.1616,-1.1616,-1.1592,-1.1518,-1.1379,-1.1362,-1.1301,-1.1134,-1.1016,-1.082,-1.0919,-1.2157,-1.3244,-1.3809,-1.6312,-1.8215,-1.9078,-2.0221,-2.1102,-2.1102,-2.1102,-2.1102,-2.1102,-2.1102,-2.1102,-2.1102,-2.1102,-2.1102,-2.1102,-2.1102,-2.1102,-0.3407,-0.3459,-0.3413,-0.3759,-0.4282,-0.3598,-0.4122,-0.523,-0.4628,-0.476,-0.5162,-0.3824,-0.3623,-0.4293,-0.4292,-0.4695,-0.5364,-0.5431,-0.5964,-0.6887,-0.759,-0.8394,-0.9429,-0.996,-1.0246,-1.0188,-1.0188,-1.0151,-1.0086,-1.0002,-0.9849,-0.9829,-0.9819,-0.9802,-0.9947,-0.9896,-0.9998,-1.0086,-1.0093,-1.009,-1.0083,-0.9998,-0.9896,-0.9909,-1.0103,-1.0229,-1.0307,-1.0375,-1.0473,-1.0612,-1.0626,-1.0653,-1.0714,-1.0721,-1.0721,-1.0724,-1.0809,-1.0985,-1.128,-1.1358,-1.1457,-1.1609,-1.1616,-1.1616,-1.1616,-1.1616,-1.1616,-1.1616,-1.1616,-1.1616,-1.1616,-1.1616,-1.1605,-1.1792,-1.1779,-1.1769,-1.182,-1.1779,-1.1718,-1.1636,-1.1616,-1.1616,-1.1616,-1.1616,-1.1616,-1.1616,-1.1616,-1.1562,-1.1426,-1.1467,-1.1416,-1.1233,-1.1179,-1.1148,-1.1077,-1.1518,-1.2446,-1.3625,-1.5465,-1.7168,-1.8523,-1.9959,-2.1109,-2.1102,-2.1102,-2.1102,-2.1102,-2.1102,-2.1102,-2.1102,-2.1102,-2.1102,-2.1102,-2.1102,-2.1102,-0.581,-0.5798,-0.5798,-0.6041,-0.6324,-0.5819,-0.6118,-0.6805,-0.6376,-0.6364,-0.6833,-0.6833,-0.6833,-0.6767,-0.6364,-0.6364,-0.6833,-0.6833,-0.75,-0.8626,-0.8615,-0.9303,-1.0479,-1.0453,-1.0378,-1.0344,-1.0341,-1.0317,-1.0273,-1.0175,-1.0056,-0.9961,-0.9947,-1.0002,-1.01,-1.0114,-1.0164,-1.0266,-1.0343,-1.0343,-1.0266,-1.0209,-1.0088,-1.0068,-1.0259,-1.0388,-1.0487,-1.0534,-1.0602,-1.0711,-1.0721,-1.0721,-1.0721,-1.0721,-1.0738,-1.0789,-1.0924,-1.1118,-1.1375,-1.143,-1.1501,-1.1603,-1.1616,-1.1616,-1.1616,-1.1616,-1.1616,-1.1616,-1.1616,-1.1616,-1.1616,-1.1616,-1.1681,-1.1806,-1.1803,-1.1709,-1.175,-1.1733,-1.1725,-1.1636,-1.1616,-1.1616,-1.1616,-1.1616,-1.1616,-1.1616,-1.1616,-1.1592,-1.1494,-1.1541,-1.1528,-1.1331,-1.1389,-1.1355,-1.1209,-1.1276,-1.1909,-1.284,-1.441,-1.6057,-1.7736,-1.9306,-2.0889,-2.0775,-2.0939,-2.1102,-2.1102,-2.1102,-2.1116,-2.1109,-2.1102,-2.1102,-2.1102,-2.1102,-2.1102,-0.581,-0.587,-0.5871,-0.6925,-0.8221,-0.6538,-0.7589,-1.0177,-0.863,-0.8845,-1.0127,-1.0259,-1.0386,-1.0117,-0.8568,-0.8837,-1.0183,-1.018,-1.025,-1.0449,-1.0439,-1.0571,-1.0711,-1.07,-1.0619,-1.049,-1.0487,-1.0419,-1.0297,-1.0276,-1.027,-1.0313,-1.0232,-1.0253,-1.027,-1.027,-1.0276,-1.0307,-1.0314,-1.0297,-1.0307,-1.0409,-1.0402,-1.031,-1.0409,-1.049,-1.0514,-1.0633,-1.0711,-1.0717,-1.0727,-1.0727,-1.0724,-1.0731,-1.0802,-1.087,-1.1077,-1.1223,-1.1385,-1.1521,-1.1603,-1.1616,-1.1616,-1.1616,-1.1616,-1.1616,-1.1616,-1.1616,-1.1616,-1.1616,-1.1616,-1.1616,-1.1681,-1.1799,-1.1718,-1.1714,-1.1816,-1.1735,-1.164,-1.1619,-1.1616,-1.1616,-1.1616,-1.1616,-1.1616,-1.1616,-1.1616,-1.1609,-1.1599,-1.1609,-1.1592,-1.1579,-1.1558,-1.1504,-1.1243,-1.1233,-1.1285,-1.2026,-1.3396,-1.4702,-1.6092,-1.7604,-1.9265,-2.0585,-2.1012,-2.1169,-2.1122,-2.1116,-2.1136,-2.1129,-2.1109,-2.1102,-2.1102,-2.1102,-2.1102,-0.951,-0.9504,-0.9532,-0.9871,-1.0247,-0.9556,-1.0052,-1.1012,-1.0402,-1.0331,-1.0739,-1.0799,-1.0745,-1.0651,-1.0047,-1.011,-1.0651,-1.0721,-1.0721,-1.0721,-1.0721,-1.0721,-1.0721,-1.0721,-1.0697,-1.0646,-1.0636,-1.0561,-1.0429,-1.0415,-1.0368,-1.029,-1.0343,-1.0324,-1.0399,-1.0419,-1.046,-1.0551,-1.0561,-1.0561,-1.0558,-1.0612,-1.0612,-1.0568,-1.0612,-1.0639,-1.0639,-1.069,-1.0721,-1.0721,-1.0742,-1.0799,-1.0877,-1.0951,-1.107,-1.1216,-1.128,-1.1375,-1.1518,-1.1589,-1.1616,-1.1616,-1.1616,-1.1616,-1.1616,-1.1616,-1.1616,-1.1619,-1.1619,-1.1616,-1.1616,-1.1616,-1.1674,-1.1789,-1.1713,-1.1762,-1.1809,-1.1782,-1.1721,-1.1643,-1.1616,-1.1616,-1.1616,-1.1616,-1.1616,-1.1616,-1.1616,-1.1616,-1.1616,-1.1616,-1.1616,-1.1616,-1.1616,-1.1586,-1.1497,-1.146,-1.1595,-1.1984,-1.292,-1.4686,-1.6259,-1.7922,-1.9603,-2.0974,-2.1403,-2.137,-2.137,-2.1383,-2.1356,-2.1169,-2.1142,-2.1169,-2.1102,-2.1129,-2.1122,-1.1616,-1.1616,-1.1616,-1.1558,-1.146,-1.1413,-1.1331,-1.1302,-1.1182,-1.1104,-1.1023,-1.0904,-1.082,-1.0795,-1.0744,-1.0721,-1.0721,-1.0721,-1.0721,-1.0721,-1.0721,-1.0721,-1.0721,-1.0721,-1.0721,-1.0717,-1.0721,-1.0663,-1.0575,-1.0565,-1.0517,-1.0432,-1.0422,-1.0466,-1.0551,-1.0565,-1.0622,-1.0704,-1.0721,-1.0717,-1.0721,-1.0721,-1.0721,-1.0717,-1.0721,-1.0721,-1.0721,-1.0768,-1.0792,-1.0812,-1.0938,-1.1016,-1.1026,-1.1111,-1.1229,-1.1369,-1.1392,-1.146,-1.1592,-1.1616,-1.1616,-1.1616,-1.1616,-1.1616,-1.1616,-1.1616,-1.1636,-1.167,-1.1687,-1.1697,-1.1738,-1.1721,-1.1711,-1.1759,-1.1689,-1.1762,-1.1765,-1.1686,-1.1711,-1.164,-1.1616,-1.1616,-1.1616,-1.1616,-1.1616,-1.1616,-1.1616,-1.1616,-1.1616,-1.1616,-1.1616,-1.1616,-1.1616,-1.1616,-1.1575,-1.1555,-1.1558,-1.1888,-1.3059,-1.4802,-1.6501,-1.8208,-1.9808,-2.113,-2.1677,-2.1708,-2.1702,-2.1722,-2.1523,-2.1309,-2.1289,-2.1343,-2.1256,-2.1169,-2.1189,-1.1616,-1.1616,-1.1616,-1.1613,-1.1582,-1.147,-1.1396,-1.1372,-1.1253,-1.1196,-1.1155,-1.1033,-1.0904,-1.0843,-1.0802,-1.0731,-1.0721,-1.0734,-1.0734,-1.0724,-1.0721,-1.0721,-1.0721,-1.0721,-1.0721,-1.0721,-1.0721,-1.0717,-1.07,-1.0697,-1.0687,-1.07,-1.068,-1.0683,-1.0721,-1.0721,-1.0727,-1.0758,-1.0768,-1.0751,-1.0727,-1.0758,-1.0765,-1.0751,-1.0755,-1.0758,-1.0748,-1.0803,-1.0867,-1.0897,-1.1087,-1.1165,-1.1185,-1.1202,-1.125,-1.1382,-1.1402,-1.1477,-1.1592,-1.1616,-1.1616,-1.1616,-1.1616,-1.1616,-1.1616,-1.1619,-1.167,-1.1779,-1.1816,-1.187,-1.1976,-1.1911,-1.1789,-1.1657,-1.1667,-1.167,-1.1653,-1.164,-1.1633,-1.1653,-1.1657,-1.1626,-1.1623,-1.1623,-1.1619,-1.1616,-1.1616,-1.1616,-1.1616,-1.1616,-1.1616,-1.1616,-1.1616,-1.1616,-1.1616,-1.1616,-1.1613,-1.1821,-1.3353,-1.4921,-1.6629,-1.8361,-2.0104,-2.1475,-2.1991,-2.1951,-2.177,-2.179,-2.181,-2.1657,-2.1617,-2.1557,-2.1516,-2.1456,-2.1329,-1.1616,-1.1616,-1.1616,-1.1616,-1.1613,-1.1565,-1.1548,-1.1545,-1.1491,-1.1419,-1.1321,-1.127,-1.1141,-1.0904,-1.0894,-1.0819,-1.0734,-1.0819,-1.0756,-1.0741,-1.0727,-1.0724,-1.0721,-1.0721,-1.0721,-1.0721,-1.0721,-1.0721,-1.0721,-1.0721,-1.0721,-1.0721,-1.0721,-1.0778,-1.0867,-1.0813,-1.0917,-1.1016,-1.1026,-1.1026,-1.1026,-1.1023,-1.1019,-1.1023,-1.1026,-1.1026,-1.1023,-1.0975,-1.0999,-1.109,-1.124,-1.1365,-1.145,-1.1477,-1.1501,-1.1541,-1.1552,-1.1562,-1.1606,-1.1616,-1.1616,-1.1616,-1.1616,-1.1616,-1.1616,-1.1616,-1.1681,-1.1806,-1.1837,-1.1894,-1.2013,-1.2026,-1.1928,-1.1782,-1.1762,-1.1765,-1.1775,-1.185,-1.1918,-1.1911,-1.1833,-1.1772,-1.1742,-1.1701,-1.163,-1.1616,-1.1616,-1.1616,-1.1616,-1.1616,-1.1616,-1.1616,-1.1616,-1.1616,-1.1616,-1.1616,-1.1616,-1.1968,-1.3305,-1.4566,-1.6373,-1.8606,-2.0297,-2.1591,-2.205,-2.2191,-2.2011,-2.1991,-2.2058,-2.1977,-2.1884,-2.185,-2.1844,-2.1744,-2.1603,-1.1667,-1.1619,-1.1616,-1.1616,-1.1616,-1.1616,-1.1616,-1.1616,-1.1616,-1.1562,-1.1477,-1.1413,-1.129,-1.1124,-1.1056,-1.0978,-1.0897,-1.0938,-1.0928,-1.0887,-1.0887,-1.0833,-1.0741,-1.0721,-1.0758,-1.0785,-1.0748,-1.0721,-1.0721,-1.0721,-1.0721,-1.0721,-1.0772,-1.0846,-1.0884,-1.1006,-1.108,-1.1151,-1.1227,-1.1231,-1.1231,-1.1231,-1.1231,-1.1231,-1.1231,-1.1192,-1.1229,-1.1158,-1.1151,-1.1257,-1.1396,-1.1521,-1.1613,-1.1613,-1.1616,-1.1616,-1.1616,-1.1616,-1.1616,-1.1616,-1.1616,-1.1616,-1.1616,-1.1616,-1.1616,-1.1616,-1.1684,-1.1803,-1.1887,-1.1982,-1.2115,-1.2145,-1.2098,-1.2016,-1.1948,-1.1921,-1.1928,-1.1999,-1.205,-1.2026,-1.1969,-1.1901,-1.182,-1.1772,-1.167,-1.164,-1.1616,-1.1616,-1.1616,-1.1616,-1.1616,-1.1616,-1.1616,-1.1616,-1.1616,-1.1616,-1.1616,-1.2252,-1.3167,-1.429,-1.5657,-1.8379,-2.0553,-2.1829,-2.2585,-2.2445,-2.2285,-2.2425,-2.2498,-2.2338,-2.2151,-2.2144,-2.2124,-2.1977,-2.1837,-1.1742,-1.1623,-1.1616,-1.1616,-1.1616,-1.1616,-1.1616,-1.1616,-1.1616,-1.1613,-1.1579,-1.1477,-1.1399,-1.1348,-1.1226,-1.1158,-1.1138,-1.106,-1.1053,-1.1114,-1.1124,-1.1016,-1.0755,-1.0768,-1.0846,-1.0826,-1.0822,-1.0772,-1.0792,-1.0768,-1.0731,-1.0761,-1.0803,-1.0887,-1.0934,-1.1104,-1.1192,-1.1229,-1.1216,-1.1219,-1.1219,-1.1209,-1.1212,-1.1216,-1.1226,-1.1284,-1.1379,-1.1385,-1.1389,-1.1419,-1.1531,-1.1599,-1.1616,-1.1616,-1.1616,-1.1616,-1.1616,-1.1616,-1.1616,-1.1616,-1.1616,-1.1616,-1.1616,-1.1616,-1.1616,-1.1623,-1.1677,-1.1816,-1.1938,-1.2091,-1.2223,-1.2271,-1.2267,-1.2277,-1.2159,-1.2084,-1.2088,-1.2104,-1.2135,-1.2121,-1.2081,-1.203,-1.1904,-1.186,-1.1759,-1.1684,-1.1636,-1.1616,-1.1616,-1.1616,-1.1616,-1.1616,-1.1616,-1.1616,-1.1616,-1.1616,-1.1616,-1.19,-1.2745,-1.3662,-1.4924,-1.7593,-2.0057,-2.1421,-2.2431,-2.2374,-2.2612,-2.2706,-2.2712,-2.2545,-2.2452,-2.2445,-2.2385,-2.2271,-2.2164,-1.1653,-1.1619,-1.1616,-1.1616,-1.1616,-1.1616,-1.1616,-1.1616,-1.1616,-1.1616,-1.1606,-1.1579,-1.1491,-1.1392,-1.1352,-1.1274,-1.1212,-1.1236,-1.1212,-1.1258,-1.1284,-1.109,-1.0846,-1.0941,-1.1002,-1.0904,-1.1006,-1.1046,-1.1036,-1.0931,-1.089,-1.0823,-1.0873,-1.1016,-1.1111,-1.1257,-1.1389,-1.1484,-1.1494,-1.1487,-1.1487,-1.1484,-1.1497,-1.1501,-1.1491,-1.1508,-1.1555,-1.1558,-1.1558,-1.1562,-1.1592,-1.1616,-1.1616,-1.1616,-1.1616,-1.1616,-1.1616,-1.1616,-1.1616,-1.1616,-1.1616,-1.1616,-1.1616,-1.1616,-1.1616,-1.1616,-1.1687,-1.1803,-1.1881,-1.2006,-1.2223,-1.2294,-1.2335,-1.241,-1.2311,-1.2267,-1.2342,-1.2386,-1.2386,-1.2379,-1.2284,-1.2206,-1.2125,-1.1982,-1.1843,-1.1779,-1.1697,-1.1633,-1.1647,-1.1616,-1.1616,-1.1616,-1.1616,-1.1616,-1.1616,-1.1616,-1.1616,-1.1619,-1.2183,-1.2817,-1.4294,-1.6399,-1.8508,-2.0259,-2.1014,-2.1202,-2.2199,-2.2819,-2.2752,-2.2686,-2.2652,-2.2612,-2.2699,-2.2659,-2.2565,-1.1674,-1.1619,-1.1616,-1.1616,-1.1616,-1.1616,-1.1616,-1.1616,-1.1616,-1.1616,-1.1616,-1.1616,-1.1572,-1.1494,-1.1487,-1.1443,-1.1372,-1.1379,-1.1375,-1.1389,-1.1447,-1.1301,-1.1087,-1.1101,-1.1087,-1.1138,-1.1148,-1.1224,-1.1145,-1.1073,-1.1043,-1.1056,-1.1104,-1.1179,-1.1263,-1.1409,-1.1525,-1.1599,-1.1616,-1.1616,-1.1616,-1.1616,-1.1616,-1.1616,-1.1616,-1.1616,-1.1616,-1.1616,-1.1616,-1.1616,-1.1616,-1.1616,-1.1616,-1.1616,-1.1616,-1.1616,-1.1616,-1.1616,-1.1616,-1.1616,-1.1616,-1.1616,-1.1616,-1.1616,-1.1616,-1.1619,-1.167,-1.1725,-1.1843,-1.2006,-1.2162,-1.2298,-1.2406,-1.2467,-1.2427,-1.2416,-1.2494,-1.2488,-1.2498,-1.2478,-1.243,-1.2349,-1.2308,-1.2121,-1.2016,-1.1921,-1.1803,-1.1748,-1.1714,-1.1664,-1.1636,-1.1657,-1.165,-1.1647,-1.164,-1.1636,-1.1626,-1.1623,-1.176,-1.2323,-1.3519,-1.5278,-1.6685,-1.8299,-1.9356,-2.0409,-2.139,-2.2372,-2.2832,-2.2786,-2.2766,-2.2759,-2.2806,-2.2766,-2.2712,-1.1735,-1.1616,-1.1616,-1.1616,-1.1616,-1.1616,-1.1616,-1.1616,-1.1616,-1.1616,-1.1616,-1.1616,-1.1609,-1.1616,-1.1589,-1.1606,-1.1596,-1.148,-1.1487,-1.1518,-1.1548,-1.145,-1.1321,-1.1182,-1.1189,-1.1287,-1.1229,-1.1243,-1.1246,-1.1216,-1.1185,-1.1209,-1.1311,-1.1372,-1.1396,-1.1525,-1.1606,-1.1613,-1.1616,-1.1616,-1.1616,-1.1616,-1.1616,-1.1616,-1.1616,-1.1616,-1.1616,-1.1616,-1.1616,-1.1616,-1.1616,-1.1616,-1.1616,-1.1616,-1.1616,-1.1616,-1.1616,-1.1616,-1.1616,-1.1616,-1.1633,-1.1647,-1.1636,-1.163,-1.1647,-1.1664,-1.1674,-1.1694,-1.1904,-1.2047,-1.2149,-1.2342,-1.2467,-1.2498,-1.2494,-1.2498,-1.2501,-1.2501,-1.2501,-1.2501,-1.2501,-1.2433,-1.2359,-1.2288,-1.2233,-1.2088,-1.1965,-1.1881,-1.1847,-1.1816,-1.1775,-1.1748,-1.1725,-1.1687,-1.1674,-1.1657,-1.1643,-1.163,-1.1619,-1.204,-1.2817,-1.4156,-1.5137,-1.6263,-1.7173,-1.8653,-2.034,-2.1321,-2.216,-2.2832,-2.2786,-2.2772,-2.2766,-2.2652,-2.2579,-1.1647,-1.1616,-1.1616,-1.1616,-1.1616,-1.1616,-1.1616,-1.1616,-1.1616,-1.1616,-1.1616,-1.1616,-1.1616,-1.1616,-1.1616,-1.1616,-1.1616,-1.1565,-1.1538,-1.143,-1.144,-1.143,-1.1413,-1.1399,-1.1372,-1.1335,-1.1447,-1.1508,-1.1491,-1.1389,-1.1345,-1.1352,-1.1379,-1.1396,-1.1423,-1.1545,-1.1616,-1.1616,-1.1616,-1.1616,-1.1616,-1.1616,-1.1616,-1.1616,-1.1616,-1.1616,-1.1616,-1.1616,-1.1616,-1.1616,-1.1616,-1.1616,-1.1616,-1.1616,-1.1616,-1.1616,-1.1616,-1.1616,-1.1616,-1.1623,-1.1667,-1.1735,-1.1674,-1.1667,-1.1779,-1.1765,-1.1775,-1.1813,-1.1952,-1.2101,-1.224,-1.2393,-1.2484,-1.2501,-1.2501,-1.2501,-1.2501,-1.2501,-1.2501,-1.2501,-1.2501,-1.2491,-1.245,-1.2349,-1.2288,-1.2227,-1.2138,-1.2033,-1.1989,-1.1962,-1.1915,-1.1867,-1.187,-1.1833,-1.1735,-1.1701,-1.165,-1.1633,-1.1623,-1.1616,-1.2395,-1.2749,-1.3662,-1.4365,-1.4995,-1.6756,-1.8653,-2.0271,-2.1183,-2.1984,-2.2724,-2.2786,-2.2739,-2.2592,-2.2412,-1.1616,-1.1616,-1.1616,-1.1616,-1.1616,-1.1616,-1.1616,-1.1616,-1.1616,-1.1616,-1.1616,-1.1616,-1.1616,-1.1616,-1.1616,-1.1616,-1.1616,-1.1616,-1.1579,-1.1514,-1.1501,-1.146,-1.1426,-1.1528,-1.1521,-1.1409,-1.1525,-1.1613,-1.1589,-1.1541,-1.1497,-1.1497,-1.1497,-1.1508,-1.1497,-1.1579,-1.1613,-1.1616,-1.1616,-1.1616,-1.1616,-1.1616,-1.1616,-1.1616,-1.1616,-1.1616,-1.1616,-1.1616,-1.1616,-1.1616,-1.1616,-1.1616,-1.1619,-1.1619,-1.1619,-1.1616,-1.1616,-1.1616,-1.1616,-1.1623,-1.165,-1.1728,-1.1657,-1.1674,-1.1714,-1.1731,-1.1772,-1.1843,-1.1976,-1.2142,-1.2359,-1.244,-1.2498,-1.2501,-1.2501,-1.2501,-1.2501,-1.2501,-1.2501,-1.2501,-1.2501,-1.2501,-1.2464,-1.2403,-1.2396,-1.2362,-1.2267,-1.2162,-1.2125,-1.2094,-1.2037,-1.2006,-1.2026,-1.1979,-1.184,-1.1748,-1.1664,-1.164,-1.1619,-1.1616,-1.19,-1.1972,-1.2043,-1.2888,-1.38,-1.4853,-1.6615,-1.8299,-1.9982,-2.0932,-2.1677,-2.2369,-2.2733,-2.2465,-2.2245,-1.1616,-1.1616,-1.1616,-1.1616,-1.1616,-1.1616,-1.1616,-1.1616,-1.1616,-1.1616,-1.1616,-1.1616,-1.1616,-1.1616,-1.1616,-1.1616,-1.1616,-1.1616,-1.1599,-1.1596,-1.1592,-1.1538,-1.1497,-1.1555,-1.1613,-1.1616,-1.1616,-1.1616,-1.1616,-1.1616,-1.1589,-1.1609,-1.1613,-1.1592,-1.1609,-1.1616,-1.1616,-1.1616,-1.1616,-1.1616,-1.1616,-1.1616,-1.1616,-1.1616,-1.1616,-1.1616,-1.1616,-1.1616,-1.1616,-1.1616,-1.1616,-1.1616,-1.1623,-1.1647,-1.163,-1.163,-1.1647,-1.165,-1.1623,-1.1619,-1.163,-1.164,-1.1626,-1.1643,-1.166,-1.1731,-1.1799,-1.1908,-1.2054,-1.2257,-1.2467,-1.2498,-1.2501,-1.2501,-1.2501,-1.2501,-1.2501,-1.2501,-1.2501,-1.2501,-1.2501,-1.2501,-1.2501,-1.2471,-1.2488,-1.2484,-1.2383,-1.2308,-1.2267,-1.2233,-1.2182,-1.2169,-1.2196,-1.2104,-1.1965,-1.1731,-1.1653,-1.1636,-1.1616,-1.1616,-1.1616,-1.1688,-1.1832,-1.1972,-1.2817,-1.3876,-1.4995,-1.6615,-1.8143,-1.9588,-2.0839,-2.1671,-2.1991,-2.2131,-2.2151,-1.1616,-1.1616,-1.1616,-1.1616,-1.1616,-1.1616,-1.1616,-1.1616,-1.1616,-1.1616,-1.1616,-1.1616,-1.1616,-1.1616,-1.1616,-1.1616,-1.1616,-1.1616,-1.1616,-1.1616,-1.1616,-1.1582,-1.1582,-1.1589,-1.1616,-1.1616,-1.1616,-1.1616,-1.1616,-1.1616,-1.1616,-1.1616,-1.1616,-1.1616,-1.1616,-1.1616,-1.1616,-1.1616,-1.1616,-1.1616,-1.1616,-1.1616,-1.1616,-1.1616,-1.1616,-1.1616,-1.1616,-1.1616,-1.1616,-1.1616,-1.1616,-1.1626,-1.1674,-1.1752,-1.1748,-1.1684,-1.1742,-1.1759,-1.1664,-1.1633,-1.1687,-1.1731,-1.1697,-1.1691,-1.1775,-1.1887,-1.1925,-1.2047,-1.223,-1.2444,-1.2488,-1.2501,-1.2501,-1.2501,-1.2501,-1.2501,-1.2501,-1.2501,-1.2491,-1.2474,-1.2484,-1.2501,-1.2501,-1.2501,-1.2501,-1.2501,-1.2454,-1.2416,-1.24,-1.2372,-1.2342,-1.2352,-1.2376,-1.224,-1.2084,-1.1806,-1.1626,-1.1626,-1.1616,-1.1616,-1.1616,-1.1616,-1.1688,-1.1828,-1.2115,-1.2749,-1.3943,-1.5208,-1.6957,-1.8771,-1.9941,-2.1039,-2.1858,-2.2512,-2.2392,-1.1616,-1.1616,-1.1616,-1.1616,-1.1616,-1.1616,-1.1616,-1.1616,-1.1616,-1.1616,-1.1616,-1.1616,-1.1616,-1.1616,-1.1616,-1.1616,-1.1616,-1.1616,-1.1616,-1.1616,-1.1616,-1.1616,-1.1616,-1.1616,-1.1616,-1.1616,-1.1616,-1.1616,-1.1616,-1.1616,-1.1616,-1.1616,-1.1616,-1.1616,-1.1616,-1.1616,-1.1616,-1.1616,-1.1616,-1.1616,-1.1616,-1.1616,-1.1616,-1.1616,-1.1616,-1.1616,-1.1616,-1.1616,-1.166,-1.1714,-1.1731,-1.1775,-1.1857,-1.1942,-1.1962,-1.1806,-1.1864,-1.1881,-1.1759,-1.1728,-1.1738,-1.1711,-1.1708,-1.1714,-1.1759,-1.1837,-1.1993,-1.2115,-1.2318,-1.2501,-1.2501,-1.2501,-1.2501,-1.2501,-1.2501,-1.2501,-1.2501,-1.2501,-1.2474,-1.2444,-1.2471,-1.2491,-1.2501,-1.2501,-1.2501,-1.2501,-1.2501,-1.2501,-1.2501,-1.2437,-1.2379,-1.2301,-1.2264,-1.2118,-1.1986,-1.1809,-1.1623,-1.1616,-1.1616,-1.1616,-1.1616,-1.1616,-1.1616,-1.1688,-1.19,-1.2112,-1.2745,-1.3943,-1.5981,-1.8019,-1.9403,-2.0719,-2.2026,-2.2739,-2.2625,-1.1616,-1.1616,-1.1616,-1.1616,-1.1616,-1.1616,-1.1616,-1.1616,-1.1616,-1.1616,-1.1616,-1.1616,-1.1616,-1.1616,-1.1616,-1.1616,-1.1616,-1.1616,-1.1616,-1.1616,-1.1616,-1.1616,-1.1616,-1.1616,-1.1616,-1.1616,-1.1616,-1.1616,-1.1616,-1.1616,-1.1616,-1.1616,-1.1616,-1.1616,-1.1616,-1.1616,-1.1616,-1.1616,-1.1616,-1.1616,-1.1616,-1.1616,-1.1616,-1.1616,-1.1616,-1.1616,-1.1616,-1.1616,-1.1694,-1.1775,-1.1833,-1.1891,-1.205,-1.2206,-1.2169,-1.1993,-1.2047,-1.1996,-1.1877,-1.182,-1.1759,-1.1664,-1.1759,-1.1748,-1.1772,-1.1877,-1.202,-1.2159,-1.2338,-1.2501,-1.2501,-1.2501,-1.2501,-1.2501,-1.2501,-1.2501,-1.2501,-1.2491,-1.2464,-1.2454,-1.2467,-1.245,-1.2433,-1.2437,-1.2427,-1.2498,-1.2501,-1.2501,-1.2484,-1.2372,-1.2291,-1.2166,-1.2064,-1.1918,-1.1816,-1.1765,-1.164,-1.1616,-1.1616,-1.1616,-1.1616,-1.1616,-1.1616,-1.1616,-1.1616,-1.19,-1.2323,-1.3099,-1.5349,-1.7313,-1.8932,-2.0536,-2.2127,-2.2752,-2.2639,-1.1616,-1.1616,-1.1616,-1.1616,-1.1616,-1.1616,-1.1616,-1.1616,-1.1616,-1.1616,-1.1616,-1.1616,-1.1616,-1.1616,-1.1616,-1.1616,-1.1616,-1.1616,-1.1616,-1.1616,-1.1616,-1.1616,-1.1616,-1.1616,-1.1616,-1.1616,-1.1616,-1.1616,-1.1616,-1.1616,-1.1616,-1.1616,-1.1616,-1.1616,-1.1616,-1.1616,-1.1616,-1.1616,-1.1616,-1.1616,-1.1616,-1.1616,-1.1616,-1.1616,-1.1616,-1.163,-1.164,-1.165,-1.1718,-1.1843,-1.1853,-1.1915,-1.2054,-1.2206,-1.2267,-1.2247,-1.2227,-1.2142,-1.1925,-1.1884,-1.1826,-1.1738,-1.1792,-1.1813,-1.1891,-1.2047,-1.2244,-1.2433,-1.2491,-1.2498,-1.2501,-1.2501,-1.2501,-1.2501,-1.2501,-1.2501,-1.2498,-1.2437,-1.2413,-1.2352,-1.2332,-1.2328,-1.2318,-1.2335,-1.2352,-1.2437,-1.2501,-1.2498,-1.245,-1.2332,-1.2186,-1.2057,-1.1925,-1.1779,-1.1738,-1.1674,-1.1647,-1.1619,-1.1616,-1.1616,-1.1616,-1.1616,-1.1616,-1.1616,-1.1616,-1.1616,-1.1972,-1.3099,-1.4995,-1.6892,-1.8793,-2.0611,-2.2503,-2.2691,-2.2665,-1.1616,-1.1616,-1.1616,-1.1616,-1.1616,-1.1616,-1.1616,-1.1616,-1.1616,-1.1616,-1.1616,-1.1616,-1.1616,-1.1616,-1.1616,-1.1616,-1.1616,-1.1616,-1.1616,-1.1616,-1.1616,-1.1616,-1.1616,-1.1616,-1.1616,-1.1616,-1.1616,-1.1616,-1.1616,-1.1616,-1.1616,-1.1616,-1.1616,-1.1616,-1.1616,-1.1616,-1.1616,-1.1616,-1.1616,-1.1616,-1.1616,-1.1616,-1.1616,-1.1616,-1.1616,-1.1657,-1.1711,-1.1742,-1.1864,-1.2026,-1.2091,-1.2162,-1.2281,-1.2376,-1.241,-1.2406,-1.241,-1.2308,-1.2138,-1.2094,-1.1989,-1.1942,-1.1989,-1.2098,-1.2125,-1.2203,-1.2311,-1.2369,-1.2457,-1.2494,-1.2501,-1.2501,-1.2501,-1.2501,-1.2501,-1.2501,-1.2478,-1.2393,-1.2335,-1.2264,-1.2203,-1.2199,-1.223,-1.2308,-1.2352,-1.2427,-1.2478,-1.2481,-1.2396,-1.2264,-1.2108,-1.1938,-1.1803,-1.1664,-1.1664,-1.1643,-1.1636,-1.1616,-1.1616,-1.1616,-1.1616,-1.1616,-1.1616,-1.1616,-1.1616,-1.1688,-1.176,-1.3242,-1.5278,-1.7037,-1.8723,-2.0756,-2.2572,-2.2757,-2.2672,-1.1616,-1.1616,-1.1616,-1.1616,-1.1616,-1.1616,-1.1616,-1.1616,-1.1616,-1.1616,-1.1616,-1.1616,-1.1616,-1.1616,-1.1616,-1.1616,-1.1616,-1.1616,-1.1616,-1.1616,-1.1616,-1.1616,-1.1616,-1.1616,-1.1616,-1.1616,-1.1616,-1.1616,-1.1616,-1.1616,-1.1616,-1.1616,-1.1616,-1.1616,-1.1616,-1.1616,-1.1616,-1.1616,-1.1616,-1.1616,-1.1616,-1.1616,-1.1616,-1.1616,-1.163,-1.1667,-1.1762,-1.1816,-1.1969,-1.2138,-1.2244,-1.2308,-1.244,-1.2471,-1.2481,-1.2481,-1.2481,-1.244,-1.2335,-1.2274,-1.221,-1.2166,-1.2199,-1.2264,-1.2332,-1.2342,-1.2345,-1.2379,-1.244,-1.2494,-1.2501,-1.2501,-1.2501,-1.2501,-1.2501,-1.2501,-1.2478,-1.2372,-1.2301,-1.2257,-1.2182,-1.2071,-1.2132,-1.2271,-1.2355,-1.242,-1.245,-1.245,-1.2355,-1.222,-1.2074,-1.1915,-1.1806,-1.1677,-1.163,-1.1626,-1.1619,-1.1616,-1.1616,-1.1616,-1.1616,-1.1616,-1.1616,-1.1616,-1.1616,-1.2252,-1.2674,-1.4085,-1.5557,-1.7248,-1.9072,-2.0969,-2.2366,-2.2689,-2.2645,-1.1616,-1.1616,-1.1616,-1.1616,-1.1616,-1.1616,-1.1616,-1.1616,-1.1616,-1.1616,-1.1616,-1.1609,-1.1599,-1.1616,-1.1616,-1.1616,-1.1616,-1.1616,-1.1616,-1.1616,-1.1616,-1.1616,-1.1616,-1.1616,-1.1616,-1.1616,-1.1616,-1.1616,-1.1616,-1.1616,-1.1616,-1.1616,-1.1616,-1.1616,-1.1616,-1.1616,-1.1616,-1.1616,-1.1616,-1.1616,-1.1616,-1.1616,-1.1616,-1.1616,-1.1616,-1.1626,-1.1643,-1.1765,-1.1932,-1.2121,-1.2233,-1.2355,-1.2471,-1.2498,-1.2501,-1.2501,-1.2501,-1.2481,-1.2444,-1.2366,-1.223,-1.2166,-1.2213,-1.2359,-1.2437,-1.2471,-1.2481,-1.2461,-1.2488,-1.2494,-1.2501,-1.2501,-1.2501,-1.2501,-1.2501,-1.2501,-1.2447,-1.2325,-1.226,-1.2244,-1.2142,-1.1982,-1.1948,-1.2064,-1.2199,-1.2264,-1.2305,-1.2308,-1.2311,-1.2199,-1.2074,-1.1942,-1.185,-1.1742,-1.1636,-1.1616,-1.1616,-1.1616,-1.1616,-1.1616,-1.1616,-1.1616,-1.1616,-1.1832,-1.1972,-1.2817,-1.3939,-1.5628,-1.7102,-1.7949,-1.942,-2.1527,-2.247,-2.2697,-2.2525,-1.1616,-1.1616,-1.1616,-1.1616,-1.1616,-1.1616,-1.1616,-1.1616,-1.1616,-1.1616,-1.1609,-1.1531,-1.1535,-1.1596,-1.1616,-1.1616,-1.1616,-1.1616,-1.1616,-1.1616,-1.1616,-1.1616,-1.1616,-1.1616,-1.1616,-1.1616,-1.1616,-1.1616,-1.1616,-1.1616,-1.1616,-1.1616,-1.1616,-1.1616,-1.1616,-1.1616,-1.1616,-1.1616,-1.1616,-1.1616,-1.1616,-1.1616,-1.1616,-1.1616,-1.1616,-1.167,-1.1745,-1.1799,-1.1972,-1.2142,-1.225,-1.2372,-1.2478,-1.2494,-1.2501,-1.2501,-1.2501,-1.2501,-1.2501,-1.2447,-1.2389,-1.2369,-1.2393,-1.244,-1.2501,-1.2501,-1.2501,-1.2498,-1.2501,-1.2501,-1.2501,-1.2501,-1.2501,-1.2501,-1.2501,-1.2501,-1.2437,-1.2315,-1.2227,-1.2213,-1.201,-1.1803,-1.1806,-1.1837,-1.1976,-1.2098,-1.2135,-1.2169,-1.2189,-1.2172,-1.2043,-1.1938,-1.1843,-1.1745,-1.1636,-1.1619,-1.1616,-1.1616,-1.1616,-1.1616,-1.1616,-1.1616,-1.1616,-1.19,-1.2534,-1.3519,-1.5066,-1.7243,-1.8508,-1.9072,-2.0473,-2.2372,-2.2799,-2.2739,-2.2478,-1.1592,-1.1552,-1.1548,-1.1579,-1.1609,-1.1569,-1.1548,-1.1545,-1.1494,-1.1514,-1.1545,-1.1443,-1.1474,-1.1582,-1.1616,-1.1616,-1.1616,-1.1616,-1.1616,-1.1616,-1.1616,-1.1616,-1.1616,-1.1616,-1.1616,-1.1616,-1.1616,-1.1616,-1.1616,-1.1616,-1.1616,-1.1616,-1.1616,-1.1616,-1.1616,-1.1616,-1.1616,-1.1616,-1.1616,-1.1616,-1.1616,-1.1616,-1.1616,-1.1616,-1.1616,-1.165,-1.1755,-1.1843,-1.1999,-1.2169,-1.2298,-1.2396,-1.2464,-1.2501,-1.2501,-1.2501,-1.2501,-1.2501,-1.2501,-1.2501,-1.2501,-1.2467,-1.2474,-1.2491,-1.2501,-1.2501,-1.2501,-1.2501,-1.2501,-1.2501,-1.2501,-1.2501,-1.2501,-1.2501,-1.2501,-1.2494,-1.2437,-1.2338,-1.225,-1.2179,-1.1955,-1.1786,-1.187,-1.1911,-1.1915,-1.2026,-1.2067,-1.2108,-1.2132,-1.2094,-1.2003,-1.1908,-1.1826,-1.1725,-1.1626,-1.1623,-1.1616,-1.1616,-1.1616,-1.1616,-1.1616,-1.1616,-1.1616,-1.1832,-1.2678,-1.4219,-1.6047,-1.8089,-1.9217,-1.9918,-2.1459,-2.2866,-2.2853,-2.2772,-2.2552,-1.1528,-1.1402,-1.1396,-1.1474,-1.1565,-1.1457,-1.1396,-1.1375,-1.1257,-1.1267,-1.1389,-1.1372,-1.1457,-1.1575,-1.1599,-1.1616,-1.1616,-1.1616,-1.1616,-1.1616,-1.1616,-1.1616,-1.1616,-1.1616,-1.1616,-1.1616,-1.1616,-1.1616,-1.1616,-1.1616,-1.1616,-1.1616,-1.1616,-1.1616,-1.1616,-1.1616,-1.1616,-1.1616,-1.1616,-1.1616,-1.1616,-1.1616,-1.1616,-1.1616,-1.1616,-1.164,-1.1691,-1.1864,-1.2006,-1.2111,-1.2328,-1.2437,-1.2491,-1.2501,-1.2501,-1.2501,-1.2501,-1.2501,-1.2501,-1.2501,-1.2501,-1.2501,-1.2501,-1.2501,-1.2501,-1.2501,-1.2501,-1.2501,-1.2501,-1.2501,-1.2501,-1.2501,-1.2501,-1.2501,-1.2501,-1.2488,-1.2433,-1.2352,-1.226,-1.2196,-1.202,-1.1877,-1.1982,-1.2108,-1.1955,-1.1972,-1.201,-1.2043,-1.2071,-1.1982,-1.1884,-1.187,-1.1792,-1.1714,-1.163,-1.1623,-1.1616,-1.1616,-1.1616,-1.1616,-1.1616,-1.1616,-1.1688,-1.1832,-1.3452,-1.5491,-1.7178,-1.8863,-1.9987,-2.1107,-2.1878,-2.2866,-2.2866,-2.2819,-2.2639,-1.1379,-1.124,-1.124,-1.127,-1.1307,-1.1333,-1.1236,-1.1212,-1.1104,-1.1104,-1.1216,-1.124,-1.1324,-1.145,-1.1562,-1.1599,-1.1606,-1.1616,-1.1616,-1.1613,-1.1606,-1.1616,-1.1616,-1.1616,-1.1616,-1.1616,-1.1616,-1.1616,-1.1616,-1.1616,-1.1616,-1.1616,-1.1616,-1.1616,-1.1616,-1.1616,-1.1616,-1.1616,-1.1616,-1.1616,-1.1616,-1.1616,-1.1616,-1.1616,-1.1616,-1.1616,-1.163,-1.1833,-1.1955,-1.2064,-1.2288,-1.2406,-1.2481,-1.2501,-1.2501,-1.2501,-1.2501,-1.2501,-1.2501,-1.2501,-1.2501,-1.2501,-1.2501,-1.2501,-1.2501,-1.2501,-1.2501,-1.2501,-1.2501,-1.2501,-1.2501,-1.2501,-1.2501,-1.2501,-1.2501,-1.2501,-1.2454,-1.2355,-1.2267,-1.2223,-1.2101,-1.2023,-1.2135,-1.2203,-1.2077,-1.1948,-1.1962,-1.1982,-1.2006,-1.185,-1.1728,-1.1775,-1.1752,-1.1687,-1.1636,-1.1623,-1.1616,-1.1616,-1.1616,-1.1616,-1.1616,-1.1616,-1.2395,-1.2888,-1.4862,-1.6901,-1.8723,-2.0334,-2.1383,-2.2372,-2.2722,-2.2866,-2.2866,-2.2866,-2.2812,-1.189,-1.1097,-1.109,-1.1053,-1.1023,-1.1067,-1.1063,-1.1002,-1.0914,-1.0951,-1.1067,-1.109,-1.1172,-1.1307,-1.1406,-1.1463,-1.1463,-1.146,-1.1518,-1.1525,-1.1538,-1.1565,-1.1599,-1.1616,-1.1616,-1.1616,-1.1616,-1.1616,-1.1616,-1.1616,-1.1616,-1.1616,-1.1616,-1.1616,-1.1616,-1.1616,-1.1616,-1.1616,-1.1616,-1.1616,-1.1616,-1.1616,-1.1616,-1.1616,-1.1616,-1.1616,-1.166,-1.1759,-1.1901,-1.2057,-1.2206,-1.2355,-1.2454,-1.2501,-1.2501,-1.2501,-1.2501,-1.2501,-1.2501,-1.2501,-1.2501,-1.2501,-1.2501,-1.2501,-1.2501,-1.2501,-1.2501,-1.2501,-1.2501,-1.2501,-1.2501,-1.2501,-1.2501,-1.2501,-1.2501,-1.2501,-1.2481,-1.2386,-1.2362,-1.2311,-1.2247,-1.2182,-1.2217,-1.2179,-1.2199,-1.2054,-1.1918,-1.1928,-1.1925,-1.1772,-1.1643,-1.1684,-1.1711,-1.166,-1.1626,-1.1623,-1.1616,-1.1616,-1.1616,-1.1616,-1.1616,-1.1616,-1.2817,-1.4081,-1.5844,-1.7739,-2.0259,-2.1878,-2.2366,-2.2585,-2.2791,-2.2866,-2.2866,-2.2859,-2.2859,-1.2968,-1.1094,-1.1009,-1.0927,-1.0768,-1.0823,-1.0863,-1.0734,-1.0727,-1.0809,-1.0938,-1.0887,-1.1043,-1.1141,-1.1172,-1.1272,-1.1216,-1.1282,-1.1284,-1.1369,-1.1416,-1.1491,-1.1565,-1.1606,-1.1616,-1.1616,-1.1616,-1.1616,-1.1616,-1.1616,-1.1616,-1.1616,-1.1616,-1.1616,-1.1616,-1.1616,-1.1616,-1.1616,-1.1616,-1.1616,-1.1616,-1.1616,-1.1616,-1.1616,-1.1616,-1.1616,-1.167,-1.1782,-1.1921,-1.2071,-1.2223,-1.2362,-1.2454,-1.2498,-1.2501,-1.2501,-1.2501,-1.2501,-1.2501,-1.2501,-1.2501,-1.2501,-1.2501,-1.2501,-1.2501,-1.2501,-1.2501,-1.2501,-1.2501,-1.2501,-1.2501,-1.2501,-1.2501,-1.2501,-1.2501,-1.2501,-1.2501,-1.2478,-1.2474,-1.243,-1.2359,-1.2308,-1.2298,-1.2315,-1.2274,-1.2121,-1.1962,-1.1823,-1.1806,-1.1728,-1.1626,-1.1626,-1.1643,-1.1633,-1.1616,-1.1616,-1.1616,-1.1616,-1.1616,-1.1616,-1.1616,-1.204,-1.3523,-1.5,-1.6479,-1.8584,-2.1245,-2.2366,-2.2722,-2.2866,-2.2866,-2.2866,-2.2866,-2.2859,-2.2799,-1.4415,-1.269,-1.262,-1.1869,-1.0794,-1.0768,-1.0758,-1.0724,-1.0721,-1.0755,-1.0725,-1.0836,-1.0965,-1.1016,-1.1118,-1.1214,-1.122,-1.1234,-1.1255,-1.1243,-1.1307,-1.1396,-1.1477,-1.1552,-1.1596,-1.1616,-1.1616,-1.1616,-1.1616,-1.1616,-1.1616,-1.1616,-1.1616,-1.1616,-1.1616,-1.1616,-1.1616,-1.1616,-1.1616,-1.1616,-1.1616,-1.1616,-1.1616,-1.1616,-1.1616,-1.1616,-1.166,-1.1837,-1.1976,-1.2074,-1.2308,-1.2467,-1.2484,-1.2501,-1.2501,-1.2501,-1.2501,-1.2501,-1.2501,-1.2501,-1.2501,-1.2501,-1.2501,-1.2501,-1.2501,-1.2501,-1.2501,-1.2501,-1.2501,-1.2501,-1.2501,-1.2501,-1.2501,-1.2501,-1.2501,-1.2501,-1.2501,-1.2501,-1.2501,-1.2484,-1.2416,-1.2413,-1.241,-1.2389,-1.2328,-1.2179,-1.202,-1.185,-1.1714,-1.1647,-1.1616,-1.1616,-1.1616,-1.1616,-1.1616,-1.1616,-1.1616,-1.1616,-1.1616,-1.1688,-1.1832,-1.2606,-1.4227,-1.6263,-1.8369,-2.0265,-2.2297,-2.2866,-2.2866,-2.2866,-2.2866,-2.2866,-2.2859,-2.2859,-2.2819,-1.5463,-1.4306,-1.3582,-1.2285,-1.085,-1.0721,-1.0721,-1.0721,-1.0721,-1.0721,-1.0734,-1.0816,-1.0789,-1.087,-1.0938,-1.0972,-1.0968,-1.0962,-1.0995,-1.1101,-1.1189,-1.129,-1.1382,-1.1484,-1.1555,-1.1589,-1.1616,-1.1616,-1.1616,-1.1616,-1.1616,-1.1616,-1.1616,-1.1616,-1.1616,-1.1616,-1.1616,-1.1616,-1.1616,-1.1616,-1.1616,-1.1616,-1.1616,-1.1616,-1.1616,-1.1616,-1.1633,-1.1843,-1.1925,-1.2037,-1.2284,-1.2393,-1.2444,-1.2501,-1.2501,-1.2501,-1.2501,-1.2501,-1.2501,-1.2501,-1.2501,-1.2501,-1.2501,-1.2501,-1.2501,-1.2501,-1.2501,-1.2501,-1.2501,-1.2501,-1.2501,-1.2501,-1.2501,-1.2501,-1.2501,-1.2501,-1.2501,-1.2501,-1.2501,-1.2501,-1.2491,-1.2491,-1.2478,-1.245,-1.2362,-1.2169,-1.202,-1.1887,-1.1745,-1.1636,-1.1616,-1.1616,-1.1616,-1.1616,-1.1616,-1.1616,-1.1616,-1.1616,-1.1616,-1.1688,-1.1972,-1.3381,-1.5208,-1.7874,-2.068,-2.2016,-2.2866,-2.2866,-2.2866,-2.2866,-2.2866,-2.2866,-2.2866,-2.2859,-2.2799,-1.6166,-1.5659,-1.404,-1.2413,-1.0979,-1.085,-1.0721,-1.0721,-1.0721,-1.0721,-1.0721,-1.0724,-1.0738,-1.0761,-1.0785,-1.0778,-1.0789,-1.0795,-1.0846,-1.087,-1.0931,-1.1121,-1.1297,-1.1396,-1.1504,-1.1579,-1.1616,-1.1616,-1.1616,-1.1616,-1.1616,-1.1616,-1.1616,-1.1616,-1.1616,-1.1616,-1.1616,-1.1616,-1.1616,-1.1616,-1.1616,-1.1616,-1.1616,-1.1616,-1.1616,-1.1619,-1.1626,-1.1684,-1.1762,-1.1948,-1.2179,-1.2223,-1.2372,-1.2498,-1.2498,-1.2501,-1.2501,-1.2501,-1.2501,-1.2501,-1.2501,-1.2501,-1.2501,-1.2501,-1.2501,-1.2501,-1.2501,-1.2501,-1.2501,-1.2501,-1.2501,-1.2501,-1.2501,-1.2501,-1.2501,-1.2501,-1.2501,-1.2501,-1.2501,-1.2501,-1.2501,-1.2491,-1.2423,-1.2379,-1.2254,-1.2101,-1.1982,-1.187,-1.1762,-1.1636,-1.1619,-1.1619,-1.1616,-1.1616,-1.1616,-1.1616,-1.1616,-1.1616,-1.1616,-1.2183,-1.2749,-1.4365,-1.6258,-1.9136,-2.1878,-2.2297,-2.2866,-2.2866,-2.2866,-2.2866,-2.2866,-2.2866,-2.2866,-2.2866,-2.2826,-1.5964,-1.5719,-1.4036,-1.2997,-1.2475,-1.124,-1.0721,-1.0721,-1.0721,-1.0721,-1.0721,-1.0721,-1.0721,-1.0721,-1.0721,-1.0721,-1.0721,-1.0721,-1.0741,-1.0752,-1.0813,-1.1009,-1.1216,-1.1321,-1.1453,-1.1572,-1.1616,-1.1616,-1.1616,-1.1616,-1.1616,-1.1616,-1.1616,-1.1616,-1.1616,-1.1616,-1.1616,-1.1616,-1.1616,-1.1616,-1.1616,-1.1616,-1.1616,-1.1616,-1.1616,-1.1616,-1.1643,-1.1725,-1.1789,-1.1891,-1.201,-1.2155,-1.2325,-1.244,-1.2494,-1.2501,-1.2501,-1.2501,-1.2501,-1.2501,-1.2501,-1.2501,-1.2501,-1.2501,-1.2501,-1.2501,-1.2501,-1.2501,-1.2501,-1.2501,-1.2501,-1.2501,-1.2501,-1.2501,-1.2501,-1.2501,-1.2501,-1.2501,-1.2501,-1.2501,-1.2501,-1.2447,-1.2379,-1.2274,-1.2135,-1.202,-1.1921,-1.182,-1.1731,-1.163,-1.163,-1.163,-1.1619,-1.1616,-1.1616,-1.1616,-1.1616,-1.176,-1.19,-1.2534,-1.3595,-1.591,-1.8363,-2.0611,-2.2722,-2.2866,-2.2866,-2.2866,-2.2866,-2.2866,-2.2866,-2.2866,-2.2866,-2.2866,-2.2839,-1.5913,-1.5659,-1.4036,-1.332,-1.2997,-1.1439,-1.0721,-1.0721,-1.0721,-1.0721,-1.0721,-1.0721,-1.0721,-1.0721,-1.0721,-1.0721,-1.0721,-1.0721,-1.0727,-1.0761,-1.0812,-1.0921,-1.107,-1.1223,-1.1358,-1.1487,-1.1589,-1.1616,-1.1616,-1.1616,-1.1616,-1.1616,-1.1616,-1.1616,-1.1616,-1.1616,-1.1616,-1.1616,-1.1616,-1.1616,-1.1616,-1.1616,-1.1616,-1.1616,-1.1616,-1.1616,-1.1636,-1.1711,-1.1762,-1.1884,-1.205,-1.2172,-1.2318,-1.2427,-1.2491,-1.2501,-1.2501,-1.2501,-1.2501,-1.2501,-1.2501,-1.2501,-1.2501,-1.2501,-1.2501,-1.2501,-1.2501,-1.2501,-1.2501,-1.2501,-1.2501,-1.2501,-1.2501,-1.2501,-1.2501,-1.2501,-1.2501,-1.2501,-1.2501,-1.2501,-1.2484,-1.244,-1.2372,-1.2311,-1.2159,-1.1969,-1.1867,-1.1796,-1.1704,-1.164,-1.164,-1.1633,-1.1623,-1.1616,-1.1616,-1.1616,-1.1616,-1.1832,-1.2255,-1.4441,-1.6263,-1.8299,-2.0473,-2.1947,-2.2866,-2.2866,-2.2866,-2.2866,-2.2866,-2.2866,-2.2866,-2.2866,-2.2866,-2.2866,-2.2853,-1.543,-1.5329,-1.4232,-1.3648,-1.3386,-1.1828,-1.1111,-1.1045,-1.0784,-1.0721,-1.0721,-1.0721,-1.0721,-1.0721,-1.0721,-1.0721,-1.0721,-1.0721,-1.0721,-1.0721,-1.0727,-1.0856,-1.0972,-1.1087,-1.1246,-1.1413,-1.1548,-1.1596,-1.1616,-1.1616,-1.1616,-1.1616,-1.1616,-1.1616,-1.1616,-1.1616,-1.1616,-1.1616,-1.1616,-1.1616,-1.1616,-1.1616,-1.1616,-1.1616,-1.1616,-1.1616,-1.1619,-1.1643,-1.1701,-1.1847,-1.204,-1.2166,-1.2288,-1.2389,-1.2474,-1.2501,-1.2501,-1.2501,-1.2501,-1.2501,-1.2501,-1.2501,-1.2501,-1.2501,-1.2501,-1.2501,-1.2501,-1.2501,-1.2501,-1.2501,-1.2501,-1.2501,-1.2501,-1.2501,-1.2501,-1.2501,-1.2501,-1.2501,-1.2501,-1.2501,-1.2471,-1.243,-1.2332,-1.2277,-1.2135,-1.1948,-1.183,-1.1772,-1.1714,-1.1674,-1.1653,-1.164,-1.1619,-1.1616,-1.1616,-1.176,-1.1756,-1.2678,-1.3523,-1.6404,-1.8793,-2.0196,-2.1383,-2.2229,-2.2866,-2.2866,-2.2866,-2.2866,-2.2866,-2.2866,-2.2866,-2.2866,-2.2866,-2.2866,-2.2866,-1.3574,-1.3905,-1.4884,-1.5394,-1.5074,-1.3517,-1.2804,-1.2545,-1.1306,-1.0721,-1.0721,-1.0721,-1.0721,-1.0721,-1.0721,-1.0721,-1.0721,-1.0721,-1.0721,-1.0721,-1.0721,-1.0752,-1.0847,-1.0995,-1.1158,-1.1331,-1.1497,-1.1592,-1.1575,-1.1589,-1.1616,-1.1616,-1.1616,-1.1616,-1.1616,-1.1616,-1.1616,-1.1616,-1.1616,-1.1616,-1.1616,-1.1616,-1.1616,-1.1616,-1.1616,-1.1616,-1.1619,-1.1616,-1.1633,-1.1738,-1.1928,-1.2067,-1.2203,-1.2338,-1.245,-1.2501,-1.2501,-1.2501,-1.2501,-1.2501,-1.2501,-1.2501,-1.2501,-1.2501,-1.2501,-1.2501,-1.2501,-1.2501,-1.2501,-1.2501,-1.2501,-1.2501,-1.2501,-1.2501,-1.2501,-1.2501,-1.2501,-1.2501,-1.2501,-1.2501,-1.2491,-1.2366,-1.2193,-1.2115,-1.2013,-1.1847,-1.1721,-1.1667,-1.1667,-1.166,-1.1591,-1.1643,-1.1619,-1.1616,-1.1616,-1.204,-1.2323,-1.3309,-1.4787,-1.7453,-1.9698,-2.1452,-2.251,-2.2791,-2.2866,-2.2866,-2.2866,-2.2866,-2.2866,-2.2866,-2.2866,-2.2866,-2.2866,-2.2866,-2.2866]},{"header":{"parameterUnit":"m.s-1","parameterCategory":1,"la1":31.0,"la2":29.5877,"lo1":-88.7671,"lo2":-86.6584,"dy":0.0162,"dx":0.0185,"nx":115,"ny":88,"refTime":"2024-09-02T18:00:00:Z","depth":0,"parameterNumber":3,"parameterNumberName":"V-component_of_WINDS"},"data":[0.0,0.0,0.0,0.0,0.0,0.0,0.0,0.0,0.0,0.0,0.0,0.0,0.0,0.0,0.0,0.0,0.0,0.0,0.0,0.0,0.0,0.0,0.0,0.0,0.0,0.0,0.0,0.0,0.0,0.0,0.0,0.0,0.0,0.0,0.0,0.0,0.0,0.0,0.0,0.0,0.0,0.0,0.0,0.0,0.0,0.0,0.0,0.0,0.0,0.0,0.0,0.0,0.0,0.0,0.0,0.0,0.0,0.0,0.0,0.0,0.0,0.0,0.0,0.0,0.0,0.0,0.0,0.0,0.0,0.0,0.0,0.0,0.0,0.0,0.0,0.0,0.0,0.0,0.0,0.0,0.0,0.0,0.0,0.0,0.0,0.0,0.0,0.0,0.0,0.0,0.0,0.0,0.0,0.0,0.0,0.0,0.0,0.0,0.0,0.0,0.0,0.0,0.0,0.0,0.0,0.0,0.0,0.0,0.0,0.0,0.0,0.0,0.0,0.0,0.0,0.0,0.0,0.0,0.0,0.0,0.0,0.0,0.0,0.0,0.0,0.0,0.0,0.0,0.0,0.0,0.0,0.0,0.0,0.0,0.0,0.0,0.0,0.0,0.0,0.0,0.0,0.0,0.0,0.0,0.0,0.0,0.0,0.0,0.0,0.0,0.0,0.0,0.0,0.0,0.0,0.0,0.0,0.0,0.0,0.0,0.0,0.0,0.0,0.0,0.0,0.0,0.0,0.0,0.0,0.0,0.0,0.0,0.0,0.0,0.0,0.0,0.0,0.0,0.0,0.0,0.0,0.0,0.0,0.0,0.0,0.0,0.0,0.0,0.0,0.0,0.0,0.0,0.0,0.0,0.0,0.0,0.0,0.0,0.0,0.0,0.0,0.0,0.0,0.0,0.0,0.0,0.0,0.0,0.0,0.0,0.0,0.0,0.0,0.0,0.0,0.0,0.0,0.0,0.0,0.0,0.0,0.0,0.0,0.0,0.0,0.0,0.0,0.0,0.0,0.0,0.0,0.0,0.0,0.0,0.0,0.0,0.0,0.0,0.0,0.0,0.0,0.0,0.0,0.0,0.0,0.0,0.0,0.0,0.0,0.0,0.0,0.0,0.0,0.0,0.0,0.0,0.0,0.0,0.0,0.0,0.0,0.0,0.0,0.0,0.0,0.0,0.0,0.0,0.0,0.0,0.0,0.0,0.0,0.0,0.0,0.0,0.0,0.0,0.0,0.0,0.0,0.0,0.0,0.0,0.0,0.0,0.0,0.0,0.0,0.0,0.0,0.0,0.0,0.0,0.0,0.0,0.0,0.0,0.0,0.0,0.0,0.0,0.0,0.0,0.0,0.0,0.0,0.0,0.0,0.0,0.0,0.0,0.0,0.0,0.0,0.0,0.0,0.0,0.0,0.0,0.0,0.0,0.0,0.0,0.0,0.0,0.0,0.0,0.0,0.0,0.0,0.0,0.0,0.0,0.0,0.0,0.0,0.0,0.0,0.0,0.0,0.0,0.0,0.0,0.0,0.0,0.0,0.0,0.0,0.0,0.0,0.0,0.0,0.0,0.0,0.0,0.0,0.0,0.0,0.0,0.0,0.0,0.0,0.0,0.0,0.0,0.0,0.0,0.0,0.0,0.0,0.0,0.0,0.0,0.0,0.0,0.0,0.0,0.0,0.0,0.0,0.0,0.0,0.0,0.0,0.0,0.0,0.0,0.0,0.0,0.0,0.0,0.0,0.0,0.0,0.0,0.0,0.0,0.0,0.0,0.0,0.0,0.0,0.0,0.0,0.0,0.0,0.0,0.0,0.0,0.0,0.0,0.0,0.0,0.0,0.0,0.0,0.0,0.0,0.0,0.0,0.0,0.0,0.0,0.0,0.0,0.0,0.0,0.0,0.0,0.0,0.0,0.0,0.0,0.0,0.0,0.0,0.0,0.0,0.0,0.0,0.0,0.0,0.0,0.0,0.0,0.0,0.0,0.0,0.0,0.0,0.0,0.0,0.0,0.0,0.0,0.0,0.0,0.0,0.0,0.0,0.0,0.0,0.0,0.0,0.0,0.0,0.0,0.0,0.0,0.0,0.0,0.0,0.0,0.0,0.0,0.0,0.0,0.0,0.0,0.0,0.0,0.0,0.0,0.0,0.0,0.0,0.0,0.0,0.0,0.0,0.0,0.0,0.0,0.0,0.0,0.0,0.0,0.0,0.0,0.0,0.0,0.0,0.0,0.0,0.0,0.0,0.0,0.0,0.0,0.0,0.0,0.0,0.0,0.0,0.0,0.0,0.0,0.0,0.0,0.0,0.0,0.0,0.0,0.0,0.0,0.0,0.0,0.0,0.0,0.0,0.0,0.0,0.0,0.0,0.0,0.0,0.0,0.0,0.0,0.0,0.0,0.0,0.0,0.0,0.0,0.0,0.0,0.0,0.0,0.0,0.0,0.0,0.0,0.0,0.0,0.0,0.0,0.0,0.0,0.0,0.0,0.0,0.0,0.0,0.0,0.0,0.0,0.0,0.0,0.0,0.0,0.0,0.0,0.0,0.0,0.0,0.0,0.0,0.0,0.0,0.0,0.0,0.0,0.0,0.0,0.0,0.0,0.0,0.0,0.0,0.0,0.0,0.0,0.0,0.0,0.0,0.0,0.0,0.0,0.0,0.0,0.0,0.0,0.0,0.0,0.0,0.0,0.0,0.0,0.0,0.0,0.0,0.0,0.0,0.0,0.0,0.0,0.0,0.0,0.0,0.0,0.0,0.0,0.0,0.0,0.0,0.0,0.0,0.0,0.0,0.0,0.0,0.0,0.0,0.0,0.0,0.0,0.0,0.0,0.0,0.0,0.0,0.0,0.0,0.0,0.0,0.0,0.0,0.0,0.0,0.0,0.0,0.0,0.0,0.0,0.0,0.0,0.0,0.0,0.0,0.0,0.0,0.0,0.0,0.0,0.0,0.0,0.0,0.0,0.0,0.0,0.0,0.0,0.0,0.0,0.0,0.0,0.0,0.0,0.0,0.0,0.0,0.0,0.0,0.0,0.0,0.0,0.0,0.0,0.0,0.0,0.0,0.0,0.0,0.0,0.0,0.0,0.0,0.0,0.0,0.0,0.0,0.0,0.0,0.0,0.0,0.0,0.0,0.0,0.0,0.0,0.0,0.0,0.0,0.0,0.0,0.0,0.0,0.0,0.0,0.0,0.0,0.0,0.0,0.0,0.0,0.0,0.0,0.0,0.0,0.0,0.0,0.0,0.0,0.0,0.0,0.0,0.0,0.0,0.0,0.0,0.0,0.0,0.0,0.0,0.0,0.0,0.0,0.0,0.0,0.0,0.0,0.0,0.0,0.0,0.0,0.0,0.0,0.0,0.0,0.0,0.0,0.0,0.0,0.0,0.0,0.0,0.0,0.0,0.0,0.0,0.0,0.0,0.0,0.0,0.0,0.0,0.0,0.0,0.0,0.0,0.0,0.0,0.0,0.0,0.0,0.0,0.0,0.0,0.0,0.0,0.0,0.0,0.0,0.0,0.0,0.0,0.0,0.0,0.0,0.0,0.0,0.0,0.0,0.0,0.0,0.0,0.0,0.0,0.0,0.0,0.0,0.0,0.0,0.0,0.0,0.0,0.0,0.0,0.0,0.0,0.0,0.0,0.0,0.0,0.0,0.0,0.0,0.0,0.0,0.0,0.0,0.0,0.0,0.0,0.0,0.0,0.0,0.0,0.0,0.0,0.0,0.0,0.0,0.0,0.0,0.0,0.0,0.0,0.0,0.0,0.0,0.0,0.0,0.0,0.0,0.0,0.0,0.0,0.0,0.0,0.0,0.0,0.0,0.0,0.0,0.0,0.0,0.0,0.0,0.0,0.0,0.0,0.0,0.0,0.0,0.0,0.0,0.0,0.0,0.0,0.0,0.0,0.0,0.0,0.0,0.0,0.0,0.0,0.0,0.0,0.0,0.0,0.0,0.0,0.0,0.0,0.0,0.0,0.0,0.0,0.0,0.0,0.0,0.0,0.0,0.0,0.0,0.0,0.0,0.0,0.0,0.0,0.0,0.0,0.0,0.0,0.0,0.0,0.0,0.0,0.0,0.0,0.0,0.0,0.0,0.0,0.0,0.0,0.0,0.0,0.0,0.0,0.0,0.0,0.0,0.0,0.0,0.0,0.0,0.0,0.0,0.0,0.0,0.0,0.0,0.0,0.0,0.0,0.0,0.0,0.0,0.0,0.0,0.0,0.0,0.0,0.0,0.0,0.0,0.0,0.0,0.0,0.0,0.0,4.0342,0.0,0.0,0.0,0.0,0.0,0.0,0.0,0.0,0.0,0.0,0.0,0.0,0.0,0.0,0.0,0.0,0.0,0.0,0.0,0.0,0.0,0.0,0.0,0.0,0.0,0.0,0.0,0.0,0.0,0.0,0.0,0.0,0.0,0.0,0.0,0.0,0.0,0.0,0.0,0.0,0.0,0.0,0.0,0.0,0.0,0.0,0.0,0.0,0.0,0.0,0.0,0.0,0.0,0.0,0.0,0.0,0.0,0.0,0.0,0.0,0.0,0.0,0.0,0.0,0.0,0.0,0.0,0.0,0.0,0.0,0.0,0.0,0.0,0.0,0.0,0.0,0.0,0.0,0.0,0.0,0.0,0.0,0.0,0.0,0.0,0.0,0.0,0.0,0.0,0.0,0.0,0.0,0.0,0.0,0.0,0.0,0.0,0.0,0.0,0.0,0.0,0.0,0.0,0.0,0.0,0.0,0.0,0.0,0.0,0.0,4.1905,4.1971,4.1886,4.1655,4.1258,0.0,0.0,0.0,0.0,0.0,0.0,0.0,0.0,0.0,0.0,0.0,0.0,0.0,0.0,0.0,0.0,0.0,0.0,0.0,0.0,0.0,0.0,0.0,0.0,0.0,0.0,0.0,0.0,0.0,0.0,0.0,0.0,0.0,0.0,0.0,0.0,0.0,0.0,0.0,0.0,0.0,0.0,0.0,0.0,0.0,0.0,0.0,0.0,0.0,0.0,0.0,0.0,0.0,0.0,0.0,0.0,0.0,0.0,0.0,0.0,0.0,0.0,0.0,0.0,0.0,0.0,0.0,0.0,0.0,0.0,0.0,0.0,0.0,0.0,0.0,0.0,0.0,0.0,0.0,0.0,0.0,0.0,0.0,0.0,0.0,0.0,0.0,0.0,0.0,0.0,0.0,0.0,0.0,0.0,0.0,0.0,0.0,0.0,0.0,0.0,0.0,0.0,0.0,0.0,0.0,0.0,0.0,0.0,0.0,0.0,0.0,0.0,4.2543,4.1907,4.1328,0.0,0.0,0.0,0.0,0.0,0.0,0.0,0.0,0.0,0.0,0.0,0.0,0.0,0.0,0.0,0.0,0.0,0.0,0.0,0.0,0.0,0.0,0.0,0.0,0.0,0.0,0.0,0.0,0.0,0.0,0.0,0.0,0.0,0.0,0.0,0.0,0.0,0.0,0.0,0.0,0.0,0.0,0.0,0.0,0.0,0.0,0.0,0.0,0.0,0.0,0.0,0.0,0.0,0.0,0.0,0.0,0.0,0.0,0.0,0.0,0.0,0.0,0.0,0.0,0.0,0.0,0.0,0.0,0.0,0.0,0.0,0.0,0.0,0.0,0.0,0.0,0.0,0.0,0.0,0.0,0.0,0.0,0.0,0.0,0.0,0.0,0.0,0.0,0.0,0.0,0.0,0.0,0.0,0.0,0.0,0.0,0.0,0.0,0.0,0.0,0.0,0.0,0.0,0.0,0.0,0.0,0.0,0.0,0.0,0.0,4.3122,4.3199,4.3122,0.0,3.9804,0.0,0.0,0.0,0.0,0.0,0.0,0.0,0.0,0.0,0.0,0.0,0.0,0.0,0.0,0.0,0.0,0.0,0.0,0.0,0.0,0.0,0.0,0.0,0.0,0.0,0.0,0.0,0.0,0.0,0.0,0.0,0.0,0.0,0.0,0.0,0.0,0.0,0.0,0.0,0.0,0.0,0.0,0.0,0.0,0.0,0.0,0.0,0.0,0.0,0.0,0.0,0.0,0.0,0.0,0.0,0.0,0.0,0.0,0.0,0.0,0.0,0.0,0.0,0.0,0.0,0.0,0.0,0.0,0.0,0.0,0.0,0.0,0.0,0.0,0.0,0.0,0.0,0.0,0.0,0.0,0.0,0.0,0.0,0.0,0.0,0.0,0.0,0.0,0.0,0.0,0.0,0.0,0.0,0.0,0.0,0.0,0.0,0.0,0.0,0.0,0.0,0.0,0.0,0.0,0.0,0.0,0.0,0.0,0.0,0.0,4.4318,4.4802,4.3853,4.2331,0.0,0.0,0.0,0.0,0.0,0.0,0.0,0.0,0.0,0.0,0.0,0.0,0.0,0.0,0.0,0.0,0.0,0.0,0.0,0.0,0.0,0.0,0.0,0.0,0.0,0.0,0.0,0.0,0.0,0.0,0.0,0.0,0.0,0.0,0.0,0.0,0.0,0.0,0.0,0.0,0.0,0.0,0.0,0.0,0.0,0.0,0.0,0.0,0.0,0.0,0.0,0.0,0.0,0.0,0.0,0.0,0.0,0.0,0.0,0.0,0.0,0.0,0.0,0.0,0.0,0.0,0.0,0.0,0.0,0.0,0.0,0.0,0.0,0.0,0.0,0.0,0.0,0.0,0.0,0.0,0.0,0.0,0.0,0.0,0.0,0.0,0.0,0.0,0.0,0.0,0.0,0.0,0.0,0.0,0.0,0.0,0.0,0.0,0.0,0.0,0.0,0.0,0.0,0.0,0.0,0.0,0.0,0.0,0.0,0.0,4.4232,4.4992,4.547,4.4189,4.2729,4.1214,0.0,0.0,0.0,0.0,0.0,0.0,0.0,0.0,0.0,0.0,0.0,0.0,0.0,0.0,0.0,0.0,0.0,0.0,0.0,0.0,0.0,0.0,0.0,0.0,0.0,0.0,0.0,0.0,0.0,0.0,0.0,0.0,0.0,0.0,0.0,0.0,0.0,0.0,0.0,0.0,0.0,0.0,0.0,0.0,0.0,0.0,0.0,0.0,0.0,0.0,0.0,0.0,0.0,0.0,0.0,0.0,0.0,0.0,0.0,0.0,0.0,0.0,0.0,0.0,0.0,0.0,0.0,0.0,0.0,0.0,0.0,0.0,0.0,0.0,0.0,0.0,0.0,0.0,0.0,0.0,0.0,0.0,0.0,0.0,0.0,0.0,0.0,0.0,0.0,0.0,0.0,0.0,0.0,0.0,0.0,0.0,0.0,0.0,0.0,0.0,0.0,0.0,0.0,0.0,0.0,0.0,0.0,0.0,0.0,4.4264,4.4722,4.4787,4.3933,4.3078,0.0,0.0,0.0,0.0,0.0,0.0,0.0,0.0,0.0,0.0,0.0,0.0,0.0,0.0,0.0,0.0,0.0,0.0,0.0,0.0,0.0,0.0,0.0,0.0,0.0,0.0,0.0,0.0,0.0,0.0,0.0,0.0,0.0,0.0,0.0,0.0,0.0,0.0,0.0,0.0,0.0,0.0,0.0,0.0,0.0,0.0,0.0,0.0,0.0,0.0,0.0,0.0,0.0,0.0,0.0,0.0,0.0,0.0,0.0,0.0,0.0,0.0,0.0,0.0,0.0,0.0,0.0,0.0,0.0,0.0,0.0,0.0,0.0,0.0,0.0,0.0,0.0,0.0,0.0,0.0,0.0,0.0,0.0,0.0,0.0,0.0,0.0,0.0,0.0,0.0,0.0,0.0,0.0,0.0,0.0,0.0,0.0,0.0,0.0,0.0,0.0,0.0,0.0,0.0,0.0,0.0,0.0,0.0,0.0,4.4283,4.5153,4.558,4.5549,4.428,4.3412,0.0,0.0,0.0,0.0,0.0,0.0,0.0,0.0,0.0,0.0,0.0,0.0,0.0,0.0,0.0,0.0,0.0,0.0,0.0,0.0,0.0,0.0,0.0,0.0,0.0,0.0,0.0,0.0,0.0,0.0,0.0,0.0,0.0,0.0,0.0,0.0,0.0,0.0,0.0,0.0,0.0,0.0,0.0,0.0,0.0,0.0,0.0,0.0,0.0,0.0,0.0,0.0,0.0,0.0,0.0,0.0,0.0,0.0,0.0,0.0,0.0,0.0,0.0,0.0,0.0,0.0,0.0,0.0,0.0,0.0,0.0,0.0,0.0,0.0,0.0,0.0,0.0,0.0,0.0,0.0,0.0,0.0,0.0,0.0,0.0,0.0,0.0,0.0,0.0,0.0,0.0,0.0,0.0,0.0,0.0,0.0,0.0,0.0,0.0,0.0,0.0,0.0,0.0,0.0,0.0,0.0,0.0,0.0,0.0,4.562,0.0,4.6555,0.0,4.5202,4.4196,0.0,0.0,0.0,0.0,0.0,0.0,0.0,0.0,0.0,0.0,0.0,0.0,0.0,0.0,0.0,0.0,0.0,0.0,0.0,0.0,0.0,0.0,0.0,0.0,0.0,0.0,0.0,0.0,0.0,0.0,0.0,0.0,0.0,0.0,0.0,0.0,0.0,0.0,0.0,0.0,0.0,0.0,0.0,0.0,0.0,0.0,0.0,0.0,0.0,0.0,0.0,0.0,0.0,0.0,0.0,0.0,0.0,0.0,0.0,0.0,0.0,0.0,0.0,0.0,0.0,0.0,0.0,0.0,0.0,0.0,0.0,0.0,0.0,0.0,0.0,0.0,0.0,0.0,0.0,0.0,0.0,0.0,0.0,0.0,0.0,0.0,0.0,0.0,0.0,0.0,0.0,0.0,0.0,0.0,0.0,0.0,0.0,0.0,0.0,0.0,0.0,0.0,0.0,0.0,0.0,0.0,0.0,0.0,4.4906,4.7333,4.7485,4.751,4.7493,4.6596,4.5375,0.0,0.0,0.0,0.0,0.0,0.0,0.0,0.0,0.0,0.0,0.0,0.0,0.0,0.0,0.0,0.0,0.0,0.0,0.0,0.0,0.0,0.0,0.0,0.0,0.0,0.0,0.0,0.0,0.0,0.0,0.0,0.0,0.0,0.0,0.0,0.0,0.0,0.0,0.0,0.0,0.0,0.0,0.0,0.0,0.0,0.0,0.0,0.0,0.0,0.0,0.0,0.0,0.0,0.0,0.0,0.0,0.0,0.0,0.0,0.0,0.0,0.0,0.0,0.0,0.0,0.0,0.0,0.0,0.0,0.0,0.0,0.0,0.0,0.0,0.0,0.0,0.0,0.0,0.0,0.0,0.0,0.0,0.0,0.0,0.0,0.0,0.0,0.0,0.0,0.0,0.0,0.0,0.0,0.0,0.0,0.0,0.0,0.0,0.0,0.0,0.0,0.0,0.0,0.0,0.0,0.0,0.0,0.0,0.0,4.7484,4.8091,4.8396,4.8351,4.7024,4.5739,0.0,0.0,0.0,0.0,0.0,0.0,0.0,0.0,0.0,0.0,0.0,0.0,0.0,0.0,0.0,0.0,0.0,0.0,0.0,0.0,0.0,0.0,0.0,0.0,0.0,0.0,0.0,0.0,0.0,0.0,0.0,0.0,0.0,0.0,0.0,0.0,0.0,0.0,0.0,0.0,0.0,0.0,0.0,0.0,0.0,0.0,0.0,0.0,0.0,0.0,0.0,0.0,0.0,0.0,0.0,0.0,0.0,0.0,0.0,0.0,0.0,0.0,0.0,0.0,0.0,0.0,0.0,0.0,0.0,0.0,0.0,0.0,0.0,0.0,0.0,0.0,0.0,0.0,0.0,0.0,0.0,0.0,0.0,0.0,0.0,0.0,0.0,0.0,0.0,0.0,0.0,0.0,0.0,0.0,0.0,0.0,0.0,0.0,0.0,0.0,0.0,0.0,0.0,0.0,0.0,0.0,0.0,0.0,0.0,4.8945,4.9487,4.9763,4.9773,4.8444,4.7022,4.5503,0.0,0.0,0.0,0.0,0.0,0.0,0.0,0.0,0.0,0.0,0.0,0.0,0.0,0.0,0.0,0.0,0.0,0.0,0.0,0.0,0.0,0.0,0.0,0.0,0.0,0.0,0.0,0.0,0.0,0.0,0.0,0.0,0.0,0.0,0.0,0.0,0.0,0.0,0.0,0.0,0.0,0.0,0.0,0.0,0.0,0.0,0.0,0.0,0.0,0.0,0.0,0.0,0.0,0.0,0.0,0.0,0.0,0.0,0.0,0.0,0.0,0.0,0.0,0.0,0.0,0.0,0.0,0.0,0.0,0.0,0.0,0.0,0.0,0.0,0.0,0.0,0.0,0.0,0.0,0.0,0.0,0.0,0.0,0.0,0.0,0.0,0.0,0.0,0.0,0.0,0.0,0.0,0.0,0.0,0.0,0.0,0.0,0.0,0.0,0.0,0.0,0.0,0.0,0.0,0.0,0.0,0.0,0.0,5.1522,5.1597,5.1595,5.1536,5.0638,4.8999,0.0,0.0,0.0,0.0,0.0,0.0,0.0,0.0,0.0,0.0,0.0,0.0,0.0,0.0,0.0,0.0,0.0,0.0,0.0,0.0,0.0,0.0,0.0,0.0,0.0,0.0,0.0,0.0,0.0,0.0,0.0,0.0,0.0,0.0,0.0,0.0,0.0,0.0,0.0,0.0,0.0,0.0,0.0,0.0,0.0,0.0,0.0,0.0,0.0,0.0,0.0,0.0,0.0,0.0,0.0,0.0,0.0,0.0,0.0,0.0,0.0,0.0,0.0,0.0,0.0,0.0,0.0,0.0,0.0,0.0,0.0,0.0,0.0,0.0,0.0,0.0,0.0,0.0,0.0,0.0,0.0,0.0,0.0,0.0,0.0,0.0,0.0,0.0,0.0,0.0,0.0,0.0,0.0,0.0,0.0,0.0,0.0,0.0,0.0,0.0,0.0,0.0,0.0,0.0,0.0,0.0,0.0,0.0,0.0,5.3261,5.3945,5.3964,5.332,5.1855,5.0175,0.0,0.0,0.0,0.0,0.0,0.0,0.0,0.0,0.0,0.0,0.0,0.0,0.0,0.0,0.0,0.0,0.0,0.0,0.0,0.0,0.0,0.0,0.0,0.0,0.0,0.0,0.0,0.0,0.0,0.0,0.0,0.0,0.0,0.0,0.0,0.0,0.0,0.0,0.0,0.0,0.0,0.0,0.0,0.0,0.0,0.0,0.0,0.0,0.0,0.0,0.0,0.0,0.0,0.0,0.0,0.0,0.0,0.0,0.0,0.0,0.0,0.0,0.0,0.0,0.0,0.0,0.0,0.0,0.0,0.0,0.0,0.0,0.0,0.0,0.0,0.0,0.0,0.0,0.0,0.0,0.0,0.0,0.0,0.0,0.0,0.0,0.0,0.0,0.0,0.0,0.0,0.0,0.0,0.0,0.0,0.0,0.0,0.0,0.0,0.0,0.0,0.0,0.0,0.0,0.0,0.0,0.0,0.0,5.2617,5.3984,5.5215,5.5605,5.5098,5.3047,5.1172,0.0,0.0,0.0,0.0,0.0,0.0,0.0,0.0,0.0,0.0,0.0,0.0,0.0,0.0,0.0,0.0,0.0,0.0,0.0,0.0,0.0,0.0,0.0,0.0,0.0,0.0,0.0,0.0,0.0,0.0,0.0,0.0,0.0,0.0,0.0,0.0,0.0,0.0,0.0,0.0,0.0,0.0,0.0,0.0,0.0,0.0,0.0,0.0,0.0,0.0,0.0,0.0,0.0,0.0,0.0,0.0,0.0,0.0,0.0,0.0,0.0,0.0,0.0,0.0,0.0,0.0,0.0,0.0,0.0,0.0,0.0,0.0,0.0,0.0,0.0,0.0,0.0,0.0,0.0,0.0,0.0,0.0,0.0,0.0,0.0,0.0,0.0,0.0,0.0,0.0,0.0,0.0,0.0,0.0,0.0,0.0,0.0,0.0,0.0,0.0,0.0,0.0,0.0,0.0,0.0,0.0,0.0,0.0,5.3262,5.4121,5.5742,5.6601,5.6543,5.416,5.2031,0.0,0.0,0.0,0.0,0.0,0.0,0.0,0.0,0.0,0.0,0.0,0.0,0.0,0.0,0.0,0.0,0.0,0.0,0.0,0.0,0.0,0.0,0.0,0.0,0.0,0.0,0.0,0.0,0.0,0.0,0.0,0.0,0.0,0.0,0.0,0.0,0.0,0.0,0.0,0.0,0.0,0.0,0.0,0.0,0.0,0.0,0.0,0.0,0.0,0.0,0.0,0.0,0.0,0.0,0.0,0.0,0.0,0.0,0.0,0.0,0.0,0.0,0.0,0.0,0.0,0.0,0.0,0.0,0.0,0.0,0.0,0.0,0.0,0.0,0.0,0.0,0.0,0.0,0.0,0.0,0.0,0.0,0.0,0.0,0.0,0.0,0.0,0.0,0.0,0.0,0.0,0.0,0.0,0.0,0.0,0.0,0.0,0.0,0.0,0.0,0.0,0.0,0.0,0.0,0.0,0.0,0.0,0.0,5.4141,5.5,5.6055,5.6621,5.6582,5.4726,5.291,0.0,0.0,0.0,0.0,0.0,0.0,0.0,0.0,0.0,0.0,0.0,0.0,0.0,0.0,0.0,0.0,0.0,0.0,0.0,0.0,0.0,0.0,0.0,0.0,0.0,0.0,0.0,0.0,0.0,0.0,0.0,0.0,0.0,0.0,0.0,0.0,0.0,0.0,0.0,0.0,0.0,0.0,0.0,0.0,0.0,0.0,0.0,0.0,4.8939,0.0,0.0,0.0,0.0,0.0,0.0,0.0,0.0,0.0,0.0,0.0,0.0,0.0,0.0,0.0,0.0,0.0,0.0,0.0,0.0,0.0,0.0,0.0,0.0,0.0,0.0,0.0,0.0,0.0,0.0,0.0,0.0,0.0,0.0,0.0,0.0,0.0,0.0,0.0,0.0,0.0,0.0,0.0,0.0,0.0,0.0,0.0,0.0,0.0,0.0,0.0,0.0,0.0,0.0,0.0,0.0,0.0,0.0,0.0,5.4414,5.5293,5.6152,5.6621,5.6562,5.5293,5.3613,0.0,0.0,0.0,0.0,0.0,0.0,0.0,0.0,0.0,0.0,0.0,0.0,0.0,0.0,0.0,0.0,0.0,0.0,0.0,0.0,0.0,0.0,0.0,0.0,0.0,0.0,0.0,0.0,0.0,0.0,0.0,0.0,0.0,0.0,0.0,0.0,0.0,0.0,0.0,0.0,0.0,0.0,0.0,0.0,0.0,0.0,0.0,0.0,0.0,0.0,0.0,0.0,0.0,0.0,0.0,0.0,0.0,0.0,0.0,0.0,0.0,0.0,0.0,0.0,0.0,0.0,0.0,0.0,0.0,0.0,0.0,0.0,0.0,0.0,0.0,0.0,0.0,0.0,0.0,0.0,0.0,0.0,0.0,0.0,0.0,0.0,0.0,0.0,0.0,0.0,0.0,0.0,0.0,0.0,0.0,0.0,0.0,0.0,0.0,0.0,0.0,0.0,0.0,0.0,0.0,0.0,0.0,5.2773,5.4492,5.5469,5.6211,5.6621,5.6582,5.5762,5.4062,5.1504,0.0,0.0,0.0,0.0,0.0,0.0,0.0,0.0,0.0,0.0,0.0,0.0,0.0,0.0,0.0,0.0,0.0,0.0,0.0,0.0,0.0,0.0,0.0,0.0,0.0,0.0,0.0,0.0,0.0,0.0,0.0,0.0,0.0,0.0,0.0,0.0,0.0,0.0,4.3668,4.6348,0.0,0.0,0.0,0.0,0.0,0.0,0.0,0.0,5.1046,0.0,0.0,0.0,0.0,0.0,0.0,0.0,0.0,0.0,0.0,0.0,0.0,0.0,0.0,0.0,0.0,0.0,0.0,0.0,0.0,0.0,0.0,0.0,0.0,0.0,0.0,0.0,0.0,0.0,0.0,0.0,0.0,0.0,0.0,0.0,0.0,0.0,0.0,0.0,0.0,0.0,0.0,0.0,0.0,0.0,0.0,0.0,0.0,0.0,0.0,0.0,0.0,0.0,0.0,0.0,0.0,5.1172,5.3047,5.4765,5.6348,5.6523,5.6621,5.6582,5.5762,5.4082,5.1523,0.0,0.0,0.0,0.0,0.0,0.0,0.0,0.0,0.0,0.0,0.0,0.0,0.0,0.0,0.0,0.0,0.0,0.0,0.0,0.0,0.0,0.0,0.0,0.0,0.0,0.0,0.0,0.0,0.0,0.0,0.0,0.0,0.0,0.0,0.0,0.0,0.0,0.0,0.0,4.8685,5.1117,0.0,0.0,0.0,0.0,0.0,0.0,0.0,0.0,5.1831,0.0,0.0,0.0,0.0,0.0,0.0,0.0,0.0,0.0,0.0,0.0,0.0,0.0,0.0,0.0,0.0,0.0,0.0,0.0,0.0,0.0,0.0,0.0,0.0,0.0,0.0,0.0,0.0,0.0,0.0,0.0,0.0,0.0,0.0,0.0,0.0,0.0,0.0,0.0,0.0,0.0,0.0,0.0,0.0,0.0,0.0,0.0,0.0,0.0,0.0,0.0,0.0,0.0,0.0,0.0,5.2031,5.3808,5.5293,5.6562,5.6621,5.6621,5.6582,5.5742,5.4062,0.0,0.0,0.0,0.0,0.0,0.0,0.0,0.0,0.0,0.0,0.0,0.0,0.0,0.0,0.0,0.0,0.0,0.0,0.0,0.0,0.0,0.0,0.0,0.0,0.0,0.0,0.0,0.0,0.0,0.0,0.0,0.0,0.0,0.0,0.0,0.0,0.0,0.0,0.0,0.0,5.0502,5.2568,5.3858,0.0,0.0,0.0,0.0,0.0,0.0,5.3294,5.2882,0.0,0.0,0.0,0.0,0.0,0.0,0.0,0.0,0.0,0.0,0.0,0.0,0.0,0.0,0.0,0.0,0.0,0.0,0.0,0.0,0.0,0.0,0.0,0.0,0.0,0.0,0.0,0.0,0.0,0.0,0.0,0.0,0.0,0.0,0.0,0.0,0.0,0.0,0.0,0.0,0.0,0.0,0.0,0.0,0.0,0.0,0.0,0.0,0.0,0.0,0.0,0.0,0.0,0.0,0.0,5.2695,5.4414,5.5723,5.6562,5.6621,5.6621,5.6582,5.5605,5.3906,0.0,0.0,0.0,0.0,0.0,0.0,0.0,0.0,0.0,0.0,0.0,0.0,0.0,0.0,0.0,0.0,0.0,0.0,0.0,0.0,0.0,0.0,0.0,0.0,0.0,0.0,0.0,0.0,0.0,0.0,0.0,0.0,0.0,0.0,0.0,0.0,0.0,0.0,0.0,0.0,0.0,5.3847,5.5585,5.5682,0.0,0.0,0.0,0.0,5.4257,5.4256,0.0,0.0,0.0,0.0,0.0,0.0,0.0,0.0,0.0,0.0,0.0,0.0,0.0,0.0,0.0,0.0,0.0,0.0,0.0,0.0,0.0,0.0,0.0,0.0,0.0,0.0,0.0,0.0,0.0,0.0,0.0,0.0,0.0,0.0,0.0,0.0,0.0,0.0,0.0,0.0,0.0,0.0,0.0,0.0,0.0,0.0,0.0,0.0,0.0,0.0,0.0,0.0,0.0,0.0,0.0,0.0,5.2695,5.4433,5.5723,5.6562,5.6621,5.6621,5.6582,5.5019,5.3281,0.0,0.0,0.0,0.0,0.0,0.0,0.0,0.0,0.0,0.0,0.0,0.0,0.0,0.0,0.0,0.0,0.0,0.0,0.0,0.0,0.0,0.0,0.0,0.0,0.0,0.0,0.0,0.0,0.0,0.0,0.0,0.0,0.0,0.0,0.0,0.0,0.0,0.0,0.0,0.0,0.0,5.5624,5.7362,5.695,5.642,0.0,0.0,5.5151,5.515,5.5155,0.0,0.0,0.0,0.0,0.0,0.0,0.0,0.0,0.0,0.0,0.0,0.0,0.0,0.0,0.0,0.0,0.0,0.0,0.0,0.0,0.0,0.0,0.0,0.0,0.0,0.0,0.0,0.0,0.0,0.0,0.0,0.0,0.0,0.0,0.0,0.0,0.0,0.0,0.0,0.0,0.0,0.0,0.0,0.0,0.0,0.0,0.0,0.0,0.0,0.0,0.0,0.0,0.0,0.0,0.0,5.1719,5.3418,5.5156,5.6211,5.6601,5.6621,5.6621,5.6601,5.4922,5.3183,0.0,0.0,0.0,0.0,0.0,0.0,0.0,0.0,0.0,0.0,0.0,0.0,0.0,0.0,0.0,0.0,0.0,0.0,0.0,0.0,0.0,0.0,0.0,0.0,0.0,0.0,0.0,0.0,0.0,0.0,0.0,0.0,0.0,0.0,0.0,0.0,0.0,0.0,0.0,0.0,0.0,0.0,5.7637,5.8217,0.0,0.0,0.0,5.7138,5.667,0.0,0.0,0.0,0.0,0.0,0.0,0.0,0.0,0.0,0.0,0.0,0.0,0.0,0.0,0.0,0.0,0.0,0.0,0.0,0.0,0.0,0.0,0.0,0.0,0.0,0.0,0.0,0.0,0.0,0.0,0.0,0.0,0.0,0.0,0.0,0.0,0.0,0.0,0.0,0.0,0.0,0.0,0.0,0.0,0.0,0.0,0.0,0.0,0.0,0.0,0.0,0.0,0.0,0.0,0.0,0.0,0.0,5.3965,5.5508,5.6367,5.6582,5.6621,5.6504,5.625,5.459,0.0,0.0,0.0,0.0,0.0,0.0,0.0,0.0,0.0,0.0,0.0,0.0,0.0,0.0,0.0,0.0,0.0,0.0,0.0,0.0,0.0,0.0,0.0,0.0,0.0,0.0,0.0,3.959,0.0,0.0,0.0,0.0,0.0,0.0,0.0,0.0,0.0,0.0,0.0,0.0,0.0,0.0,5.7672,5.7863,5.9133,5.9829,0.0,0.0,5.8481,5.7688,5.6966,5.6138,0.0,0.0,0.0,0.0,0.0,0.0,0.0,0.0,0.0,0.0,0.0,0.0,0.0,0.0,0.0,0.0,0.0,0.0,0.0,0.0,0.0,0.0,0.0,0.0,0.0,0.0,0.0,0.0,0.0,0.0,0.0,0.0,0.0,0.0,0.0,0.0,0.0,0.0,0.0,0.0,0.0,0.0,0.0,0.0,0.0,0.0,0.0,0.0,0.0,0.0,0.0,0.0,0.0,0.0,0.0,5.3926,5.4922,5.5781,5.6562,5.6621,5.6211,5.539,5.3691,5.2012,0.0,0.0,0.0,0.0,0.0,0.0,0.0,0.0,0.0,0.0,0.0,0.0,0.0,0.0,0.0,0.0,0.0,0.0,0.0,0.0,0.0,0.0,0.0,0.0,0.0,0.0,0.0,0.0,0.0,0.0,0.0,0.0,0.0,0.0,0.0,0.0,0.0,0.0,0.0,0.0,0.0,5.7877,5.8615,5.9399,5.9898,0.0,0.0,5.8402,5.7541,5.7364,5.6775,5.5166,0.0,0.0,0.0,0.0,0.0,0.0,0.0,0.0,0.0,0.0,0.0,0.0,0.0,0.0,0.0,0.0,0.0,0.0,0.0,0.0,0.0,0.0,0.0,0.0,0.0,0.0,0.0,0.0,0.0,0.0,0.0,0.0,0.0,0.0,0.0,0.0,0.0,0.0,0.0,0.0,0.0,0.0,0.0,0.0,0.0,0.0,0.0,0.0,0.0,0.0,0.0,0.0,0.0,5.1445,5.3965,5.4844,5.5723,5.6562,5.6621,5.6445,5.6113,5.4394,5.2949,0.0,0.0,0.0,0.0,0.0,0.0,0.0,0.0,0.0,0.0,0.0,0.0,0.0,0.0,0.0,0.0,0.0,0.0,0.0,0.0,0.0,0.0,0.0,0.0,0.0,0.0,0.0,0.0,4.6034,4.738,4.7352,0.0,0.0,0.0,0.0,0.0,0.0,0.0,0.0,0.0,0.0,5.8436,5.9243,6.0013,0.0,0.0,6.0247,5.9589,5.8235,5.7529,5.6775,5.5686,5.4622,0.0,0.0,0.0,0.0,0.0,0.0,0.0,0.0,0.0,0.0,0.0,0.0,0.0,0.0,0.0,0.0,0.0,0.0,0.0,0.0,0.0,0.0,0.0,0.0,0.0,0.0,0.0,0.0,0.0,0.0,0.0,0.0,0.0,0.0,0.0,0.0,0.0,0.0,0.0,0.0,0.0,0.0,0.0,0.0,0.0,0.0,0.0,0.0,0.0,0.0,0.0,0.0,5.1191,5.3965,5.4609,5.5469,5.6582,5.6621,5.6484,5.6191,5.4785,5.3476,0.0,0.0,0.0,0.0,0.0,0.0,0.0,0.0,0.0,0.0,0.0,0.0,0.0,0.0,0.0,0.0,0.0,0.0,0.0,0.0,0.0,0.0,0.0,0.0,0.0,0.0,0.0,0.0,4.7788,4.9052,4.951,0.0,0.0,0.0,0.0,0.0,0.0,0.0,0.0,0.0,0.0,5.9331,5.9626,6.0357,6.0886,6.0867,6.0655,5.998,5.8583,5.7595,5.6746,5.5991,0.0,0.0,0.0,0.0,0.0,0.0,0.0,0.0,0.0,0.0,0.0,0.0,0.0,0.0,0.0,0.0,0.0,0.0,0.0,0.0,0.0,0.0,0.0,0.0,0.0,0.0,0.0,0.0,0.0,0.0,4.3691,0.0,0.0,0.0,0.0,0.0,0.0,0.0,0.0,0.0,0.0,0.0,0.0,0.0,0.0,0.0,0.0,0.0,0.0,0.0,0.0,0.0,0.0,5.0625,5.3906,5.4023,5.4863,5.6484,5.6601,5.6172,5.5351,5.4453,5.3183,5.1465,0.0,0.0,0.0,0.0,0.0,0.0,0.0,0.0,0.0,0.0,0.0,0.0,0.0,0.0,0.0,0.0,0.0,0.0,0.0,0.0,0.0,0.0,0.0,0.0,0.0,0.0,4.8577,4.8772,4.9481,0.0,0.0,0.0,0.0,0.0,0.0,0.0,0.0,0.0,0.0,5.9872,6.0533,5.9746,6.0307,6.0812,6.0793,6.0119,5.9281,5.8454,5.7588,5.6725,0.0,0.0,0.0,0.0,0.0,0.0,0.0,0.0,0.0,0.0,0.0,0.0,0.0,0.0,0.0,0.0,0.0,0.0,0.0,0.0,0.0,0.0,0.0,0.0,0.0,0.0,0.0,4.7461,4.7949,0.0,0.0,0.0,0.0,0.0,0.0,0.0,0.0,0.0,0.0,0.0,5.0605,5.1738,0.0,0.0,0.0,0.0,0.0,0.0,0.0,0.0,0.0,0.0,0.0,0.0,5.0879,5.3047,5.3711,5.4277,5.4863,5.543,5.5586,5.5293,5.3906,5.2344,5.0664,0.0,0.0,0.0,0.0,0.0,0.0,0.0,0.0,0.0,0.0,0.0,0.0,0.0,0.0,0.0,0.0,0.0,0.0,0.0,0.0,0.0,0.0,0.0,0.0,0.0,4.9463,0.0,0.0,0.0,0.0,0.0,0.0,0.0,0.0,0.0,0.0,0.0,5.8634,5.9959,6.0071,6.0121,6.0354,6.0639,6.08,0.0,0.0,0.0,0.0,0.0,0.0,0.0,0.0,0.0,0.0,0.0,0.0,0.0,0.0,5.5825,5.5545,5.5381,5.5317,5.5284,0.0,0.0,0.0,0.0,0.0,0.0,0.0,0.0,0.0,0.0,0.0,0.0,0.0,0.0,4.9941,0.0,4.9609,0.0,0.0,0.0,0.0,0.0,0.0,0.0,0.0,5.1523,5.2305,5.2363,5.3789,5.4004,0.0,5.2578,5.1582,0.0,0.0,0.0,0.0,0.0,0.0,0.0,0.0,5.1152,5.3086,5.3711,5.4297,5.4883,5.5156,5.5293,5.5273,5.3906,5.2363,5.0664,5.0605,4.9804,0.0,0.0,0.0,0.0,0.0,0.0,0.0,0.0,0.0,0.0,0.0,0.0,0.0,0.0,0.0,0.0,0.0,0.0,0.0,0.0,0.0,0.0,0.0,5.1282,0.0,0.0,0.0,0.0,0.0,0.0,0.0,0.0,0.0,5.8684,5.9312,6.0129,6.1177,6.0814,6.0558,6.0773,0.0,0.0,0.0,0.0,0.0,0.0,0.0,5.8404,5.7524,5.746,5.7399,5.7153,5.792,5.8441,5.8121,0.0,0.0,5.6874,5.6593,5.6519,5.6538,5.6071,5.5678,5.5697,5.566,5.5678,0.0,0.0,0.0,0.0,0.0,0.0,0.0,0.0,5.1562,5.1113,0.0,5.0371,0.0,0.0,0.0,0.0,0.0,4.998,0.0,0.0,5.3223,5.4043,5.4082,5.4961,5.4922,5.4121,5.4082,5.3633,5.2676,5.0293,0.0,0.0,0.0,0.0,0.0,0.0,5.1484,5.3828,5.3926,5.4765,5.6348,5.5625,5.5195,5.5156,5.4394,5.3164,5.1543,5.1426,5.0663,4.9039,4.8857,0.0,0.0,0.0,0.0,0.0,0.0,0.0,0.0,0.0,0.0,0.0,0.0,0.0,0.0,0.0,0.0,0.0,0.0,0.0,0.0,5.1386,0.0,0.0,0.0,0.0,0.0,0.0,0.0,0.0,0.0,0.0,6.1128,6.1692,6.2151,6.2132,0.0,0.0,0.0,0.0,6.08,6.08,6.08,6.0512,5.9685,5.9511,5.9212,5.8431,0.0,0.0,5.8972,5.9541,5.9594,5.8717,5.905,5.8906,5.6769,5.6395,5.6334,5.6316,5.6316,5.6279,5.626,5.6316,5.6316,5.4101,0.0,0.0,0.0,0.0,5.3437,5.3965,5.5058,5.4453,5.3691,5.291,5.291,0.0,0.0,0.0,0.0,0.0,0.0,5.3027,5.332,5.4394,5.4922,5.498,5.6445,5.6699,5.5859,5.584,5.539,5.4531,5.3203,5.1914,5.0723,0.0,0.0,0.0,0.0,5.1719,5.2988,5.3066,5.3613,5.4726,5.3906,5.3395,5.3311,5.3682,5.3291,5.2083,5.204,5.1546,5.0455,4.977,0.0,0.0,0.0,0.0,0.0,0.0,0.0,0.0,0.0,0.0,0.0,0.0,0.0,0.0,0.0,0.0,0.0,0.0,0.0,5.1273,5.1884,5.2941,0.0,0.0,0.0,0.0,0.0,0.0,0.0,0.0,0.0,6.275,6.2864,6.2947,0.0,0.0,6.1793,6.0916,6.08,6.08,6.08,6.08,0.0,6.0473,5.9915,5.9283,5.8683,5.8113,5.8127,5.9299,5.9442,5.9347,5.9039,5.9159,5.8924,5.7814,5.7523,5.7464,5.7501,5.7479,5.7501,5.7479,5.746,5.746,5.7637,5.5742,5.5625,5.5644,5.5781,5.5605,5.5937,5.6562,5.6055,5.5332,5.4512,5.4512,5.375,5.248,5.2969,0.0,0.0,0.0,5.4355,5.5058,5.5566,5.5801,5.5918,5.7246,5.7441,5.664,5.6621,5.6152,5.5293,5.4765,5.3808,5.248,0.0,0.0,5.2402,5.209,5.2344,5.3144,5.2891,5.3125,5.3984,5.3102,5.2415,5.1989,5.2749,5.2918,5.2334,5.2315,5.2057,5.1535,5.0684,4.9924,0.0,0.0,0.0,0.0,0.0,0.0,0.0,0.0,0.0,0.0,0.0,4.9355,4.9374,0.0,0.0,0.0,5.0297,5.1468,5.2453,5.3465,0.0,0.0,0.0,0.0,0.0,0.0,0.0,6.1201,6.2794,6.3892,6.388,6.4133,6.4205,6.3858,6.282,6.1908,6.1377,0.0,6.08,6.08,6.08,6.08,6.0781,6.0358,5.9798,5.9079,5.8514,5.8266,5.884,5.9108,5.9098,5.8836,5.8964,5.8951,5.8162,5.7978,5.7978,5.7978,5.7978,5.7978,5.7978,5.7978,5.7978,6.0508,6.0371,5.8848,5.7695,5.6992,5.7695,5.75,5.6699,5.6621,5.6113,5.5312,5.5293,5.4863,5.4101,5.418,0.0,5.5488,5.4746,5.5273,5.668,5.6699,5.666,5.664,5.748,5.7441,5.6621,5.666,5.625,5.5449,5.541,5.5,5.4238,5.4199,5.414,5.3965,5.3125,5.3125,5.3945,5.3047,5.2949,5.3729,5.2942,5.2054,5.1234,5.1915,5.228,5.2258,5.2269,5.225,5.2161,5.1386,5.0261,4.8716,0.0,0.0,0.0,0.0,0.0,0.0,0.0,0.0,0.0,0.0,0.0,0.0,0.0,0.0,0.0,5.2993,0.0,5.3683,5.588,0.0,0.0,0.0,6.0513,6.2125,6.2345,6.2632,6.3319,0.0,0.0,6.4621,6.5359,6.5609,6.4801,6.3301,6.2293,6.2216,6.1485,6.0896,6.0954,6.0839,6.08,6.08,6.0688,6.0334,5.9519,5.9372,5.8952,5.8286,5.8584,5.8749,5.818,5.8621,5.8872,5.8125,5.7978,5.7978,5.7978,5.7978,5.7978,5.7978,5.7978,5.7978,6.1387,6.1348,6.0957,6.0293,5.9453,5.9043,5.8398,5.7558,5.6875,5.6113,5.5293,5.5293,5.5176,5.5019,5.5683,5.6445,5.7285,5.7754,5.7812,5.7598,5.7578,5.7246,5.666,5.75,5.7441,5.668,5.7285,5.7148,5.6308,5.6289,5.6171,5.5991,5.5928,5.5266,5.4022,5.3141,5.3093,5.3828,5.2333,5.1628,5.1803,5.215,5.2188,5.1863,5.2057,5.2082,5.2015,5.1987,5.1726,5.1108,5.0889,5.0591,5.0184,4.9698,0.0,0.0,0.0,0.0,0.0,0.0,0.0,0.0,0.0,5.1982,5.2647,0.0,5.3849,0.0,5.4262,5.5917,5.7819,5.8561,0.0,0.0,6.1408,6.1936,6.3003,6.3661,6.3856,6.3363,6.4672,6.5352,6.4686,6.5359,6.584,6.559,6.4666,6.3762,6.3108,6.232,6.1793,6.1697,6.1216,6.08,6.0769,6.0495,6.0069,5.9511,5.9121,5.8673,5.8097,5.8143,5.8217,5.8033,5.8125,5.818,5.8015,5.7978,5.7978,5.7978,5.7978,5.7978,5.7978,5.7978,5.7978,6.1699,6.1699,6.1699,6.1191,6.0351,5.9922,5.9258,5.8418,5.7539,5.6894,5.6445,5.6055,5.5879,5.5937,5.6797,5.7656,5.8457,5.8594,5.8574,5.8437,5.7676,5.707,5.6621,5.709,5.707,5.6621,5.709,5.7049,5.6532,5.6512,5.6499,5.6419,5.6371,5.59,5.4992,5.4172,5.3972,5.4349,5.2645,5.1507,5.1041,5.1449,5.1599,5.1479,5.1462,5.1613,5.1875,5.1558,5.1337,5.1221,5.0894,5.051,5.0163,5.0385,5.0366,0.0,0.0,0.0,0.0,0.0,0.0,0.0,0.0,0.0,0.0,0.0,5.6684,5.6588,5.7434,5.8858,6.0993,6.1185,6.1889,6.3599,6.344,6.3544,6.4427,6.4903,6.4993,6.4512,6.532,6.5724,6.5263,6.5609,6.5878,6.5878,6.5474,6.4724,6.3493,6.2608,6.1966,6.1562,6.1108,6.08,6.08,6.0411,5.995,5.9475,5.9009,5.8528,5.8074,5.7978,5.7978,5.7978,5.7978,5.7978,5.7978,5.7978,5.7978,5.7978,5.7978,5.7978,5.7978,5.7978,5.7978,6.1699,6.1699,6.1699,6.1269,6.0566,6.0566,6.0039,5.916,5.8379,5.8066,5.8008,5.7265,5.6933,5.6992,5.7832,5.8633,5.9297,5.8574,5.8574,5.9082,5.7519,5.6699,5.6621,5.6621,5.6582,5.6581,5.6581,5.6492,5.6377,5.6374,5.6313,5.6186,5.6175,5.6178,5.6148,5.5536,5.5087,5.4873,5.3322,5.2064,5.12,5.12,5.1131,5.1049,5.101,5.1337,5.2019,5.1395,5.1337,5.1981,5.1375,5.0664,4.9971,5.1279,5.1818,0.0,5.2568,0.0,0.0,0.0,0.0,0.0,0.0,0.0,0.0,5.8434,6.0185,6.1031,6.1204,6.1916,6.3493,6.3647,6.4243,6.5667,6.5205,6.5051,6.5801,6.5878,6.5878,6.5878,6.5878,6.5878,6.5859,6.5878,6.5878,6.5878,6.5859,6.5243,6.3782,6.282,6.2012,6.1089,6.0858,6.08,6.0757,6.0411,5.995,5.9458,5.9009,5.8528,5.807,5.7978,5.7978,5.7978,5.7978,5.7978,5.7978,5.7978,5.7978,5.7978,5.7978,5.7978,5.7978,5.7978,5.7978,6.1699,6.1699,6.1699,6.1621,6.1445,6.1445,6.0605,5.918,5.9023,5.8965,5.8926,5.8789,5.8711,5.8769,5.957,6.0019,6.0156,6.0,5.9668,5.918,5.8125,5.7265,5.6621,5.6621,5.6538,5.645,5.6428,5.6374,5.6232,5.6232,5.6197,5.6116,5.613,5.6102,5.6029,0.0,0.0,0.0,5.3275,5.2964,5.2772,5.2772,5.2752,5.2722,5.2741,0.0,5.2953,5.2799,5.2799,5.2933,5.2799,0.0,0.0,0.0,0.0,0.0,0.0,0.0,0.0,0.0,0.0,0.0,5.9531,5.955,5.8896,6.0512,6.1935,6.2762,6.3474,6.4301,6.5301,6.5416,6.5532,6.582,6.5743,6.5724,6.5878,6.5878,6.5878,6.5878,6.5878,6.5878,6.5878,6.5878,6.5878,6.5878,6.5878,6.5474,6.4474,6.3551,6.2762,6.1985,6.1204,6.0819,6.08,6.0378,5.9901,5.9475,5.9009,5.8528,5.8097,5.7978,5.7978,5.7978,5.7978,5.7978,5.7978,5.7978,5.7978,5.7978,5.7978,5.7978,5.7978,5.7978,5.7978,6.2715,0.0,6.2344,6.2109,0.0,6.1699,6.1211,6.041,5.9961,5.959,5.9199,5.9199,5.9199,5.9258,6.0039,6.039,6.039,6.0,5.959,5.914,5.7851,5.7031,5.6601,5.6536,5.646,5.6389,5.6328,5.6222,5.6058,5.6071,5.5988,5.5904,5.5917,5.5901,5.5846,5.5818,5.5181,5.3956,5.388,5.3618,5.3222,5.3203,5.3203,5.3203,5.3203,0.0,0.0,0.0,0.0,0.0,0.0,0.0,0.0,0.0,0.0,5.5695,5.6145,5.6915,5.8127,5.8242,5.8973,6.0666,6.1935,6.2493,6.2031,6.2839,6.3685,6.4512,6.4993,6.557,6.6378,6.6147,6.607,6.6417,6.6147,6.5878,6.5878,6.5878,6.5878,6.5878,6.5878,6.5878,6.5878,6.5878,6.5878,6.5878,6.5878,6.5436,6.4224,6.3596,6.2897,6.1685,6.1127,6.08,6.0746,6.0175,5.9709,5.9391,5.8815,5.8307,5.8065,5.7978,5.7978,5.7978,5.7978,5.7978,5.7978,5.7978,5.7978,5.7978,5.7978,5.7978,5.7978,5.7978,5.7978,6.3789,6.3008,6.2988,6.25,6.1699,6.1699,6.1699,6.164,0.0,0.0,0.0,5.9648,5.9648,5.9687,6.0332,6.0625,6.0566,5.9785,5.9414,5.9336,5.7597,5.6795,5.6774,5.6482,5.6342,5.6301,5.6188,5.6045,5.5866,5.5866,5.5807,5.5705,5.5684,5.5684,5.5684,5.5684,5.5388,5.4756,5.4717,5.437,5.3664,5.3645,5.3645,5.3645,5.3645,5.3645,5.3626,5.3645,5.3703,5.3857,5.3876,5.426,5.5126,5.5799,5.653,5.7387,5.8107,5.8877,5.9665,5.9877,6.0704,6.2428,6.3955,6.482,6.4839,6.4839,6.5109,6.5859,6.5878,6.6167,6.6801,6.6301,6.6167,6.6801,6.6301,6.5878,6.5878,6.5878,6.5878,6.5878,6.5878,6.5878,6.5878,6.5878,6.5878,6.5878,6.5878,6.5282,6.3705,6.2993,6.2281,6.1127,6.0819,6.08,6.0678,6.0025,5.9441,5.9372,5.8632,5.8024,5.7978,5.7978,5.7978,5.7978,5.7978,5.7978,5.7978,5.7978,5.7978,5.7978,5.7978,5.7978,5.7978,5.7978,5.7978,6.3808,6.2988,6.2988,6.25,6.1699,6.1699,6.1699,6.168,6.1562,6.1445,6.1348,6.1367,6.1348,6.1348,6.1465,6.1523,6.1465,6.0625,6.0234,6.0137,5.838,5.7538,5.7495,5.6652,5.6152,5.5988,5.5959,5.5877,5.5729,5.5728,5.5707,5.5695,5.5684,5.5684,5.5684,5.5684,5.5656,5.5521,5.5521,5.5464,5.5357,5.5357,5.5338,5.5338,5.5318,5.5357,5.5357,5.5338,5.5684,5.6426,5.6464,5.6857,5.7703,5.7838,5.83,5.9069,5.9261,5.9723,6.055,6.13,6.2435,6.4089,6.5166,6.5705,6.5724,6.5705,6.5763,6.5878,6.5878,6.5936,6.6032,6.5974,6.5936,6.6051,6.5974,6.5878,6.5878,6.5878,6.5878,6.5878,6.5878,6.5878,6.5878,6.5878,6.5878,6.5878,6.5801,6.5243,6.3589,6.205,6.1166,6.0858,6.08,6.08,6.0702,6.0025,5.9492,5.9389,5.8652,5.8024,5.7978,5.7978,5.7978,5.7978,5.7978,5.7978,5.7978,5.7978,5.7978,5.7978,5.7978,5.7978,5.7978,5.7978,5.7978,6.5195,6.4375,6.3906,6.3223,6.2363,6.1894,6.1699,6.1699,6.1699,6.1699,6.1699,6.1699,6.1699,6.1699,6.1699,6.1699,6.166,6.0801,6.0369,6.0157,5.8495,5.7636,5.7438,5.651,5.5996,5.5896,5.5825,5.575,5.5695,5.5684,5.5684,5.5684,5.5684,5.5684,5.5684,5.5684,5.5684,5.5684,5.5684,5.5684,5.5684,5.5684,5.5684,5.5684,5.5684,5.5934,5.6387,5.6406,5.6799,5.7665,5.7703,5.8088,5.8877,5.8954,5.9319,6.0146,6.0185,6.0377,6.0762,6.2012,6.3281,6.4512,6.5397,6.5878,6.5878,6.5878,6.5878,6.5878,6.5878,6.5878,6.5878,6.5878,6.5878,6.5878,6.5878,6.5878,6.5878,6.5878,6.5878,6.5878,6.5878,6.5878,6.5878,6.5878,6.5878,6.5859,6.5551,6.4724,6.3531,6.2685,6.18,6.0993,6.08,6.08,6.0757,6.025,5.9725,5.9477,5.8835,5.8329,5.8074,5.7978,5.7978,5.7978,5.7978,5.7978,5.7978,5.7978,5.7978,5.7978,5.7978,5.7978,5.7978,5.7978,5.7978,6.6387,6.5527,6.4668,6.3671,6.2634,6.1972,6.1678,6.161,6.164,6.1634,6.1612,6.1678,6.1679,6.1657,6.1657,6.164,6.1531,6.0926,6.0553,6.0285,5.8874,5.8092,5.7858,5.6916,5.6343,5.616,5.6038,5.5887,5.5703,5.5684,5.5684,5.5684,5.5684,5.5684,5.5684,5.5684,5.5684,5.5684,5.5684,5.5684,5.5684,5.5684,5.5684,5.5703,5.5895,5.631,5.6964,5.7195,5.7684,5.8511,5.8569,5.8934,5.9723,5.98,6.0108,6.0704,6.08,6.0954,6.1416,6.2743,6.3974,6.482,6.5513,6.5878,6.5878,6.5878,6.5878,6.5878,6.5878,6.5878,6.5878,6.5878,6.5955,6.6109,6.5994,6.6013,6.6109,6.6013,6.5878,6.5878,6.5878,6.5878,6.5878,6.5878,6.5878,6.5782,6.5301,6.457,6.3801,6.3608,6.2954,6.1858,6.1223,6.1012,6.0846,6.0397,5.9962,5.9595,5.9065,5.8611,5.8242,5.8115,5.7997,5.7978,5.7978,5.7978,5.7978,5.7978,5.7978,5.7978,5.7978,5.7978,5.7978,5.7978,5.7978,6.6387,6.5527,6.4668,6.3254,6.1757,6.1713,6.1592,6.1369,6.1462,6.1448,6.1388,6.1603,6.1613,6.154,6.1512,6.1455,6.1344,6.125,6.1187,6.1061,6.0102,5.9603,5.9407,5.85,5.7659,5.6988,5.6879,5.6522,5.5876,5.5761,5.5703,5.5684,5.5684,5.5703,5.5722,5.5722,5.5722,5.5684,5.5684,5.5684,5.5684,5.5684,5.5684,5.5703,5.6483,5.6926,5.7099,5.7761,5.855,5.93,5.9396,5.9781,6.0531,6.0666,6.0704,6.08,6.08,6.1435,6.2935,6.3955,6.482,6.5647,6.5801,6.5878,6.5878,6.5878,6.5878,6.5878,6.5878,6.5878,6.5878,6.5878,6.6167,6.6763,6.634,6.6167,6.6705,6.632,6.5878,6.5878,6.5878,6.5878,6.5878,6.5878,6.5878,6.5878,6.5743,6.532,6.4532,6.4436,6.4089,6.3147,6.2474,6.1755,6.1142,6.043,6.0361,6.0114,5.9321,5.8888,5.8716,5.8312,5.7978,5.7978,5.7978,5.7978,5.7978,5.7978,5.7978,5.7978,5.7978,5.7978,5.7978,5.7978,5.7978,6.6397,6.6003,6.5125,6.3737,6.2216,6.2161,6.1855,6.132,6.1369,6.1339,6.1306,6.1424,6.1436,6.1393,6.1373,6.1363,6.1309,6.1303,6.1234,6.1038,6.0187,5.9725,5.9531,5.8732,5.8107,5.778,5.778,5.7569,5.7203,5.6722,5.6214,5.5742,5.5684,5.5945,5.6415,5.6483,5.6703,5.7203,5.7242,5.7223,5.7184,5.6703,5.6483,5.656,5.73,5.8011,5.8454,5.8838,5.9396,6.0185,6.0262,6.0416,6.0762,6.08,6.08,6.0819,6.13,6.23,6.3974,6.4416,6.4974,6.584,6.5878,6.5878,6.5878,6.5878,6.5878,6.5878,6.5878,6.5878,6.5878,6.5878,6.6237,6.6878,6.6801,6.6744,6.7032,6.6801,6.6455,6.5994,6.5878,6.5878,6.5878,6.5878,6.5878,6.5878,6.5878,6.557,6.4801,6.5032,6.4743,6.3705,6.3397,6.3224,6.2423,6.2145,6.1866,6.1457,6.0617,5.9872,5.9426,5.8588,5.7997,5.7978,5.7978,5.7978,5.7978,5.7978,5.7978,5.7978,5.7978,5.7978,5.7978,5.7978,5.7978,6.6406,6.627,6.5447,6.4208,6.2807,6.2581,6.2121,6.1519,6.131,6.1193,6.1162,6.1162,6.1162,6.117,6.1193,6.1193,6.1162,6.1162,6.1084,6.0896,6.0345,6.0006,5.9811,5.9281,5.8858,5.8665,5.8646,5.8511,5.8261,5.7703,5.703,5.6492,5.6415,5.6722,5.728,5.7357,5.7646,5.8223,5.8288,5.8288,5.8223,5.7896,5.758,5.7464,5.8184,5.8915,5.9473,5.9742,6.0127,6.0742,6.08,6.08,6.08,6.08,6.0896,6.1185,6.1954,6.3051,6.4512,6.482,6.5224,6.5801,6.5878,6.5878,6.5878,6.5878,6.5878,6.5878,6.5878,6.5878,6.5878,6.5878,6.6244,6.6955,6.6936,6.6833,6.7064,6.6968,6.6494,6.5994,6.5878,6.5878,6.5878,6.5878,6.5878,6.5878,6.5878,6.5743,6.5186,6.5455,6.5378,6.4262,6.4589,6.4397,6.357,6.3142,6.3105,6.2762,6.1799,6.0988,6.0358,5.9197,5.818,5.8262,5.812,5.7978,5.7978,5.7978,5.8015,5.7997,5.7978,5.7978,5.7978,5.7978,5.7978,6.6406,6.6264,6.546,6.4532,6.3513,6.2864,6.2372,6.2062,6.1408,6.1003,6.0922,6.09,6.0839,6.0864,6.0963,6.0945,6.0853,6.0834,6.0842,6.0808,6.075,6.0727,6.0742,6.0685,6.0223,5.9492,5.9473,5.9088,5.8396,5.828,5.8242,5.8115,5.803,5.8146,5.8242,5.8242,5.828,5.8454,5.8492,5.8396,5.8454,5.9031,5.8992,5.8473,5.9031,5.9492,5.9627,6.03,6.0742,6.0781,6.0839,6.0839,6.0819,6.0858,6.1262,6.2043,6.282,6.3647,6.457,6.534,6.5801,6.5878,6.5878,6.5878,6.5878,6.5878,6.5878,6.5878,6.5878,6.5878,6.5878,6.5878,6.6244,6.6917,6.6455,6.6436,6.7013,6.6551,6.6013,6.5897,6.5878,6.5878,6.5878,6.5878,6.5878,6.5878,6.5878,6.584,6.5782,6.584,6.5743,6.5667,6.5551,6.5243,6.3762,6.3705,6.3596,6.3341,6.3025,6.2132,6.112,6.0153,5.9292,5.8537,5.8323,5.8162,5.8033,5.8015,5.807,5.8052,5.7997,5.7978,5.7978,5.7978,5.7978,6.6097,6.6058,6.5738,6.5076,6.4246,6.3938,6.3467,6.2851,6.2579,6.2155,6.1689,6.1639,6.1331,6.0793,6.0856,6.0825,6.0793,6.08,6.08,6.08,6.08,6.08,6.08,6.08,6.0666,6.0377,6.0319,5.9896,5.9146,5.9069,5.88,5.8357,5.8288,5.855,5.8973,5.9088,5.9319,5.9838,5.9896,5.9896,5.9877,6.0185,6.0185,5.9935,6.0185,6.0339,6.0339,6.0627,6.08,6.08,6.1312,6.1639,6.1685,6.2108,6.2781,6.3608,6.3974,6.4512,6.532,6.5724,6.5878,6.5878,6.5878,6.5878,6.5878,6.5878,6.5878,6.5897,6.5897,6.5878,6.5878,6.5878,6.6205,6.6859,6.6853,6.6705,6.6974,6.6821,6.6474,6.6032,6.5878,6.5878,6.5878,6.5878,6.5878,6.5878,6.5878,6.5878,6.5878,6.5878,6.5878,6.5878,6.5878,6.5705,6.5205,6.4993,6.493,6.466,6.4221,6.3299,6.2308,6.124,6.0333,5.9228,5.8804,5.8712,5.8712,5.8749,5.8676,5.8162,5.8088,5.8162,5.7978,5.8052,5.8033,6.5878,6.5878,6.5878,6.5551,6.4993,6.4724,6.4262,6.3692,6.3416,6.2974,6.2512,6.2235,6.1755,6.1223,6.0935,6.08,6.08,6.08,6.08,6.08,6.08,6.08,6.08,6.08,6.08,6.0781,6.08,6.0473,5.9973,5.9915,5.9646,5.9165,5.9108,5.9358,5.9838,5.9915,6.0242,6.0704,6.08,6.0781,6.08,6.08,6.08,6.0781,6.08,6.08,6.08,6.1069,6.1204,6.132,6.2031,6.2474,6.2531,6.3012,6.3685,6.4474,6.4609,6.4993,6.5743,6.5878,6.5878,6.5878,6.5878,6.5878,6.5878,6.5878,6.5994,6.6186,6.6282,6.634,6.6571,6.6474,6.6417,6.6686,6.6718,6.6705,6.6724,6.6699,6.6417,6.6013,6.5878,6.5878,6.5878,6.5878,6.5878,6.5878,6.5878,6.5878,6.5878,6.5878,6.5878,6.5878,6.5878,6.5878,6.5647,6.5532,6.5551,6.5333,6.491,6.4114,6.3234,6.2215,6.119,6.0084,5.9557,5.9441,5.9423,5.9478,5.9134,5.8547,5.8492,5.8639,5.84,5.8162,5.8217,6.5878,6.5878,6.5878,6.5859,6.5686,6.5051,6.4628,6.4493,6.382,6.3493,6.3262,6.257,6.2235,6.1889,6.1262,6.0858,6.08,6.0877,6.0877,6.0819,6.08,6.08,6.08,6.08,6.08,6.08,6.08,6.0781,6.0685,6.0666,6.0608,6.0685,6.0569,6.0589,6.08,6.08,6.0839,6.1012,6.1069,6.0973,6.0839,6.1012,6.105,6.0973,6.0993,6.1012,6.0954,6.1658,6.2024,6.2197,6.2878,6.332,6.3435,6.3531,6.3801,6.4551,6.4666,6.5089,6.5743,6.5878,6.5878,6.5878,6.5878,6.5878,6.5878,6.5897,6.6186,6.6801,6.7013,6.7321,6.7917,6.7552,6.6859,6.6109,6.6167,6.6186,6.609,6.6013,6.5974,6.609,6.6109,6.5936,6.5917,6.5917,6.5897,6.5878,6.5878,6.5878,6.5878,6.5878,6.5878,6.5878,6.5878,6.5878,6.5878,6.5878,6.5859,6.5782,6.5269,6.4628,6.3725,6.2739,6.1874,6.0853,6.0419,6.0309,5.9813,5.9869,5.9924,5.9501,5.9391,5.9226,5.9116,5.8951,5.8602,6.5878,6.5878,6.5878,6.5878,6.5859,6.559,6.5493,6.5474,6.5166,6.4762,6.4205,6.3916,6.3185,6.2235,6.1781,6.1358,6.0877,6.1358,6.1389,6.0916,6.0839,6.0819,6.08,6.08,6.08,6.08,6.08,6.08,6.08,6.08,6.08,6.08,6.08,6.1127,6.1627,6.1716,6.1916,6.2474,6.2531,6.2531,6.2531,6.2512,6.2493,6.2512,6.2531,6.2531,6.2512,6.2243,6.2377,6.2897,6.3743,6.4455,6.4936,6.5089,6.5224,6.5455,6.5513,6.557,6.582,6.5878,6.5878,6.5878,6.5878,6.5878,6.5878,6.5878,6.6244,6.6955,6.7128,6.7455,6.8129,6.8205,6.7648,6.6821,6.6705,6.6724,6.6782,6.7205,6.759,6.7552,6.7109,6.6763,6.659,6.6359,6.5955,6.5878,6.5878,6.5878,6.5878,6.5878,6.5878,6.5878,6.5878,6.5878,6.5878,6.5878,6.5878,6.5775,6.5398,6.5029,6.4175,6.3319,6.2469,6.1827,6.1415,6.097,6.0474,6.0419,6.0603,6.0382,6.0126,6.0034,6.0015,5.974,5.9355,6.6167,6.5897,6.5878,6.5878,6.5878,6.5878,6.5878,6.5878,6.5878,6.557,6.5089,6.4724,6.4032,6.3089,6.2704,6.2262,6.18,6.2031,6.1973,6.1743,6.1743,6.1435,6.0916,6.08,6.1012,6.1166,6.0954,6.08,6.08,6.08,6.08,6.08,6.1089,6.1512,6.212,6.2416,6.2839,6.3243,6.3269,6.3288,6.3288,6.3288,6.3288,6.3288,6.3288,6.3474,6.3685,6.3281,6.3243,6.3839,6.4628,6.534,6.5859,6.5859,6.5878,6.5878,6.5878,6.5878,6.5878,6.5878,6.5878,6.5878,6.5878,6.5878,6.5878,6.5878,6.6263,6.6936,6.7417,6.7955,6.8706,6.8879,6.8609,6.8148,6.7763,6.7609,6.7648,6.8052,6.834,6.8205,6.7878,6.7494,6.7032,6.6763,6.6186,6.6013,6.5878,6.5878,6.5878,6.5878,6.5878,6.5878,6.5878,6.5878,6.5878,6.5878,6.5878,6.5703,6.5446,6.513,6.4594,6.3832,6.3022,6.2509,6.2053,6.1667,6.1227,6.1612,6.1814,6.1374,6.086,6.0841,6.0786,6.0382,5.9997,6.659,6.5917,6.5878,6.5878,6.5878,6.5878,6.5878,6.5878,6.5878,6.5859,6.5667,6.5089,6.4647,6.4359,6.3666,6.3281,6.3166,6.2724,6.2685,6.3031,6.3089,6.2474,6.0993,6.1069,6.1512,6.1793,6.1377,6.1089,6.1204,6.1069,6.0858,6.1031,6.1658,6.2139,6.2409,6.2974,6.3474,6.3685,6.3608,6.3628,6.3628,6.357,6.3589,6.3608,6.3666,6.3993,6.4532,6.457,6.4589,6.4762,6.5397,6.5782,6.5878,6.5878,6.5878,6.5878,6.5878,6.5878,6.5878,6.5878,6.5878,6.5878,6.5878,6.5878,6.5878,6.5917,6.6224,6.7013,6.7705,6.8571,6.9321,6.959,6.9571,6.9629,6.8956,6.8532,6.8552,6.8648,6.8821,6.8744,6.8513,6.8225,6.7513,6.7263,6.6686,6.6263,6.5994,6.5878,6.5878,6.5878,6.5878,6.5878,6.5878,6.5878,6.5878,6.5878,6.5878,6.5808,6.5569,6.5325,6.4968,6.4256,6.3612,6.3104,6.269,6.2316,6.2126,6.2383,6.2401,6.1942,6.1686,6.1667,6.1502,6.119,6.0896,6.609,6.5897,6.5878,6.5878,6.5878,6.5878,6.5878,6.5878,6.5878,6.5878,6.582,6.5667,6.5166,6.4609,6.4378,6.3935,6.3589,6.3724,6.3589,6.3442,6.3993,6.2897,6.1512,6.205,6.2397,6.2235,6.2416,6.2647,6.2589,6.1993,6.1762,6.1774,6.2062,6.2474,6.3012,6.3839,6.4589,6.5128,6.5186,6.5147,6.5147,6.5128,6.5205,6.5224,6.5166,6.5263,6.5532,6.5551,6.5551,6.557,6.5743,6.5878,6.5878,6.5878,6.5878,6.5878,6.5878,6.5878,6.5878,6.5878,6.5878,6.5878,6.5878,6.5878,6.5878,6.5878,6.6282,6.6936,6.7378,6.809,6.9321,6.9725,6.9956,7.0379,6.9821,6.9571,6.9994,7.0244,7.0244,7.0206,6.9667,6.9225,6.8763,6.7955,6.7167,6.6801,6.634,6.5974,6.6051,6.5878,6.5878,6.5878,6.5878,6.5878,6.5878,6.5878,6.5878,6.5897,6.5736,6.5556,6.5149,6.4571,6.4019,6.3527,6.3261,6.291,6.2689,6.2695,6.2511,6.2328,6.2236,6.2126,6.2365,6.2254,6.1998,6.6205,6.5897,6.5878,6.5878,6.5878,6.5878,6.5878,6.5878,6.5878,6.5878,6.5878,6.5878,6.5628,6.5186,6.5147,6.4897,6.4493,6.4532,6.4512,6.4589,6.4916,6.4089,6.2878,6.2954,6.2878,6.3166,6.3224,6.325,6.3205,6.2801,6.2627,6.2704,6.2974,6.3397,6.3878,6.4705,6.5359,6.5782,6.5878,6.5878,6.5878,6.5878,6.5878,6.5878,6.5878,6.5878,6.5878,6.5878,6.5878,6.5878,6.5878,6.5878,6.5878,6.5878,6.5878,6.5878,6.5878,6.5878,6.5878,6.5878,6.5878,6.5878,6.5878,6.5878,6.5878,6.5897,6.6186,6.6494,6.7167,6.809,6.8975,6.9744,7.036,7.0706,7.0475,7.0417,7.086,7.0821,7.0879,7.0764,7.0494,7.0033,6.9802,6.8744,6.8148,6.7609,6.6936,6.6628,6.6436,6.6147,6.5994,6.6109,6.607,6.6051,6.6013,6.5994,6.5936,6.5917,6.5853,6.569,6.5354,6.4885,6.4518,6.4079,6.3808,6.352,6.3238,6.2959,6.2732,6.2603,6.2548,6.253,6.2658,6.2548,6.2401,6.6551,6.5878,6.5878,6.5878,6.5878,6.5878,6.5878,6.5878,6.5878,6.5878,6.5878,6.5878,6.584,6.5878,6.5724,6.582,6.5763,6.5109,6.5147,6.532,6.5493,6.4936,6.4205,6.3416,6.3455,6.4012,6.3685,6.3762,6.3782,6.3608,6.3435,6.357,6.4147,6.4493,6.4628,6.5359,6.582,6.5859,6.5878,6.5878,6.5878,6.5878,6.5878,6.5878,6.5878,6.5878,6.5878,6.5878,6.5878,6.5878,6.5878,6.5878,6.5878,6.5878,6.5878,6.5878,6.5878,6.5878,6.5878,6.5878,6.5974,6.6051,6.5994,6.5955,6.6051,6.6147,6.6205,6.632,6.7513,6.8321,6.8898,6.9994,7.0706,7.0879,7.086,7.0879,7.0898,7.0898,7.0898,7.0898,7.0898,7.0514,7.009,6.9687,6.9379,6.8552,6.7859,6.7378,6.7186,6.7013,6.6782,6.6628,6.6494,6.6282,6.6205,6.6109,6.6032,6.5955,6.5897,6.5762,6.5556,6.5199,6.4919,6.4626,6.437,6.3997,6.3543,6.3262,6.3014,6.2732,6.2603,6.2567,6.2548,6.2236,6.2034,6.6051,6.5878,6.5878,6.5878,6.5878,6.5878,6.5878,6.5878,6.5878,6.5878,6.5878,6.5878,6.5878,6.5878,6.5878,6.5878,6.5878,6.559,6.5436,6.482,6.4878,6.482,6.4724,6.4647,6.4493,6.4282,6.4916,6.5263,6.5166,6.4589,6.4339,6.4378,6.4532,6.4628,6.4782,6.5474,6.5878,6.5878,6.5878,6.5878,6.5878,6.5878,6.5878,6.5878,6.5878,6.5878,6.5878,6.5878,6.5878,6.5878,6.5878,6.5878,6.5878,6.5878,6.5878,6.5878,6.5878,6.5878,6.5878,6.5917,6.6167,6.6551,6.6205,6.6167,6.6801,6.6724,6.6782,6.6994,6.7782,6.8629,6.9417,7.0283,7.0802,7.0898,7.0898,7.0898,7.0898,7.0898,7.0898,7.0898,7.0898,7.0841,7.061,7.0033,6.9687,6.934,6.884,6.8244,6.7994,6.784,6.7571,6.7301,6.7321,6.7109,6.6551,6.6359,6.607,6.5974,6.5917,6.5878,6.5676,6.5589,6.5325,6.5134,6.4952,6.45,6.3997,6.3565,6.3308,6.2951,6.2646,6.2603,6.2475,6.2071,6.1575,6.5878,6.5878,6.5878,6.5878,6.5878,6.5878,6.5878,6.5878,6.5878,6.5878,6.5878,6.5878,6.5878,6.5878,6.5878,6.5878,6.5878,6.5878,6.5667,6.5301,6.5224,6.4993,6.4801,6.5378,6.534,6.4705,6.5359,6.5859,6.5724,6.5455,6.5205,6.5205,6.5205,6.5263,6.5205,6.5667,6.5859,6.5878,6.5878,6.5878,6.5878,6.5878,6.5878,6.5878,6.5878,6.5878,6.5878,6.5878,6.5878,6.5878,6.5878,6.5878,6.5897,6.5897,6.5897,6.5878,6.5878,6.5878,6.5878,6.5917,6.607,6.6513,6.6109,6.6205,6.6436,6.6532,6.6763,6.7167,6.7917,6.8859,7.009,7.0552,7.0879,7.0898,7.0898,7.0898,7.0898,7.0898,7.0898,7.0898,7.0898,7.0898,7.0687,7.0341,7.0302,7.011,6.9571,6.8975,6.8763,6.859,6.8263,6.809,6.8205,6.7936,6.7148,6.6628,6.6147,6.6013,6.5897,6.5878,6.5808,6.5795,6.5781,6.5542,6.5276,6.4984,6.4536,6.4079,6.3615,6.3247,6.2954,6.2733,6.2248,6.1514,6.1117,6.5878,6.5878,6.5878,6.5878,6.5878,6.5878,6.5878,6.5878,6.5878,6.5878,6.5878,6.5878,6.5878,6.5878,6.5878,6.5878,6.5878,6.5878,6.5782,6.5763,6.5743,6.5436,6.5205,6.5532,6.5859,6.5878,6.5878,6.5878,6.5878,6.5878,6.5724,6.584,6.5859,6.5743,6.584,6.5878,6.5878,6.5878,6.5878,6.5878,6.5878,6.5878,6.5878,6.5878,6.5878,6.5878,6.5878,6.5878,6.5878,6.5878,6.5878,6.5878,6.5917,6.6051,6.5955,6.5955,6.6051,6.607,6.5917,6.5897,6.5955,6.6013,6.5936,6.6032,6.6128,6.6532,6.6917,6.7532,6.8359,6.9513,7.0706,7.0879,7.0898,7.0898,7.0898,7.0898,7.0898,7.0898,7.0898,7.0898,7.0898,7.0898,7.0898,7.0725,7.0821,7.0802,7.0225,6.9802,6.9571,6.9379,6.909,6.9013,6.9167,6.8648,6.7859,6.6532,6.609,6.5994,6.5878,6.5878,6.5878,6.5865,6.584,6.5795,6.5556,6.528,6.4952,6.4536,6.4062,6.3574,6.3196,6.2936,6.21,6.1012,6.086,6.5878,6.5878,6.5878,6.5878,6.5878,6.5878,6.5878,6.5878,6.5878,6.5878,6.5878,6.5878,6.5878,6.5878,6.5878,6.5878,6.5878,6.5878,6.5878,6.5878,6.5878,6.5686,6.5686,6.5724,6.5878,6.5878,6.5878,6.5878,6.5878,6.5878,6.5878,6.5878,6.5878,6.5878,6.5878,6.5878,6.5878,6.5878,6.5878,6.5878,6.5878,6.5878,6.5878,6.5878,6.5878,6.5878,6.5878,6.5878,6.5878,6.5878,6.5878,6.5936,6.6205,6.6647,6.6628,6.6263,6.659,6.6686,6.6147,6.5974,6.6282,6.6532,6.634,6.6301,6.6782,6.7417,6.7628,6.8321,6.936,7.0571,7.0821,7.0898,7.0898,7.0898,7.0898,7.0898,7.0898,7.0898,7.0841,7.0744,7.0802,7.0898,7.0898,7.0898,7.0898,7.0898,7.0629,7.0417,7.0321,7.0167,6.9994,7.0052,7.0187,6.9417,6.8532,6.6955,6.5936,6.5936,6.5878,6.5878,6.5878,6.5878,6.5865,6.5821,6.5768,6.5589,6.5245,6.4902,6.4407,6.3881,6.3485,6.3109,6.2374,6.1643,6.152,6.5878,6.5878,6.5878,6.5878,6.5878,6.5878,6.5878,6.5878,6.5878,6.5878,6.5878,6.5878,6.5878,6.5878,6.5878,6.5878,6.5878,6.5878,6.5878,6.5878,6.5878,6.5878,6.5878,6.5878,6.5878,6.5878,6.5878,6.5878,6.5878,6.5878,6.5878,6.5878,6.5878,6.5878,6.5878,6.5878,6.5878,6.5878,6.5878,6.5878,6.5878,6.5878,6.5878,6.5878,6.5878,6.5878,6.5878,6.5878,6.6128,6.6436,6.6532,6.6782,6.7244,6.7725,6.784,6.6955,6.7282,6.7378,6.6686,6.6513,6.6571,6.6417,6.6397,6.6436,6.6686,6.7128,6.8013,6.8706,6.986,7.0898,7.0898,7.0898,7.0898,7.0898,7.0898,7.0898,7.0898,7.0898,7.0744,7.0571,7.0725,7.0841,7.0898,7.0898,7.0898,7.0898,7.0898,7.0898,7.0898,7.0533,7.0206,6.9763,6.9552,6.8725,6.7975,6.6974,6.5917,6.5878,6.5878,6.5878,6.5878,6.5878,6.5878,6.5865,6.5808,6.5749,6.5569,6.5245,6.4696,6.4158,6.3712,6.3297,6.2854,6.2475,6.2163,6.5878,6.5878,6.5878,6.5878,6.5878,6.5878,6.5878,6.5878,6.5878,6.5878,6.5878,6.5878,6.5878,6.5878,6.5878,6.5878,6.5878,6.5878,6.5878,6.5878,6.5878,6.5878,6.5878,6.5878,6.5878,6.5878,6.5878,6.5878,6.5878,6.5878,6.5878,6.5878,6.5878,6.5878,6.5878,6.5878,6.5878,6.5878,6.5878,6.5878,6.5878,6.5878,6.5878,6.5878,6.5878,6.5878,6.5878,6.5878,6.632,6.6782,6.7109,6.7436,6.834,6.9225,6.9013,6.8013,6.8321,6.8032,6.7359,6.7032,6.6686,6.6147,6.6686,6.6628,6.6763,6.7359,6.8167,6.8956,6.9975,7.0898,7.0898,7.0898,7.0898,7.0898,7.0898,7.0898,7.0898,7.0841,7.0687,7.0629,7.0706,7.061,7.0514,7.0533,7.0475,7.0879,7.0898,7.0898,7.0802,7.0167,6.9706,6.8994,6.8417,6.759,6.7013,6.6724,6.6013,6.5878,6.5878,6.5878,6.5878,6.5878,6.5878,6.5878,6.5878,6.5808,6.569,6.548,6.4869,6.4332,6.3915,6.3438,6.2922,6.2511,6.2199,6.5878,6.5878,6.5878,6.5878,6.5878,6.5878,6.5878,6.5878,6.5878,6.5878,6.5878,6.5878,6.5878,6.5878,6.5878,6.5878,6.5878,6.5878,6.5878,6.5878,6.5878,6.5878,6.5878,6.5878,6.5878,6.5878,6.5878,6.5878,6.5878,6.5878,6.5878,6.5878,6.5878,6.5878,6.5878,6.5878,6.5878,6.5878,6.5878,6.5878,6.5878,6.5878,6.5878,6.5878,6.5878,6.5955,6.6013,6.607,6.6455,6.7167,6.7225,6.7571,6.8359,6.9225,6.9571,6.9456,6.934,6.8859,6.7628,6.7398,6.7071,6.6571,6.6878,6.6994,6.7436,6.8321,6.9436,7.0514,7.0841,7.0879,7.0898,7.0898,7.0898,7.0898,7.0898,7.0898,7.0879,7.0533,7.0398,7.0052,6.9937,6.9917,6.986,6.9956,7.0052,7.0533,7.0898,7.0879,7.061,6.9937,6.9109,6.8379,6.7628,6.6801,6.6571,6.6205,6.6051,6.5897,6.5878,6.5878,6.5878,6.5878,6.5878,6.5878,6.5878,6.5878,6.5795,6.548,6.4952,6.4444,6.3956,6.3435,6.2892,6.2555,6.2273,6.5878,6.5878,6.5878,6.5878,6.5878,6.5878,6.5878,6.5878,6.5878,6.5878,6.5878,6.5878,6.5878,6.5878,6.5878,6.5878,6.5878,6.5878,6.5878,6.5878,6.5878,6.5878,6.5878,6.5878,6.5878,6.5878,6.5878,6.5878,6.5878,6.5878,6.5878,6.5878,6.5878,6.5878,6.5878,6.5878,6.5878,6.5878,6.5878,6.5878,6.5878,6.5878,6.5878,6.5878,6.5878,6.6109,6.6417,6.659,6.7282,6.8205,6.8571,6.8975,6.9648,7.0187,7.0379,7.036,7.0379,6.9802,6.884,6.859,6.7994,6.7725,6.7994,6.8609,6.8763,6.9206,6.9821,7.0148,7.0648,7.086,7.0898,7.0898,7.0898,7.0898,7.0898,7.0898,7.0764,7.0283,6.9956,6.9552,6.9206,6.9186,6.936,6.9802,7.0052,7.0475,7.0764,7.0783,7.0302,6.9552,6.8667,6.7705,6.6936,6.6147,6.6147,6.6032,6.5994,6.5878,6.5878,6.5878,6.5878,6.5878,6.5878,6.5878,6.5878,6.5865,6.5853,6.5451,6.4885,6.4426,6.3977,6.3408,6.2867,6.2738,6.2291,6.5878,6.5878,6.5878,6.5878,6.5878,6.5878,6.5878,6.5878,6.5878,6.5878,6.5878,6.5878,6.5878,6.5878,6.5878,6.5878,6.5878,6.5878,6.5878,6.5878,6.5878,6.5878,6.5878,6.5878,6.5878,6.5878,6.5878,6.5878,6.5878,6.5878,6.5878,6.5878,6.5878,6.5878,6.5878,6.5878,6.5878,6.5878,6.5878,6.5878,6.5878,6.5878,6.5878,6.5878,6.5955,6.6167,6.6705,6.7013,6.7878,6.884,6.9436,6.9802,7.0552,7.0725,7.0783,7.0783,7.0783,7.0552,6.9956,6.961,6.9244,6.8994,6.9186,6.9552,6.9937,6.9994,7.0014,7.0206,7.0552,7.086,7.0898,7.0898,7.0898,7.0898,7.0898,7.0898,7.0764,7.0167,6.9763,6.9513,6.909,6.8456,6.8802,6.959,7.0071,7.0437,7.061,7.061,7.0071,6.9302,6.8475,6.7571,6.6955,6.6224,6.5955,6.5936,6.5897,6.5878,6.5878,6.5878,6.5878,6.5878,6.5878,6.5878,6.5878,6.5703,6.5583,6.5215,6.4799,6.437,6.3873,6.3358,6.2941,6.2763,6.2218,6.5878,6.5878,6.5878,6.5878,6.5878,6.5878,6.5878,6.5878,6.5878,6.5878,6.5878,6.584,6.5782,6.5878,6.5878,6.5878,6.5878,6.5878,6.5878,6.5878,6.5878,6.5878,6.5878,6.5878,6.5878,6.5878,6.5878,6.5878,6.5878,6.5878,6.5878,6.5878,6.5878,6.5878,6.5878,6.5878,6.5878,6.5878,6.5878,6.5878,6.5878,6.5878,6.5878,6.5878,6.5878,6.5936,6.6032,6.6724,6.7667,6.8744,6.9379,7.0071,7.0725,7.0879,7.0898,7.0898,7.0898,7.0783,7.0571,7.0129,6.936,6.8994,6.9263,7.009,7.0533,7.0725,7.0783,7.0667,7.0821,7.086,7.0898,7.0898,7.0898,7.0898,7.0898,7.0898,7.0591,6.9898,6.9533,6.9436,6.8859,6.7955,6.7763,6.8417,6.9186,6.9552,6.9783,6.9802,6.9821,6.9186,6.8475,6.7725,6.7205,6.659,6.5994,6.5878,6.5878,6.5878,6.5878,6.5878,6.5878,6.5878,6.5878,6.584,6.5795,6.5556,6.5226,6.4782,6.4388,6.4178,6.3768,6.3191,6.28,6.2573,6.1887,6.5878,6.5878,6.5878,6.5878,6.5878,6.5878,6.5878,6.5878,6.5878,6.5878,6.584,6.5397,6.5416,6.5763,6.5878,6.5878,6.5878,6.5878,6.5878,6.5878,6.5878,6.5878,6.5878,6.5878,6.5878,6.5878,6.5878,6.5878,6.5878,6.5878,6.5878,6.5878,6.5878,6.5878,6.5878,6.5878,6.5878,6.5878,6.5878,6.5878,6.5878,6.5878,6.5878,6.5878,6.5878,6.6186,6.6609,6.6917,6.7898,6.8859,6.9475,7.0167,7.0764,7.086,7.0898,7.0898,7.0898,7.0898,7.0898,7.0591,7.0264,7.0148,7.0283,7.0552,7.0898,7.0898,7.0898,7.0879,7.0898,7.0898,7.0898,7.0898,7.0898,7.0898,7.0898,7.0898,7.0533,6.984,6.934,6.9263,6.8109,6.6936,6.6955,6.7128,6.7917,6.8609,6.8821,6.9013,6.9129,6.9033,6.8302,6.7705,6.7167,6.6609,6.5994,6.5897,6.5878,6.5878,6.5878,6.5878,6.5878,6.5878,6.5878,6.5808,6.563,6.5354,6.4935,6.4351,6.4019,6.3873,6.3479,6.2959,6.264,6.2475,6.1759,6.5743,6.5513,6.5493,6.5667,6.584,6.5609,6.5493,6.5474,6.5186,6.5301,6.5474,6.4897,6.507,6.5686,6.5878,6.5878,6.5878,6.5878,6.5878,6.5878,6.5878,6.5878,6.5878,6.5878,6.5878,6.5878,6.5878,6.5878,6.5878,6.5878,6.5878,6.5878,6.5878,6.5878,6.5878,6.5878,6.5878,6.5878,6.5878,6.5878,6.5878,6.5878,6.5878,6.5878,6.5878,6.607,6.6667,6.7167,6.8052,6.9013,6.9744,7.0302,7.0687,7.0898,7.0898,7.0898,7.0898,7.0898,7.0898,7.0898,7.0898,7.0706,7.0744,7.0841,7.0898,7.0898,7.0898,7.0898,7.0898,7.0898,7.0898,7.0898,7.0898,7.0898,7.0898,7.086,7.0533,6.9975,6.9475,6.9071,6.7802,6.684,6.7321,6.7552,6.7571,6.8205,6.8436,6.8667,6.8802,6.859,6.8071,6.7532,6.7071,6.6494,6.5936,6.5917,6.5878,6.5878,6.5878,6.5878,6.5878,6.5878,6.5878,6.584,6.5603,6.5146,6.466,6.4138,6.385,6.3656,6.3215,6.2823,6.2787,6.2567,6.1961,6.5378,6.4666,6.4628,6.507,6.559,6.4974,6.4628,6.4512,6.3839,6.3897,6.4589,6.4493,6.4974,6.5647,6.5782,6.5878,6.5878,6.5878,6.5878,6.5878,6.5878,6.5878,6.5878,6.5878,6.5878,6.5878,6.5878,6.5878,6.5878,6.5878,6.5878,6.5878,6.5878,6.5878,6.5878,6.5878,6.5878,6.5878,6.5878,6.5878,6.5878,6.5878,6.5878,6.5878,6.5878,6.6013,6.6301,6.7282,6.809,6.8686,6.9917,7.0533,7.0841,7.0898,7.0898,7.0898,7.0898,7.0898,7.0898,7.0898,7.0898,7.0898,7.0898,7.0898,7.0898,7.0898,7.0898,7.0898,7.0898,7.0898,7.0898,7.0898,7.0898,7.0898,7.0898,7.0821,7.0514,7.0052,6.9533,6.9167,6.8167,6.7359,6.7955,6.8231,6.7802,6.7898,6.8109,6.8302,6.8456,6.7955,6.7398,6.7321,6.6878,6.6436,6.5955,6.5917,6.5878,6.5878,6.5878,6.5878,6.5878,6.5878,6.5865,6.584,6.5388,6.4835,6.4389,6.3936,6.3634,6.3312,6.3091,6.2823,6.2823,6.2695,6.2199,6.4532,6.3743,6.3743,6.3916,6.4128,6.3865,6.3724,6.3589,6.2974,6.2974,6.3608,6.3743,6.4224,6.4936,6.557,6.5782,6.582,6.5878,6.5878,6.5859,6.582,6.5878,6.5878,6.5878,6.5878,6.5878,6.5878,6.5878,6.5878,6.5878,6.5878,6.5878,6.5878,6.5878,6.5878,6.5878,6.5878,6.5878,6.5878,6.5878,6.5878,6.5878,6.5878,6.5878,6.5878,6.5878,6.5955,6.7109,6.7802,6.8417,6.9687,7.036,7.0783,7.0898,7.0898,7.0898,7.0898,7.0898,7.0898,7.0898,7.0898,7.0898,7.0898,7.0898,7.0898,7.0898,7.0898,7.0898,7.0898,7.0898,7.0898,7.0898,7.0898,7.0898,7.0898,7.0898,7.0629,7.0071,6.9571,6.9321,6.8629,6.8186,6.8385,6.8769,6.8494,6.7763,6.784,6.7955,6.809,6.7205,6.6513,6.6782,6.6647,6.6282,6.5994,6.5917,6.5878,6.5878,6.5878,6.5878,6.5878,6.5878,6.5676,6.5542,6.5022,6.4482,6.3977,6.3524,6.322,6.2959,6.2855,6.2823,6.2823,6.2823,6.2677,6.3764,6.2935,6.2897,6.2685,6.2512,6.2762,6.2743,6.2397,6.1897,6.2108,6.2762,6.2897,6.3358,6.4128,6.4686,6.5013,6.5013,6.4993,6.532,6.5359,6.5436,6.559,6.5782,6.5878,6.5878,6.5878,6.5878,6.5878,6.5878,6.5878,6.5878,6.5878,6.5878,6.5878,6.5878,6.5878,6.5878,6.5878,6.5878,6.5878,6.5878,6.5878,6.5878,6.5878,6.5878,6.5878,6.6128,6.6686,6.7494,6.8379,6.9225,7.0071,7.0629,7.0898,7.0898,7.0898,7.0898,7.0898,7.0898,7.0898,7.0898,7.0898,7.0898,7.0898,7.0898,7.0898,7.0898,7.0898,7.0898,7.0898,7.0898,7.0898,7.0898,7.0898,7.0898,7.0898,7.0783,7.0244,7.011,6.9821,6.9456,6.909,6.8846,6.9071,6.9186,6.8359,6.759,6.7648,6.7628,6.6763,6.6032,6.6263,6.6417,6.6128,6.5936,6.5917,6.5878,6.5878,6.5878,6.5878,6.5878,6.5878,6.5556,6.5196,6.475,6.4236,6.3527,6.3091,6.2941,6.2904,6.283,6.2823,6.2823,6.2805,6.2805,6.3035,6.2123,6.2038,6.1577,6.1069,6.1774,6.1608,6.0877,6.0839,6.13,6.2031,6.2139,6.2627,6.3185,6.3358,6.3519,6.3608,6.3577,6.3993,6.4474,6.4743,6.5166,6.559,6.582,6.5878,6.5878,6.5878,6.5878,6.5878,6.5878,6.5878,6.5878,6.5878,6.5878,6.5878,6.5878,6.5878,6.5878,6.5878,6.5878,6.5878,6.5878,6.5878,6.5878,6.5878,6.5878,6.6186,6.6821,6.7609,6.8456,6.9321,7.011,7.0629,7.0879,7.0898,7.0898,7.0898,7.0898,7.0898,7.0898,7.0898,7.0898,7.0898,7.0898,7.0898,7.0898,7.0898,7.0898,7.0898,7.0898,7.0898,7.0898,7.0898,7.0898,7.0898,7.0898,7.0898,7.0764,7.0744,7.0494,7.009,6.9802,6.9744,6.984,6.961,6.8744,6.784,6.7051,6.6955,6.6513,6.5936,6.5936,6.6032,6.5974,6.5878,6.5878,6.5878,6.5878,6.5878,6.5878,6.5878,6.5762,6.5374,6.4971,6.4591,6.4017,6.3266,6.2941,6.2855,6.2823,6.2823,6.2823,6.2823,6.2805,6.264,6.1216,6.0679,6.0674,6.0706,6.0827,6.1069,6.1012,6.0819,6.08,6.0993,6.1216,6.1851,6.2185,6.2474,6.3051,6.3192,6.3231,6.3308,6.3423,6.3762,6.4128,6.4628,6.5089,6.5513,6.5763,6.5878,6.5878,6.5878,6.5878,6.5878,6.5878,6.5878,6.5878,6.5878,6.5878,6.5878,6.5878,6.5878,6.5878,6.5878,6.5878,6.5878,6.5878,6.5878,6.5878,6.5878,6.6128,6.7128,6.7917,6.8475,6.9802,7.0706,7.0802,7.0898,7.0898,7.0898,7.0898,7.0898,7.0898,7.0898,7.0898,7.0898,7.0898,7.0898,7.0898,7.0898,7.0898,7.0898,7.0898,7.0898,7.0898,7.0898,7.0898,7.0898,7.0898,7.0898,7.0898,7.0898,7.0898,7.0802,7.0417,7.0398,7.0379,7.0264,6.9917,6.9071,6.8167,6.7205,6.6436,6.6051,6.5878,6.5878,6.5878,6.5878,6.5878,6.5878,6.5878,6.5878,6.5878,6.5865,6.584,6.5616,6.5184,6.4626,6.4059,6.3546,6.2965,6.2823,6.2823,6.2823,6.2823,6.2823,6.2805,6.2805,6.2695,6.0335,5.9877,6.0025,6.0384,6.0757,6.08,6.08,6.08,6.08,6.08,6.0877,6.1339,6.1581,6.1647,6.2031,6.2224,6.2204,6.2166,6.2358,6.2954,6.3455,6.4032,6.4551,6.5128,6.5532,6.5724,6.5878,6.5878,6.5878,6.5878,6.5878,6.5878,6.5878,6.5878,6.5878,6.5878,6.5878,6.5878,6.5878,6.5878,6.5878,6.5878,6.5878,6.5878,6.5878,6.5878,6.5974,6.7167,6.7628,6.8263,6.9667,7.0283,7.0571,7.0898,7.0898,7.0898,7.0898,7.0898,7.0898,7.0898,7.0898,7.0898,7.0898,7.0898,7.0898,7.0898,7.0898,7.0898,7.0898,7.0898,7.0898,7.0898,7.0898,7.0898,7.0898,7.0898,7.0898,7.0898,7.0898,7.0898,7.0841,7.0841,7.0764,7.061,7.011,6.9013,6.8167,6.7417,6.6609,6.5994,6.5878,6.5878,6.5878,6.5878,6.5878,6.5878,6.5878,6.5878,6.5878,6.5865,6.5795,6.5403,6.4902,6.4179,6.3412,6.3044,6.2823,6.2823,6.2823,6.2823,6.2823,6.2823,6.2823,6.2805,6.264,6.007,5.9477,5.992,6.0338,6.0714,6.0757,6.08,6.08,6.08,6.08,6.08,6.0819,6.0896,6.1031,6.1166,6.1127,6.1185,6.1223,6.1512,6.2043,6.2389,6.307,6.407,6.4628,6.5243,6.5667,6.5878,6.5878,6.5878,6.5878,6.5878,6.5878,6.5878,6.5878,6.5878,6.5878,6.5878,6.5878,6.5878,6.5878,6.5878,6.5878,6.5878,6.5878,6.5878,6.5897,6.5936,6.6263,6.6705,6.7763,6.8635,6.9321,7.0167,7.0879,7.0879,7.0898,7.0898,7.0898,7.0898,7.0898,7.0898,7.0898,7.0898,7.0898,7.0898,7.0898,7.0898,7.0898,7.0898,7.0898,7.0898,7.0898,7.0898,7.0898,7.0898,7.0898,7.0898,7.0898,7.0898,7.0898,7.0898,7.0841,7.0456,7.0206,6.9494,6.8629,6.7955,6.7321,6.6705,6.5994,6.5897,6.5897,6.5878,6.5878,6.5878,6.5878,6.5878,6.5878,6.5878,6.5736,6.5589,6.5134,6.4607,6.3834,6.3091,6.2965,6.2823,6.2823,6.2823,6.2823,6.2823,6.2823,6.2823,6.2823,6.2713,5.9578,5.9441,5.9901,6.0175,6.0305,6.0647,6.08,6.08,6.08,6.08,6.08,6.08,6.08,6.08,6.08,6.08,6.08,6.08,6.0916,6.137,6.1716,6.2435,6.3608,6.4205,6.4955,6.5628,6.5878,6.5878,6.5878,6.5878,6.5878,6.5878,6.5878,6.5878,6.5878,6.5878,6.5878,6.5878,6.5878,6.5878,6.5878,6.5878,6.5878,6.5878,6.5878,6.5878,6.6032,6.6494,6.6859,6.7436,6.8109,6.8936,6.9898,7.0552,7.086,7.0898,7.0898,7.0898,7.0898,7.0898,7.0898,7.0898,7.0898,7.0898,7.0898,7.0898,7.0898,7.0898,7.0898,7.0898,7.0898,7.0898,7.0898,7.0898,7.0898,7.0898,7.0898,7.0898,7.0898,7.0898,7.0898,7.0591,7.0206,6.961,6.8821,6.8167,6.7609,6.7032,6.6532,6.5955,6.5955,6.5955,6.5897,6.5878,6.5878,6.5878,6.5878,6.5853,6.5808,6.563,6.5359,6.4713,6.404,6.3435,6.2855,6.2823,6.2823,6.2823,6.2823,6.2823,6.2823,6.2823,6.2823,6.2823,6.275,5.9389,5.9477,5.9901,6.0084,6.0175,6.061,6.08,6.08,6.08,6.08,6.08,6.08,6.08,6.08,6.08,6.08,6.08,6.08,6.0839,6.1031,6.132,6.1935,6.2781,6.3647,6.4416,6.5147,6.5724,6.5878,6.5878,6.5878,6.5878,6.5878,6.5878,6.5878,6.5878,6.5878,6.5878,6.5878,6.5878,6.5878,6.5878,6.5878,6.5878,6.5878,6.5878,6.5878,6.5994,6.6417,6.6705,6.7398,6.834,6.9033,6.986,7.0475,7.0841,7.0898,7.0898,7.0898,7.0898,7.0898,7.0898,7.0898,7.0898,7.0898,7.0898,7.0898,7.0898,7.0898,7.0898,7.0898,7.0898,7.0898,7.0898,7.0898,7.0898,7.0898,7.0898,7.0898,7.0898,7.0898,7.0802,7.0552,7.0167,6.9821,6.8956,6.7878,6.7301,6.6898,6.6378,6.6013,6.6013,6.5974,6.5917,6.5878,6.5878,6.5878,6.5878,6.584,6.5722,6.5137,6.4626,6.4079,6.3479,6.3068,6.2823,6.2823,6.2823,6.2823,6.2823,6.2823,6.2823,6.2823,6.2823,6.2823,6.2787,5.9396,5.9543,5.9855,6.001,6.0069,6.0495,6.069,6.0702,6.0769,6.08,6.08,6.08,6.08,6.08,6.08,6.08,6.08,6.08,6.08,6.08,6.0839,6.157,6.2224,6.2878,6.3782,6.4724,6.5493,6.5763,6.5878,6.5878,6.5878,6.5878,6.5878,6.5878,6.5878,6.5878,6.5878,6.5878,6.5878,6.5878,6.5878,6.5878,6.5878,6.5878,6.5878,6.5878,6.5897,6.6032,6.6359,6.7186,6.8282,6.8994,6.9687,7.0264,7.0744,7.0898,7.0898,7.0898,7.0898,7.0898,7.0898,7.0898,7.0898,7.0898,7.0898,7.0898,7.0898,7.0898,7.0898,7.0898,7.0898,7.0898,7.0898,7.0898,7.0898,7.0898,7.0898,7.0898,7.0898,7.0898,7.0725,7.0494,6.9937,6.9629,6.8821,6.7763,6.709,6.6763,6.6436,6.6205,6.609,6.6013,6.5897,6.5878,6.5878,6.5853,6.5833,6.5603,6.5374,6.459,6.3956,6.3568,6.322,6.299,6.2823,6.2823,6.2823,6.2823,6.2823,6.2823,6.2823,6.2823,6.2823,6.2823,6.2823,5.9386,5.9931,5.9696,5.9526,5.9628,6.004,6.0236,6.0311,6.0634,6.08,6.08,6.08,6.08,6.08,6.08,6.08,6.08,6.08,6.08,6.08,6.08,6.137,6.1908,6.2358,6.3281,6.4262,6.5205,6.5743,6.5647,6.5724,6.5878,6.5878,6.5878,6.5878,6.5878,6.5878,6.5878,6.5878,6.5878,6.5878,6.5878,6.5878,6.5878,6.5878,6.5878,6.5878,6.5897,6.5878,6.5974,6.6571,6.7648,6.8436,6.9206,6.9975,7.061,7.0898,7.0898,7.0898,7.0898,7.0898,7.0898,7.0898,7.0898,7.0898,7.0898,7.0898,7.0898,7.0898,7.0898,7.0898,7.0898,7.0898,7.0898,7.0898,7.0898,7.0898,7.0898,7.0898,7.0898,7.0898,7.0841,7.0129,6.9148,6.8706,6.8129,6.7186,6.6474,6.6167,6.6167,6.6128,6.616,6.6032,6.5897,6.5878,6.5878,6.5762,6.569,6.5417,6.5019,6.4294,6.3683,6.3196,6.291,6.283,6.2823,6.2823,6.2823,6.2823,6.2823,6.2823,6.2823,6.2823,6.2823,6.2823,6.2823]}]]